Wetterdaten: Freitag, 05.08.2016
Datum Zeit Temp. A. Temp. A. max Feuchte A. Luftdruck Regen Wind Richtung Richtung Sonnenschein ET UV Solar Taupunkt Windben
05.08.2016 00:00 14,6 C 14,6 C 92 % 1011,5 hPa 0,2 mm 6,7 km/h (2 Bft) W-NW 285 0 min 0,000 mm 0,0 UV-I 0 W/m 13,3 C 11,3 km/h (2 Bft)
05.08.2016 00:01 14,6 C 14,6 C 92 % 1011,5 hPa 0,0 mm 4,1 km/h (1 Bft) W 275 0 min 0,000 mm 0,0 UV-I 0 W/m 13,3 C 6,4 km/h (2 Bft)
05.08.2016 00:02 14,6 C 14,6 C 92 % 1011,5 hPa 0,0 mm 2,4 km/h (1 Bft) W-SW 255 0 min 0,000 mm 0,0 UV-I 0 W/m 13,3 C 4,8 km/h (1 Bft)
05.08.2016 00:03 14,6 C 14,6 C 92 % 1011,4 hPa 0,0 mm 3,7 km/h (1 Bft) W 265 0 min 0,000 mm 0,0 UV-I 0 W/m 13,3 C 4,8 km/h (1 Bft)
05.08.2016 00:04 14,6 C 14,6 C 92 % 1011,4 hPa 0,0 mm 1,0 km/h (0 Bft) W 265 0 min 0,000 mm 0,0 UV-I 0 W/m 13,3 C 1,6 km/h (1 Bft)
05.08.2016 00:05 14,6 C 14,6 C 92 % 1011,4 hPa 0,2 mm 2,3 km/h (1 Bft) W 267 0 min 0,000 mm 0,0 UV-I 0 W/m 13,3 C 4,8 km/h (1 Bft)
05.08.2016 00:06 14,6 C 14,6 C 92 % 1011,4 hPa 0,0 mm 2,7 km/h (1 Bft) W 259 0 min 0,000 mm 0,0 UV-I 0 W/m 13,3 C 4,8 km/h (1 Bft)
05.08.2016 00:07 14,5 C 14,6 C 93 % 1011,4 hPa 0,2 mm 0,6 km/h (0 Bft) W 259 0 min 0,000 mm 0,0 UV-I 0 W/m 13,4 C 1,6 km/h (1 Bft)
05.08.2016 00:08 14,5 C 14,6 C 93 % 1011,4 hPa 0,0 mm 0,8 km/h (0 Bft) W 259 0 min 0,000 mm 0,0 UV-I 0 W/m 13,4 C 1,6 km/h (1 Bft)
05.08.2016 00:09 14,4 C 14,5 C 93 % 1011,4 hPa 0,2 mm 0,6 km/h (0 Bft) W 259 0 min 0,000 mm 0,0 UV-I 0 W/m 13,3 C 1,6 km/h (1 Bft)
05.08.2016 00:10 14,4 C 14,4 C 93 % 1011,5 hPa 0,0 mm 0,7 km/h (0 Bft) W 259 0 min 0,000 mm 0,0 UV-I 0 W/m 13,3 C 3,2 km/h (1 Bft)
05.08.2016 00:11 14,4 C 14,4 C 93 % 1011,5 hPa 0,0 mm 1,6 km/h (1 Bft) W-SW 242 0 min 0,000 mm 0,0 UV-I 0 W/m 13,3 C 3,2 km/h (1 Bft)
05.08.2016 00:12 14,4 C 14,4 C 93 % 1011,5 hPa 0,0 mm 0,7 km/h (0 Bft) W-SW 242 0 min 0,000 mm 0,0 UV-I 0 W/m 13,3 C 1,6 km/h (1 Bft)
05.08.2016 00:13 14,4 C 14,4 C 93 % 1011,5 hPa 0,2 mm 0,3 km/h (0 Bft) W-SW 242 0 min 0,000 mm 0,0 UV-I 0 W/m 13,3 C 1,6 km/h (1 Bft)
05.08.2016 00:14 14,4 C 14,4 C 93 % 1011,5 hPa 0,0 mm 2,3 km/h (1 Bft) W-SW 252 0 min 0,000 mm 0,0 UV-I 0 W/m 13,3 C 4,8 km/h (1 Bft)
05.08.2016 00:15 14,4 C 14,4 C 93 % 1011,5 hPa 0,0 mm 3,2 km/h (1 Bft) SW 223 0 min 0,000 mm 0,0 UV-I 0 W/m 13,3 C 4,8 km/h (1 Bft)
05.08.2016 00:16 14,5 C 14,5 C 94 % 1011,4 hPa 0,0 mm 0,6 km/h (0 Bft) SW 222 0 min 0,000 mm 0,0 UV-I 0 W/m 13,5 C 1,6 km/h (1 Bft)
05.08.2016 00:17 14,4 C 14,5 C 93 % 1011,4 hPa 0,0 mm 1,7 km/h (1 Bft) SW 224 0 min 0,000 mm 0,0 UV-I 0 W/m 13,3 C 4,8 km/h (1 Bft)
05.08.2016 00:18 14,5 C 14,5 C 93 % 1011,4 hPa 0,2 mm 2,6 km/h (1 Bft) SW 221 0 min 0,000 mm 0,0 UV-I 0 W/m 13,4 C 4,8 km/h (1 Bft)
05.08.2016 00:19 14,4 C 14,5 C 93 % 1011,4 hPa 0,0 mm 0,8 km/h (0 Bft) SW 221 0 min 0,000 mm 0,0 UV-I 0 W/m 13,3 C 1,6 km/h (1 Bft)
05.08.2016 00:20 14,5 C 14,5 C 93 % 1011,4 hPa 0,0 mm 0,7 km/h (0 Bft) SW 221 0 min 0,000 mm 0,0 UV-I 0 W/m 13,4 C 1,6 km/h (1 Bft)
05.08.2016 00:21 14,6 C 14,6 C 93 % 1011,4 hPa 0,0 mm 0,3 km/h (0 Bft) SW 221 0 min 0,000 mm 0,0 UV-I 0 W/m 13,5 C 1,6 km/h (1 Bft)
05.08.2016 00:22 14,5 C 14,6 C 93 % 1011,4 hPa 0,0 mm 0,1 km/h (0 Bft) SW 221 0 min 0,000 mm 0,0 UV-I 0 W/m 13,4 C 1,6 km/h (1 Bft)
05.08.2016 00:23 14,6 C 14,6 C 93 % 1011,4 hPa 0,0 mm 0,0 km/h (0 Bft) SW 221 0 min 0,000 mm 0,0 UV-I 0 W/m 13,5 C 0,0 km/h (0 Bft)
05.08.2016 00:24 14,5 C 14,6 C 93 % 1011,3 hPa 0,0 mm 0,5 km/h (0 Bft) S-SW 201 0 min 0,000 mm 0,0 UV-I 0 W/m 13,4 C 1,6 km/h (1 Bft)
05.08.2016 00:25 14,5 C 14,6 C 93 % 1011,3 hPa 0,2 mm 2,2 km/h (1 Bft) S-SW 200 0 min 0,000 mm 0,0 UV-I 0 W/m 13,4 C 3,2 km/h (1 Bft)
05.08.2016 00:26 14,5 C 14,6 C 93 % 1011,3 hPa 0,0 mm 1,5 km/h (1 Bft) S-SW 200 0 min 0,000 mm 0,0 UV-I 0 W/m 13,4 C 3,2 km/h (1 Bft)
05.08.2016 00:27 14,5 C 14,5 C 93 % 1011,3 hPa 0,0 mm 2,3 km/h (1 Bft) S 185 0 min 0,000 mm 0,0 UV-I 0 W/m 13,4 C 4,8 km/h (1 Bft)
05.08.2016 00:28 14,5 C 14,5 C 93 % 1011,4 hPa 0,0 mm 3,4 km/h (1 Bft) S-SO 167 0 min 0,000 mm 0,0 UV-I 0 W/m 13,4 C 6,4 km/h (2 Bft)
05.08.2016 00:29 14,5 C 14,5 C 93 % 1011,5 hPa 0,2 mm 4,6 km/h (1 Bft) S 180 0 min 0,000 mm 0,0 UV-I 0 W/m 13,4 C 8,0 km/h (2 Bft)
05.08.2016 00:30 14,5 C 14,6 C 93 % 1011,5 hPa 0,0 mm 3,1 km/h (1 Bft) S-SW 206 0 min 0,000 mm 0,0 UV-I 0 W/m 13,4 C 6,4 km/h (2 Bft)
05.08.2016 00:31 14,6 C 14,6 C 93 % 1011,5 hPa 0,0 mm 3,4 km/h (1 Bft) S 191 0 min 0,000 mm 0,0 UV-I 0 W/m 13,5 C 6,4 km/h (2 Bft)
05.08.2016 00:32 14,6 C 14,6 C 93 % 1011,5 hPa 0,2 mm 2,3 km/h (1 Bft) S 191 0 min 0,000 mm 0,0 UV-I 0 W/m 13,5 C 4,8 km/h (1 Bft)
05.08.2016 00:33 14,6 C 14,6 C 93 % 1011,6 hPa 0,0 mm 0,7 km/h (0 Bft) S 191 0 min 0,000 mm 0,0 UV-I 0 W/m 13,5 C 1,6 km/h (1 Bft)
05.08.2016 00:34 14,5 C 14,6 C 93 % 1011,6 hPa 0,0 mm 0,3 km/h (0 Bft) S 191 0 min 0,000 mm 0,0 UV-I 0 W/m 13,4 C 1,6 km/h (1 Bft)
05.08.2016 00:35 14,6 C 14,6 C 93 % 1011,6 hPa 0,2 mm 2,0 km/h (1 Bft) S-SO 161 0 min 0,000 mm 0,0 UV-I 0 W/m 13,5 C 3,2 km/h (1 Bft)
05.08.2016 00:36 14,6 C 14,6 C 93 % 1011,6 hPa 0,0 mm 0,0 km/h (0 Bft) S-SO 161 0 min 0,000 mm 0,0 UV-I 0 W/m 13,5 C 0,0 km/h (0 Bft)
05.08.2016 00:37 14,5 C 14,6 C 93 % 1011,6 hPa 0,0 mm 0,3 km/h (0 Bft) S-SO 160 0 min 0,000 mm 0,0 UV-I 0 W/m 13,4 C 1,6 km/h (1 Bft)
05.08.2016 00:38 14,6 C 14,6 C 93 % 1011,6 hPa 0,2 mm 0,3 km/h (0 Bft) S-SO 161 0 min 0,000 mm 0,0 UV-I 0 W/m 13,5 C 1,6 km/h (1 Bft)
05.08.2016 00:39 14,6 C 14,6 C 94 % 1011,6 hPa 0,0 mm 0,0 km/h (0 Bft) S-SO 160 0 min 0,000 mm 0,0 UV-I 0 W/m 13,6 C 0,0 km/h (0 Bft)
05.08.2016 00:40 14,5 C 14,6 C 94 % 1011,6 hPa 0,0 mm 0,0 km/h (0 Bft) S-SO 160 0 min 0,000 mm 0,0 UV-I 0 W/m 13,5 C 0,0 km/h (0 Bft)
05.08.2016 00:41 14,6 C 14,6 C 94 % 1011,6 hPa 0,2 mm 0,8 km/h (0 Bft) S-SO 160 0 min 0,000 mm 0,0 UV-I 0 W/m 13,6 C 1,6 km/h (1 Bft)
05.08.2016 00:42 14,5 C 14,6 C 94 % 1011,6 hPa 0,0 mm 0,0 km/h (0 Bft) S-SO 160 0 min 0,000 mm 0,0 UV-I 0 W/m 13,5 C 0,0 km/h (0 Bft)
05.08.2016 00:43 14,5 C 14,6 C 94 % 1011,6 hPa 0,2 mm 0,0 km/h (0 Bft) S-SO 161 0 min 0,000 mm 0,0 UV-I 0 W/m 13,5 C 0,0 km/h (0 Bft)
05.08.2016 00:44 14,5 C 14,6 C 94 % 1011,6 hPa 0,0 mm 1,6 km/h (1 Bft) S 173 0 min 0,000 mm 0,0 UV-I 0 W/m 13,5 C 3,2 km/h (1 Bft)
05.08.2016 00:45 14,6 C 14,6 C 94 % 1011,6 hPa 0,2 mm 2,5 km/h (1 Bft) S-SW 205 0 min 0,000 mm 0,0 UV-I 0 W/m 13,6 C 3,2 km/h (1 Bft)
05.08.2016 00:46 14,6 C 14,6 C 94 % 1011,6 hPa 0,0 mm 1,7 km/h (1 Bft) S-SW 205 0 min 0,000 mm 0,0 UV-I 0 W/m 13,6 C 3,2 km/h (1 Bft)
05.08.2016 00:47 14,6 C 14,6 C 94 % 1011,6 hPa 0,2 mm 0,7 km/h (0 Bft) S-SW 205 0 min 0,000 mm 0,0 UV-I 0 W/m 13,6 C 1,6 km/h (1 Bft)
05.08.2016 00:48 14,6 C 14,6 C 94 % 1011,5 hPa 0,0 mm 0,2 km/h (0 Bft) S-SW 205 0 min 0,000 mm 0,0 UV-I 0 W/m 13,6 C 1,6 km/h (1 Bft)
05.08.2016 00:49 14,6 C 14,6 C 94 % 1011,5 hPa 0,2 mm 0,1 km/h (0 Bft) S-SW 205 0 min 0,000 mm 0,0 UV-I 0 W/m 13,6 C 1,6 km/h (1 Bft)
05.08.2016 00:50 14,6 C 14,6 C 94 % 1011,6 hPa 0,0 mm 0,7 km/h (0 Bft) S-SW 205 0 min 0,000 mm 0,0 UV-I 0 W/m 13,6 C 1,6 km/h (1 Bft)
05.08.2016 00:51 14,6 C 14,6 C 94 % 1011,6 hPa 0,0 mm 1,3 km/h (1 Bft) S-SW 205 0 min 0,000 mm 0,0 UV-I 0 W/m 13,6 C 3,2 km/h (1 Bft)
05.08.2016 00:52 14,6 C 14,6 C 94 % 1011,6 hPa 0,2 mm 1,4 km/h (1 Bft) S-SW 205 0 min 0,000 mm 0,0 UV-I 0 W/m 13,6 C 3,2 km/h (1 Bft)
05.08.2016 00:53 14,6 C 14,6 C 94 % 1011,6 hPa 0,0 mm 0,6 km/h (0 Bft) S-SW 205 0 min 0,000 mm 0,0 UV-I 0 W/m 13,6 C 1,6 km/h (1 Bft)
05.08.2016 00:54 14,5 C 14,6 C 94 % 1011,6 hPa 0,2 mm 2,1 km/h (1 Bft) S-SW 205 0 min 0,000 mm 0,0 UV-I 0 W/m 13,5 C 3,2 km/h (1 Bft)
05.08.2016 00:55 14,6 C 14,6 C 94 % 1011,8 hPa 0,0 mm 2,2 km/h (1 Bft) S 184 0 min 0,000 mm 0,0 UV-I 0 W/m 13,6 C 3,2 km/h (1 Bft)
05.08.2016 00:56 14,6 C 14,6 C 94 % 1011,8 hPa 0,2 mm 1,3 km/h (1 Bft) S 180 0 min 0,000 mm 0,0 UV-I 0 W/m 13,6 C 3,2 km/h (1 Bft)
05.08.2016 00:57 14,5 C 14,6 C 94 % 1011,8 hPa 0,0 mm 1,5 km/h (1 Bft) S 172 0 min 0,000 mm 0,0 UV-I 0 W/m 13,5 C 3,2 km/h (1 Bft)
05.08.2016 00:58 14,6 C 14,6 C 94 % 1011,9 hPa 0,0 mm 1,5 km/h (1 Bft) S 172 0 min 0,000 mm 0,0 UV-I 0 W/m 13,6 C 1,6 km/h (1 Bft)
05.08.2016 00:59 14,6 C 14,6 C 94 % 1011,9 hPa 0,0 mm 1,2 km/h (1 Bft) S 176 0 min 0,000 mm 0,0 UV-I 0 W/m 13,6 C 3,2 km/h (1 Bft)
05.08.2016 01:00 14,6 C 14,6 C 94 % 1011,9 hPa 0,2 mm 2,1 km/h (1 Bft) W 259 0 min 0,000 mm 0,0 UV-I 0 W/m 13,6 C 3,2 km/h (1 Bft)
05.08.2016 01:01 14,6 C 14,6 C 94 % 1012,0 hPa 0,0 mm 3,5 km/h (1 Bft) S-SW 211 0 min 0,000 mm 0,0 UV-I 0 W/m 13,6 C 4,8 km/h (1 Bft)
05.08.2016 01:02 14,6 C 14,6 C 94 % 1012,1 hPa 0,2 mm 3,5 km/h (1 Bft) S-SW 213 0 min 0,000 mm 0,0 UV-I 0 W/m 13,6 C 6,4 km/h (2 Bft)
05.08.2016 01:03 14,6 C 14,6 C 94 % 1012,1 hPa 0,0 mm 3,0 km/h (1 Bft) W-SW 247 0 min 0,000 mm 0,0 UV-I 0 W/m 13,6 C 4,8 km/h (1 Bft)
05.08.2016 01:04 14,6 C 14,6 C 94 % 1012,1 hPa 0,2 mm 3,4 km/h (1 Bft) SW 232 0 min 0,000 mm 0,0 UV-I 0 W/m 13,6 C 6,4 km/h (2 Bft)
05.08.2016 01:05 14,6 C 14,6 C 94 % 1012,2 hPa 0,2 mm 3,4 km/h (1 Bft) W-SW 247 0 min 0,000 mm 0,0 UV-I 0 W/m 13,6 C 6,4 km/h (2 Bft)
05.08.2016 01:06 14,6 C 14,6 C 94 % 1012,2 hPa 0,0 mm 3,4 km/h (1 Bft) S-SW 210 0 min 0,000 mm 0,0 UV-I 0 W/m 13,6 C 8,0 km/h (2 Bft)
05.08.2016 01:07 14,6 C 14,6 C 94 % 1012,2 hPa 0,2 mm 3,6 km/h (1 Bft) S 191 0 min 0,000 mm 0,0 UV-I 0 W/m 13,6 C 4,8 km/h (1 Bft)
05.08.2016 01:08 14,6 C 14,6 C 94 % 1012,2 hPa 0,2 mm 1,9 km/h (1 Bft) S-SW 195 0 min 0,000 mm 0,0 UV-I 0 W/m 13,6 C 4,8 km/h (1 Bft)
05.08.2016 01:09 14,6 C 14,6 C 94 % 1012,2 hPa 0,2 mm 4,0 km/h (1 Bft) SW 224 0 min 0,000 mm 0,0 UV-I 0 W/m 13,6 C 6,4 km/h (2 Bft)
05.08.2016 01:10 14,6 C 14,6 C 94 % 1012,2 hPa 0,0 mm 2,3 km/h (1 Bft) SW 223 0 min 0,000 mm 0,0 UV-I 0 W/m 13,6 C 3,2 km/h (1 Bft)
05.08.2016 01:11 14,7 C 14,7 C 94 % 1012,2 hPa 0,2 mm 3,2 km/h (1 Bft) W-SW 238 0 min 0,000 mm 0,0 UV-I 0 W/m 13,7 C 4,8 km/h (1 Bft)
05.08.2016 01:12 14,6 C 14,7 C 94 % 1012,2 hPa 0,2 mm 3,5 km/h (1 Bft) W 279 0 min 0,000 mm 0,0 UV-I 0 W/m 13,6 C 4,8 km/h (1 Bft)
05.08.2016 01:13 14,7 C 14,7 C 94 % 1012,2 hPa 0,0 mm 4,3 km/h (1 Bft) W-SW 255 0 min 0,000 mm 0,0 UV-I 0 W/m 13,7 C 4,8 km/h (1 Bft)
05.08.2016 01:14 14,7 C 14,7 C 94 % 1012,2 hPa 0,2 mm 5,1 km/h (1 Bft) W-SW 248 0 min 0,000 mm 0,0 UV-I 0 W/m 13,7 C 8,0 km/h (2 Bft)
05.08.2016 01:15 14,7 C 14,7 C 94 % 1012,2 hPa 0,2 mm 3,1 km/h (1 Bft) W-SW 248 0 min 0,000 mm 0,0 UV-I 0 W/m 13,7 C 4,8 km/h (1 Bft)
05.08.2016 01:16 14,7 C 14,7 C 94 % 1012,2 hPa 0,2 mm 5,4 km/h (1 Bft) W-SW 246 0 min 0,000 mm 0,0 UV-I 0 W/m 13,7 C 6,4 km/h (2 Bft)
05.08.2016 01:17 14,7 C 14,7 C 94 % 1012,2 hPa 0,2 mm 7,6 km/h (2 Bft) W-SW 242 0 min 0,000 mm 0,0 UV-I 0 W/m 13,7 C 12,9 km/h (3 Bft)
05.08.2016 01:18 14,7 C 14,7 C 94 % 1012,3 hPa 0,0 mm 7,3 km/h (2 Bft) W-SW 250 0 min 0,000 mm 0,0 UV-I 0 W/m 13,7 C 12,9 km/h (3 Bft)
05.08.2016 01:19 14,7 C 14,7 C 94 % 1012,3 hPa 0,2 mm 6,8 km/h (2 Bft) W-SW 246 0 min 0,000 mm 0,0 UV-I 0 W/m 13,7 C 12,9 km/h (3 Bft)
05.08.2016 01:20 14,7 C 14,7 C 94 % 1012,3 hPa 0,2 mm 6,2 km/h (2 Bft) SW 229 0 min 0,000 mm 0,0 UV-I 0 W/m 13,7 C 11,3 km/h (2 Bft)
05.08.2016 01:21 14,7 C 14,7 C 94 % 1012,3 hPa 0,2 mm 7,1 km/h (2 Bft) SW 236 0 min 0,000 mm 0,0 UV-I 0 W/m 13,7 C 12,9 km/h (3 Bft)
05.08.2016 01:22 14,7 C 14,7 C 94 % 1012,3 hPa 0,2 mm 4,2 km/h (1 Bft) SW 232 0 min 0,000 mm 0,0 UV-I 0 W/m 13,7 C 9,7 km/h (2 Bft)
05.08.2016 01:23 14,7 C 14,7 C 94 % 1012,4 hPa 0,4 mm 4,8 km/h (1 Bft) S 169 0 min 0,000 mm 0,0 UV-I 0 W/m 13,7 C 8,0 km/h (2 Bft)
05.08.2016 01:24 14,7 C 14,7 C 94 % 1012,4 hPa 0,2 mm 7,9 km/h (2 Bft) W-SW 252 0 min 0,000 mm 0,0 UV-I 0 W/m 13,7 C 25,7 km/h (4 Bft)
05.08.2016 01:25 14,6 C 14,7 C 93 % 1012,3 hPa 0,0 mm 16,1 km/h (3 Bft) W-NW 284 0 min 0,000 mm 0,0 UV-I 0 W/m 13,5 C 29,0 km/h (5 Bft)
05.08.2016 01:26 14,6 C 14,6 C 93 % 1012,4 hPa 0,2 mm 13,3 km/h (3 Bft) SW 236 0 min 0,000 mm 0,0 UV-I 0 W/m 13,5 C 25,7 km/h (4 Bft)
05.08.2016 01:27 14,4 C 14,6 C 92 % 1012,4 hPa 0,2 mm 19,0 km/h (3 Bft) W 278 0 min 0,000 mm 0,0 UV-I 0 W/m 13,1 C 27,4 km/h (4 Bft)
05.08.2016 01:28 14,3 C 14,4 C 92 % 1012,3 hPa 0,0 mm 10,1 km/h (2 Bft) W-NW 286 0 min 0,000 mm 0,0 UV-I 0 W/m 13,0 C 19,3 km/h (3 Bft)
05.08.2016 01:29 14,3 C 14,3 C 92 % 1012,3 hPa 0,2 mm 18,3 km/h (3 Bft) W 269 0 min 0,000 mm 0,0 UV-I 0 W/m 13,0 C 24,1 km/h (4 Bft)
05.08.2016 01:30 14,2 C 14,3 C 92 % 1012,3 hPa 0,0 mm 16,3 km/h (3 Bft) W-SW 251 0 min 0,000 mm 0,0 UV-I 0 W/m 12,9 C 24,1 km/h (4 Bft)
05.08.2016 01:31 14,2 C 14,2 C 92 % 1012,4 hPa 0,0 mm 17,6 km/h (3 Bft) W-SW 257 0 min 0,000 mm 0,0 UV-I 0 W/m 12,9 C 27,4 km/h (4 Bft)
05.08.2016 01:32 14,1 C 14,2 C 91 % 1012,4 hPa 0,0 mm 15,8 km/h (3 Bft) W-SW 258 0 min 0,000 mm 0,0 UV-I 0 W/m 12,7 C 20,9 km/h (4 Bft)
05.08.2016 01:33 14,0 C 14,1 C 91 % 1012,4 hPa 0,2 mm 12,1 km/h (2 Bft) W 271 0 min 0,000 mm 0,0 UV-I 0 W/m 12,6 C 20,9 km/h (4 Bft)
05.08.2016 01:34 13,9 C 14,0 C 91 % 1012,4 hPa 0,0 mm 13,8 km/h (3 Bft) W-SW 244 0 min 0,000 mm 0,0 UV-I 0 W/m 12,5 C 22,5 km/h (4 Bft)
05.08.2016 01:35 13,8 C 13,9 C 92 % 1012,5 hPa 0,0 mm 13,3 km/h (3 Bft) NW 314 0 min 0,000 mm 0,0 UV-I 0 W/m 12,5 C 20,9 km/h (4 Bft)
05.08.2016 01:36 13,8 C 13,8 C 92 % 1012,5 hPa 0,2 mm 12,7 km/h (3 Bft) W 275 0 min 0,000 mm 0,0 UV-I 0 W/m 12,5 C 22,5 km/h (4 Bft)
05.08.2016 01:37 13,8 C 13,8 C 92 % 1012,5 hPa 0,0 mm 15,5 km/h (3 Bft) W-SW 244 0 min 0,000 mm 0,0 UV-I 0 W/m 12,5 C 30,6 km/h (5 Bft)
05.08.2016 01:38 13,8 C 13,8 C 92 % 1012,5 hPa 0,0 mm 16,0 km/h (3 Bft) W-SW 241 0 min 0,000 mm 0,0 UV-I 0 W/m 12,5 C 25,7 km/h (4 Bft)
05.08.2016 01:39 13,7 C 13,8 C 92 % 1012,6 hPa 0,0 mm 10,5 km/h (2 Bft) W-NW 296 0 min 0,000 mm 0,0 UV-I 0 W/m 12,4 C 16,1 km/h (3 Bft)
05.08.2016 01:40 13,7 C 13,7 C 92 % 1012,7 hPa 0,2 mm 11,2 km/h (2 Bft) SW 226 0 min 0,000 mm 0,0 UV-I 0 W/m 12,4 C 22,5 km/h (4 Bft)
05.08.2016 01:41 13,6 C 13,7 C 92 % 1012,7 hPa 0,0 mm 16,3 km/h (3 Bft) SW 236 0 min 0,000 mm 0,0 UV-I 0 W/m 12,3 C 25,7 km/h (4 Bft)
05.08.2016 01:42 13,6 C 13,6 C 92 % 1012,7 hPa 0,0 mm 12,6 km/h (3 Bft) S-SW 198 0 min 0,000 mm 0,0 UV-I 0 W/m 12,3 C 22,5 km/h (4 Bft)
05.08.2016 01:43 13,6 C 13,6 C 92 % 1012,7 hPa 0,2 mm 10,8 km/h (2 Bft) W 269 0 min 0,000 mm 0,0 UV-I 0 W/m 12,3 C 20,9 km/h (4 Bft)
05.08.2016 01:44 13,6 C 13,6 C 92 % 1012,7 hPa 0,0 mm 12,3 km/h (3 Bft) W 265 0 min 0,000 mm 0,0 UV-I 0 W/m 12,3 C 19,3 km/h (3 Bft)
05.08.2016 01:45 13,5 C 13,6 C 92 % 1012,7 hPa 0,0 mm 16,4 km/h (3 Bft) W-SW 245 0 min 0,000 mm 0,0 UV-I 0 W/m 12,2 C 29,0 km/h (5 Bft)
05.08.2016 01:46 13,5 C 13,6 C 92 % 1012,7 hPa 0,0 mm 10,7 km/h (2 Bft) W-SW 238 0 min 0,000 mm 0,0 UV-I 0 W/m 12,2 C 22,5 km/h (4 Bft)
05.08.2016 01:47 13,5 C 13,5 C 92 % 1012,7 hPa 0,2 mm 7,3 km/h (2 Bft) W-SW 252 0 min 0,000 mm 0,0 UV-I 0 W/m 12,2 C 11,3 km/h (2 Bft)
05.08.2016 01:48 13,4 C 13,5 C 92 % 1012,8 hPa 0,0 mm 11,4 km/h (2 Bft) W-SW 238 0 min 0,000 mm 0,0 UV-I 0 W/m 12,1 C 20,9 km/h (4 Bft)
05.08.2016 01:49 13,4 C 13,5 C 92 % 1012,8 hPa 0,0 mm 11,3 km/h (2 Bft) W-SW 252 0 min 0,000 mm 0,0 UV-I 0 W/m 12,1 C 17,7 km/h (3 Bft)
05.08.2016 01:50 13,4 C 13,4 C 92 % 1012,8 hPa 0,2 mm 8,6 km/h (2 Bft) W 280 0 min 0,000 mm 0,0 UV-I 0 W/m 12,1 C 12,9 km/h (3 Bft)
05.08.2016 01:51 13,4 C 13,4 C 92 % 1012,8 hPa 0,0 mm 8,2 km/h (2 Bft) W 275 0 min 0,000 mm 0,0 UV-I 0 W/m 12,1 C 14,5 km/h (3 Bft)
05.08.2016 01:52 13,4 C 13,4 C 92 % 1012,8 hPa 0,0 mm 8,4 km/h (2 Bft) SW 229 0 min 0,000 mm 0,0 UV-I 0 W/m 12,1 C 16,1 km/h (3 Bft)
05.08.2016 01:53 13,4 C 13,4 C 92 % 1012,7 hPa 0,0 mm 6,9 km/h (2 Bft) S-SW 192 0 min 0,000 mm 0,0 UV-I 0 W/m 12,1 C 12,9 km/h (3 Bft)
05.08.2016 01:54 13,4 C 13,4 C 92 % 1012,8 hPa 0,0 mm 4,8 km/h (1 Bft) W-SW 258 0 min 0,000 mm 0,0 UV-I 0 W/m 12,1 C 9,7 km/h (2 Bft)
05.08.2016 01:55 13,4 C 13,4 C 93 % 1012,7 hPa 0,0 mm 13,9 km/h (3 Bft) W-SW 252 0 min 0,000 mm 0,0 UV-I 0 W/m 12,3 C 22,5 km/h (4 Bft)
05.08.2016 01:56 13,4 C 13,4 C 93 % 1012,8 hPa 0,0 mm 13,6 km/h (3 Bft) W 280 0 min 0,000 mm 0,0 UV-I 0 W/m 12,3 C 20,9 km/h (4 Bft)
05.08.2016 01:57 13,4 C 13,4 C 93 % 1012,7 hPa 0,0 mm 5,1 km/h (1 Bft) W-SW 249 0 min 0,000 mm 0,0 UV-I 0 W/m 12,3 C 14,5 km/h (3 Bft)
05.08.2016 01:58 13,4 C 13,4 C 93 % 1012,7 hPa 0,2 mm 9,4 km/h (2 Bft) W-SW 258 0 min 0,000 mm 0,0 UV-I 0 W/m 12,3 C 14,5 km/h (3 Bft)
05.08.2016 01:59 13,4 C 13,4 C 93 % 1012,7 hPa 0,0 mm 6,4 km/h (2 Bft) S 189 0 min 0,000 mm 0,0 UV-I 0 W/m 12,3 C 14,5 km/h (3 Bft)
05.08.2016 02:00 13,4 C 13,4 C 93 % 1012,7 hPa 0,0 mm 9,7 km/h (2 Bft) W 264 0 min 0,000 mm 0,0 UV-I 0 W/m 12,3 C 17,7 km/h (3 Bft)
05.08.2016 02:01 13,4 C 13,4 C 93 % 1012,6 hPa 0,0 mm 9,7 km/h (2 Bft) SW 225 0 min 0,000 mm 0,0 UV-I 0 W/m 12,3 C 16,1 km/h (3 Bft)
05.08.2016 02:02 13,4 C 13,4 C 93 % 1012,6 hPa 0,0 mm 5,2 km/h (1 Bft) W 270 0 min 0,000 mm 0,0 UV-I 0 W/m 12,3 C 6,4 km/h (2 Bft)
05.08.2016 02:03 13,3 C 13,4 C 93 % 1012,6 hPa 0,0 mm 3,9 km/h (1 Bft) W-SW 251 0 min 0,000 mm 0,0 UV-I 0 W/m 12,2 C 11,3 km/h (2 Bft)
05.08.2016 02:04 13,4 C 13,4 C 93 % 1012,6 hPa 0,2 mm 5,4 km/h (1 Bft) W-NW 300 0 min 0,000 mm 0,0 UV-I 0 W/m 12,3 C 11,3 km/h (2 Bft)
05.08.2016 02:05 13,4 C 13,4 C 93 % 1012,5 hPa 0,0 mm 8,0 km/h (2 Bft) W 267 0 min 0,000 mm 0,0 UV-I 0 W/m 12,3 C 14,5 km/h (3 Bft)
05.08.2016 02:06 13,3 C 13,4 C 93 % 1012,5 hPa 0,0 mm 5,0 km/h (1 Bft) SW 221 0 min 0,000 mm 0,0 UV-I 0 W/m 12,2 C 6,4 km/h (2 Bft)
05.08.2016 02:07 13,3 C 13,3 C 93 % 1012,4 hPa 0,2 mm 1,6 km/h (1 Bft) S 180 0 min 0,000 mm 0,0 UV-I 0 W/m 12,2 C 4,8 km/h (1 Bft)
05.08.2016 02:08 13,3 C 13,3 C 93 % 1012,4 hPa 0,0 mm 1,8 km/h (1 Bft) W-SW 257 0 min 0,000 mm 0,0 UV-I 0 W/m 12,2 C 3,2 km/h (1 Bft)
05.08.2016 02:09 13,3 C 13,3 C 93 % 1012,4 hPa 0,0 mm 6,1 km/h (2 Bft) W 268 0 min 0,000 mm 0,0 UV-I 0 W/m 12,2 C 16,1 km/h (3 Bft)
05.08.2016 02:10 13,3 C 13,3 C 93 % 1012,4 hPa 0,0 mm 6,9 km/h (2 Bft) W 277 0 min 0,000 mm 0,0 UV-I 0 W/m 12,2 C 11,3 km/h (2 Bft)
05.08.2016 02:11 13,3 C 13,3 C 93 % 1012,4 hPa 0,2 mm 4,4 km/h (1 Bft) W 280 0 min 0,000 mm 0,0 UV-I 0 W/m 12,2 C 8,0 km/h (2 Bft)
05.08.2016 02:12 13,3 C 13,3 C 93 % 1012,4 hPa 0,0 mm 5,1 km/h (1 Bft) S-SO 155 0 min 0,000 mm 0,0 UV-I 0 W/m 12,2 C 11,3 km/h (2 Bft)
05.08.2016 02:13 13,3 C 13,3 C 93 % 1012,3 hPa 0,0 mm 4,3 km/h (1 Bft) W 268 0 min 0,000 mm 0,0 UV-I 0 W/m 12,2 C 6,4 km/h (2 Bft)
05.08.2016 02:14 13,3 C 13,3 C 93 % 1012,3 hPa 0,0 mm 4,7 km/h (1 Bft) S-SW 205 0 min 0,000 mm 0,0 UV-I 0 W/m 12,2 C 6,4 km/h (2 Bft)
05.08.2016 02:15 13,3 C 13,3 C 93 % 1012,2 hPa 0,0 mm 7,8 km/h (2 Bft) W 259 0 min 0,000 mm 0,0 UV-I 0 W/m 12,2 C 12,9 km/h (3 Bft)
05.08.2016 02:16 13,2 C 13,3 C 93 % 1012,3 hPa 0,0 mm 5,0 km/h (1 Bft) SW 231 0 min 0,000 mm 0,0 UV-I 0 W/m 12,1 C 12,9 km/h (3 Bft)
05.08.2016 02:17 13,2 C 13,2 C 93 % 1012,3 hPa 0,2 mm 2,4 km/h (1 Bft) S 190 0 min 0,000 mm 0,0 UV-I 0 W/m 12,1 C 3,2 km/h (1 Bft)
05.08.2016 02:18 13,2 C 13,2 C 93 % 1012,3 hPa 0,0 mm 6,5 km/h (2 Bft) S 178 0 min 0,000 mm 0,0 UV-I 0 W/m 12,1 C 9,7 km/h (2 Bft)
05.08.2016 02:19 13,2 C 13,2 C 93 % 1012,3 hPa 0,0 mm 2,5 km/h (1 Bft) S-SW 198 0 min 0,000 mm 0,0 UV-I 0 W/m 12,1 C 4,8 km/h (1 Bft)
05.08.2016 02:20 13,2 C 13,2 C 93 % 1012,3 hPa 0,0 mm 2,1 km/h (1 Bft) S-SW 198 0 min 0,000 mm 0,0 UV-I 0 W/m 12,1 C 3,2 km/h (1 Bft)
05.08.2016 02:21 13,2 C 13,2 C 93 % 1012,3 hPa 0,0 mm 4,7 km/h (1 Bft) S 182 0 min 0,000 mm 0,0 UV-I 0 W/m 12,1 C 6,4 km/h (2 Bft)
05.08.2016 02:22 13,2 C 13,2 C 93 % 1012,3 hPa 0,0 mm 3,5 km/h (1 Bft) S-SW 194 0 min 0,000 mm 0,0 UV-I 0 W/m 12,1 C 6,4 km/h (2 Bft)
05.08.2016 02:23 13,2 C 13,2 C 93 % 1012,3 hPa 0,0 mm 1,8 km/h (1 Bft) S-SW 205 0 min 0,000 mm 0,0 UV-I 0 W/m 12,1 C 3,2 km/h (1 Bft)
05.08.2016 02:24 13,2 C 13,2 C 93 % 1012,3 hPa 0,0 mm 1,6 km/h (1 Bft) S-SW 192 0 min 0,000 mm 0,0 UV-I 0 W/m 12,1 C 4,8 km/h (1 Bft)
05.08.2016 02:25 13,2 C 13,2 C 93 % 1012,3 hPa 0,2 mm 3,5 km/h (1 Bft) S-SO 165 0 min 0,000 mm 0,0 UV-I 0 W/m 12,1 C 8,0 km/h (2 Bft)
05.08.2016 02:26 13,2 C 13,2 C 93 % 1012,2 hPa 0,0 mm 3,2 km/h (1 Bft) S-SW 211 0 min 0,000 mm 0,0 UV-I 0 W/m 12,1 C 4,8 km/h (1 Bft)
05.08.2016 02:27 13,2 C 13,2 C 93 % 1012,2 hPa 0,0 mm 3,4 km/h (1 Bft) S-SW 200 0 min 0,000 mm 0,0 UV-I 0 W/m 12,1 C 4,8 km/h (1 Bft)
05.08.2016 02:28 13,2 C 13,2 C 93 % 1012,2 hPa 0,0 mm 1,2 km/h (1 Bft) S-SW 204 0 min 0,000 mm 0,0 UV-I 0 W/m 12,1 C 3,2 km/h (1 Bft)
05.08.2016 02:29 13,2 C 13,2 C 93 % 1012,2 hPa 0,0 mm 2,0 km/h (1 Bft) S-SW 196 0 min 0,000 mm 0,0 UV-I 0 W/m 12,1 C 4,8 km/h (1 Bft)
05.08.2016 02:30 13,2 C 13,2 C 93 % 1012,2 hPa 0,0 mm 1,2 km/h (1 Bft) S-SW 205 0 min 0,000 mm 0,0 UV-I 0 W/m 12,1 C 3,2 km/h (1 Bft)
05.08.2016 02:31 13,2 C 13,2 C 93 % 1012,2 hPa 0,2 mm 1,3 km/h (1 Bft) W 281 0 min 0,000 mm 0,0 UV-I 0 W/m 12,1 C 3,2 km/h (1 Bft)
05.08.2016 02:32 13,2 C 13,2 C 93 % 1012,2 hPa 0,0 mm 1,0 km/h (0 Bft) W-SW 241 0 min 0,000 mm 0,0 UV-I 0 W/m 12,1 C 3,2 km/h (1 Bft)
05.08.2016 02:33 13,2 C 13,2 C 93 % 1012,2 hPa 0,0 mm 2,4 km/h (1 Bft) S 182 0 min 0,000 mm 0,0 UV-I 0 W/m 12,1 C 4,8 km/h (1 Bft)
05.08.2016 02:34 13,2 C 13,2 C 93 % 1012,2 hPa 0,0 mm 2,3 km/h (1 Bft) SW 229 0 min 0,000 mm 0,0 UV-I 0 W/m 12,1 C 4,8 km/h (1 Bft)
05.08.2016 02:35 13,2 C 13,2 C 93 % 1012,2 hPa 0,0 mm 1,1 km/h (1 Bft) SW 229 0 min 0,000 mm 0,0 UV-I 0 W/m 12,1 C 3,2 km/h (1 Bft)
05.08.2016 02:36 13,2 C 13,2 C 93 % 1012,2 hPa 0,2 mm 2,9 km/h (1 Bft) W-SW 240 0 min 0,000 mm 0,0 UV-I 0 W/m 12,1 C 3,2 km/h (1 Bft)
05.08.2016 02:37 13,2 C 13,2 C 93 % 1012,2 hPa 0,0 mm 3,0 km/h (1 Bft) W-SW 251 0 min 0,000 mm 0,0 UV-I 0 W/m 12,1 C 3,2 km/h (1 Bft)
05.08.2016 02:38 13,2 C 13,2 C 93 % 1012,2 hPa 0,0 mm 1,9 km/h (1 Bft) W-SW 251 0 min 0,000 mm 0,0 UV-I 0 W/m 12,1 C 3,2 km/h (1 Bft)
05.08.2016 02:39 13,2 C 13,2 C 93 % 1012,2 hPa 0,0 mm 1,2 km/h (1 Bft) W-SW 251 0 min 0,000 mm 0,0 UV-I 0 W/m 12,1 C 1,6 km/h (1 Bft)
05.08.2016 02:40 13,2 C 13,2 C 93 % 1012,2 hPa 0,0 mm 0,2 km/h (0 Bft) W-SW 251 0 min 0,000 mm 0,0 UV-I 0 W/m 12,1 C 1,6 km/h (1 Bft)
05.08.2016 02:41 13,2 C 13,2 C 94 % 1012,2 hPa 0,2 mm 1,6 km/h (1 Bft) W-SW 243 0 min 0,000 mm 0,0 UV-I 0 W/m 12,3 C 3,2 km/h (1 Bft)
05.08.2016 02:42 13,2 C 13,2 C 93 % 1012,2 hPa 0,0 mm 1,6 km/h (1 Bft) W-SW 243 0 min 0,000 mm 0,0 UV-I 0 W/m 12,1 C 3,2 km/h (1 Bft)
05.08.2016 02:43 13,2 C 13,2 C 93 % 1012,2 hPa 0,0 mm 2,2 km/h (1 Bft) W-SW 243 0 min 0,000 mm 0,0 UV-I 0 W/m 12,1 C 3,2 km/h (1 Bft)
05.08.2016 02:44 13,2 C 13,2 C 93 % 1012,2 hPa 0,0 mm 1,1 km/h (1 Bft) W-SW 243 0 min 0,000 mm 0,0 UV-I 0 W/m 12,1 C 1,6 km/h (1 Bft)
05.08.2016 02:45 13,1 C 13,2 C 94 % 1012,2 hPa 0,0 mm 0,0 km/h (0 Bft) W-SW 243 0 min 0,000 mm 0,0 UV-I 0 W/m 12,2 C 0,0 km/h (0 Bft)
05.08.2016 02:46 13,1 C 13,1 C 94 % 1012,2 hPa 0,2 mm 0,4 km/h (0 Bft) W-SW 243 0 min 0,000 mm 0,0 UV-I 0 W/m 12,2 C 1,6 km/h (1 Bft)
05.08.2016 02:47 13,1 C 13,1 C 94 % 1012,2 hPa 0,0 mm 0,2 km/h (0 Bft) W-SW 243 0 min 0,000 mm 0,0 UV-I 0 W/m 12,2 C 1,6 km/h (1 Bft)
05.08.2016 02:48 13,1 C 13,1 C 94 % 1012,2 hPa 0,0 mm 0,0 km/h (0 Bft) W-SW 243 0 min 0,000 mm 0,0 UV-I 0 W/m 12,2 C 0,0 km/h (0 Bft)
05.08.2016 02:49 13,1 C 13,1 C 94 % 1012,2 hPa 0,0 mm 0,0 km/h (0 Bft) W-SW 243 0 min 0,000 mm 0,0 UV-I 0 W/m 12,2 C 0,0 km/h (0 Bft)
05.08.2016 02:50 13,1 C 13,1 C 94 % 1012,2 hPa 0,0 mm 0,0 km/h (0 Bft) W-SW 243 0 min 0,000 mm 0,0 UV-I 0 W/m 12,2 C 0,0 km/h (0 Bft)
05.08.2016 02:51 13,1 C 13,1 C 94 % 1012,3 hPa 0,0 mm 0,0 km/h (0 Bft) W-SW 243 0 min 0,000 mm 0,0 UV-I 0 W/m 12,2 C 0,0 km/h (0 Bft)
05.08.2016 02:52 13,1 C 13,1 C 94 % 1012,3 hPa 0,2 mm 0,0 km/h (0 Bft) W-SW 243 0 min 0,000 mm 0,0 UV-I 0 W/m 12,2 C 0,0 km/h (0 Bft)
05.08.2016 02:53 13,0 C 13,1 C 94 % 1012,3 hPa 0,0 mm 0,2 km/h (0 Bft) W-SW 243 0 min 0,000 mm 0,0 UV-I 0 W/m 12,1 C 1,6 km/h (1 Bft)
05.08.2016 02:54 13,0 C 13,1 C 94 % 1012,3 hPa 0,0 mm 0,0 km/h (0 Bft) W-SW 243 0 min 0,000 mm 0,0 UV-I 0 W/m 12,1 C 0,0 km/h (0 Bft)
05.08.2016 02:55 13,0 C 13,1 C 94 % 1012,4 hPa 0,2 mm 0,0 km/h (0 Bft) W-SW 242 0 min 0,000 mm 0,0 UV-I 0 W/m 12,1 C 0,0 km/h (0 Bft)
05.08.2016 02:56 13,1 C 13,1 C 94 % 1012,3 hPa 0,0 mm 0,0 km/h (0 Bft) W-SW 242 0 min 0,000 mm 0,0 UV-I 0 W/m 12,2 C 0,0 km/h (0 Bft)
05.08.2016 02:57 13,0 C 13,1 C 95 % 1012,3 hPa 0,0 mm 0,4 km/h (0 Bft) W-SW 242 0 min 0,000 mm 0,0 UV-I 0 W/m 12,2 C 1,6 km/h (1 Bft)
05.08.2016 02:58 13,0 C 13,1 C 95 % 1012,3 hPa 0,0 mm 1,1 km/h (1 Bft) W-SW 242 0 min 0,000 mm 0,0 UV-I 0 W/m 12,2 C 1,6 km/h (1 Bft)
05.08.2016 02:59 13,0 C 13,0 C 95 % 1012,3 hPa 0,2 mm 2,0 km/h (1 Bft) W-SW 242 0 min 0,000 mm 0,0 UV-I 0 W/m 12,2 C 3,2 km/h (1 Bft)
05.08.2016 03:00 12,9 C 13,0 C 94 % 1012,3 hPa 0,0 mm 2,2 km/h (1 Bft) S 188 0 min 0,000 mm 0,0 UV-I 0 W/m 12,0 C 3,2 km/h (1 Bft)
05.08.2016 03:01 13,0 C 13,0 C 95 % 1012,2 hPa 0,0 mm 2,3 km/h (1 Bft) S 188 0 min 0,000 mm 0,0 UV-I 0 W/m 12,2 C 3,2 km/h (1 Bft)
05.08.2016 03:02 13,1 C 13,1 C 95 % 1012,2 hPa 0,0 mm 3,2 km/h (1 Bft) S-SO 162 0 min 0,000 mm 0,0 UV-I 0 W/m 12,3 C 3,2 km/h (1 Bft)
05.08.2016 03:03 13,0 C 13,1 C 95 % 1012,2 hPa 0,2 mm 2,4 km/h (1 Bft) S-SO 161 0 min 0,000 mm 0,0 UV-I 0 W/m 12,2 C 3,2 km/h (1 Bft)
05.08.2016 03:04 13,0 C 13,0 C 95 % 1012,2 hPa 0,0 mm 1,2 km/h (1 Bft) S-SO 161 0 min 0,000 mm 0,0 UV-I 0 W/m 12,2 C 1,6 km/h (1 Bft)
05.08.2016 03:05 13,0 C 13,0 C 95 % 1012,2 hPa 0,0 mm 1,3 km/h (1 Bft) S-SO 161 0 min 0,000 mm 0,0 UV-I 0 W/m 12,2 C 1,6 km/h (1 Bft)
05.08.2016 03:06 13,0 C 13,0 C 95 % 1012,2 hPa 0,0 mm 1,1 km/h (1 Bft) S-SO 161 0 min 0,000 mm 0,0 UV-I 0 W/m 12,2 C 1,6 km/h (1 Bft)
05.08.2016 03:07 12,9 C 13,0 C 95 % 1012,2 hPa 0,2 mm 0,9 km/h (0 Bft) S-SO 161 0 min 0,000 mm 0,0 UV-I 0 W/m 12,1 C 1,6 km/h (1 Bft)
05.08.2016 03:08 13,0 C 13,0 C 95 % 1012,2 hPa 0,0 mm 0,3 km/h (0 Bft) S-SO 161 0 min 0,000 mm 0,0 UV-I 0 W/m 12,2 C 1,6 km/h (1 Bft)
05.08.2016 03:09 13,0 C 13,0 C 95 % 1012,2 hPa 0,0 mm 0,0 km/h (0 Bft) S-SO 161 0 min 0,000 mm 0,0 UV-I 0 W/m 12,2 C 0,0 km/h (0 Bft)
05.08.2016 03:10 12,9 C 13,0 C 95 % 1012,2 hPa 0,0 mm 0,0 km/h (0 Bft) S-SO 161 0 min 0,000 mm 0,0 UV-I 0 W/m 12,1 C 0,0 km/h (0 Bft)
05.08.2016 03:11 12,9 C 13,0 C 95 % 1012,2 hPa 0,2 mm 0,0 km/h (0 Bft) S-SO 161 0 min 0,000 mm 0,0 UV-I 0 W/m 12,1 C 0,0 km/h (0 Bft)
05.08.2016 03:12 12,9 C 13,0 C 95 % 1012,2 hPa 0,0 mm 0,0 km/h (0 Bft) S-SO 161 0 min 0,000 mm 0,0 UV-I 0 W/m 12,1 C 0,0 km/h (0 Bft)
05.08.2016 03:13 12,9 C 13,0 C 95 % 1012,1 hPa 0,0 mm 0,0 km/h (0 Bft) S-SO 161 0 min 0,000 mm 0,0 UV-I 0 W/m 12,1 C 0,0 km/h (0 Bft)
05.08.2016 03:14 12,9 C 12,9 C 95 % 1012,1 hPa 0,0 mm 0,0 km/h (0 Bft) S-SO 161 0 min 0,000 mm 0,0 UV-I 0 W/m 12,1 C 0,0 km/h (0 Bft)
05.08.2016 03:15 12,9 C 12,9 C 95 % 1012,1 hPa 0,2 mm 0,0 km/h (0 Bft) S-SO 161 0 min 0,000 mm 0,0 UV-I 0 W/m 12,1 C 0,0 km/h (0 Bft)
05.08.2016 03:16 13,0 C 13,0 C 95 % 1012,1 hPa 0,0 mm 0,0 km/h (0 Bft) S-SO 161 0 min 0,000 mm 0,0 UV-I 0 W/m 12,2 C 0,0 km/h (0 Bft)
05.08.2016 03:17 12,9 C 13,0 C 95 % 1012,0 hPa 0,0 mm 0,0 km/h (0 Bft) S-SO 161 0 min 0,000 mm 0,0 UV-I 0 W/m 12,1 C 0,0 km/h (0 Bft)
05.08.2016 03:18 12,9 C 13,0 C 95 % 1012,0 hPa 0,2 mm 0,7 km/h (0 Bft) S-SO 161 0 min 0,000 mm 0,0 UV-I 0 W/m 12,1 C 1,6 km/h (1 Bft)
05.08.2016 03:19 13,0 C 13,0 C 95 % 1011,9 hPa 0,0 mm 0,8 km/h (0 Bft) S-SO 161 0 min 0,000 mm 0,0 UV-I 0 W/m 12,2 C 1,6 km/h (1 Bft)
05.08.2016 03:20 12,9 C 13,0 C 95 % 1011,9 hPa 0,0 mm 0,6 km/h (0 Bft) S-SO 161 0 min 0,000 mm 0,0 UV-I 0 W/m 12,1 C 1,6 km/h (1 Bft)
05.08.2016 03:21 12,9 C 13,0 C 95 % 1011,9 hPa 0,2 mm 0,4 km/h (0 Bft) S-SO 161 0 min 0,000 mm 0,0 UV-I 0 W/m 12,1 C 1,6 km/h (1 Bft)
05.08.2016 03:22 12,9 C 13,0 C 95 % 1011,9 hPa 0,0 mm 0,1 km/h (0 Bft) S-SO 161 0 min 0,000 mm 0,0 UV-I 0 W/m 12,1 C 1,6 km/h (1 Bft)
05.08.2016 03:23 12,9 C 12,9 C 95 % 1011,9 hPa 0,0 mm 0,8 km/h (0 Bft) S-SO 161 0 min 0,000 mm 0,0 UV-I 0 W/m 12,1 C 1,6 km/h (1 Bft)
05.08.2016 03:24 13,0 C 13,0 C 95 % 1011,9 hPa 0,2 mm 0,7 km/h (0 Bft) S-SO 161 0 min 0,000 mm 0,0 UV-I 0 W/m 12,2 C 1,6 km/h (1 Bft)
05.08.2016 03:25 13,0 C 13,0 C 95 % 1011,9 hPa 0,0 mm 0,6 km/h (0 Bft) S-SO 161 0 min 0,000 mm 0,0 UV-I 0 W/m 12,2 C 1,6 km/h (1 Bft)
05.08.2016 03:26 13,0 C 13,0 C 95 % 1011,9 hPa 0,0 mm 0,7 km/h (0 Bft) S-SO 161 0 min 0,000 mm 0,0 UV-I 0 W/m 12,2 C 1,6 km/h (1 Bft)
05.08.2016 03:27 13,0 C 13,0 C 95 % 1011,9 hPa 0,0 mm 0,7 km/h (0 Bft) S-SO 161 0 min 0,000 mm 0,0 UV-I 0 W/m 12,2 C 1,6 km/h (1 Bft)
05.08.2016 03:28 13,0 C 13,0 C 95 % 1011,8 hPa 0,2 mm 1,2 km/h (1 Bft) S-SO 161 0 min 0,000 mm 0,0 UV-I 0 W/m 12,2 C 1,6 km/h (1 Bft)
05.08.2016 03:29 13,0 C 13,0 C 95 % 1011,8 hPa 0,0 mm 1,2 km/h (1 Bft) S-SO 162 0 min 0,000 mm 0,0 UV-I 0 W/m 12,2 C 1,6 km/h (1 Bft)
05.08.2016 03:30 13,0 C 13,0 C 95 % 1011,8 hPa 0,0 mm 0,0 km/h (0 Bft) S-SO 162 0 min 0,000 mm 0,0 UV-I 0 W/m 12,2 C 0,0 km/h (0 Bft)
05.08.2016 03:31 13,0 C 13,0 C 95 % 1011,8 hPa 0,0 mm 0,0 km/h (0 Bft) S-SO 162 0 min 0,000 mm 0,0 UV-I 0 W/m 12,2 C 0,0 km/h (0 Bft)
05.08.2016 03:32 12,9 C 13,0 C 95 % 1011,8 hPa 0,2 mm 0,1 km/h (0 Bft) S-SO 162 0 min 0,000 mm 0,0 UV-I 0 W/m 12,1 C 1,6 km/h (1 Bft)
05.08.2016 03:33 13,0 C 13,0 C 95 % 1011,7 hPa 0,0 mm 1,1 km/h (1 Bft) S-SO 162 0 min 0,000 mm 0,0 UV-I 0 W/m 12,2 C 1,6 km/h (1 Bft)
05.08.2016 03:34 13,0 C 13,1 C 95 % 1011,7 hPa 0,0 mm 0,5 km/h (0 Bft) S-SO 162 0 min 0,000 mm 0,0 UV-I 0 W/m 12,2 C 1,6 km/h (1 Bft)
05.08.2016 03:35 13,0 C 13,0 C 95 % 1011,7 hPa 0,0 mm 0,9 km/h (0 Bft) S-SO 162 0 min 0,000 mm 0,0 UV-I 0 W/m 12,2 C 1,6 km/h (1 Bft)
05.08.2016 03:36 13,0 C 13,1 C 95 % 1011,7 hPa 0,0 mm 0,9 km/h (0 Bft) S-SO 162 0 min 0,000 mm 0,0 UV-I 0 W/m 12,2 C 1,6 km/h (1 Bft)
05.08.2016 03:37 13,0 C 13,1 C 95 % 1011,7 hPa 0,0 mm 0,6 km/h (0 Bft) S-SO 162 0 min 0,000 mm 0,0 UV-I 0 W/m 12,2 C 1,6 km/h (1 Bft)
05.08.2016 03:38 13,0 C 13,0 C 95 % 1011,6 hPa 0,2 mm 0,2 km/h (0 Bft) S-SO 162 0 min 0,000 mm 0,0 UV-I 0 W/m 12,2 C 1,6 km/h (1 Bft)
05.08.2016 03:39 13,0 C 13,0 C 95 % 1011,7 hPa 0,0 mm 0,9 km/h (0 Bft) S-SO 162 0 min 0,000 mm 0,0 UV-I 0 W/m 12,2 C 1,6 km/h (1 Bft)
05.08.2016 03:40 13,0 C 13,1 C 95 % 1011,7 hPa 0,0 mm 1,3 km/h (1 Bft) S-SO 162 0 min 0,000 mm 0,0 UV-I 0 W/m 12,2 C 3,2 km/h (1 Bft)
05.08.2016 03:41 13,0 C 13,1 C 95 % 1011,7 hPa 0,0 mm 1,9 km/h (1 Bft) S-SO 161 0 min 0,000 mm 0,0 UV-I 0 W/m 12,2 C 3,2 km/h (1 Bft)
05.08.2016 03:42 13,1 C 13,1 C 95 % 1011,7 hPa 0,0 mm 2,8 km/h (1 Bft) S-SO 162 0 min 0,000 mm 0,0 UV-I 0 W/m 12,3 C 3,2 km/h (1 Bft)
05.08.2016 03:43 13,0 C 13,1 C 95 % 1011,7 hPa 0,0 mm 1,5 km/h (1 Bft) S-SO 161 0 min 0,000 mm 0,0 UV-I 0 W/m 12,2 C 3,2 km/h (1 Bft)
05.08.2016 03:44 13,0 C 13,1 C 95 % 1011,7 hPa 0,2 mm 1,3 km/h (1 Bft) S-SO 162 0 min 0,000 mm 0,0 UV-I 0 W/m 12,2 C 1,6 km/h (1 Bft)
05.08.2016 03:45 13,1 C 13,1 C 95 % 1011,7 hPa 0,0 mm 1,0 km/h (0 Bft) S-SO 162 0 min 0,000 mm 0,0 UV-I 0 W/m 12,3 C 1,6 km/h (1 Bft)
05.08.2016 03:46 13,0 C 13,1 C 95 % 1011,7 hPa 0,0 mm 1,2 km/h (1 Bft) S-SO 162 0 min 0,000 mm 0,0 UV-I 0 W/m 12,2 C 1,6 km/h (1 Bft)
05.08.2016 03:47 13,0 C 13,1 C 95 % 1011,7 hPa 0,0 mm 2,5 km/h (1 Bft) S-SO 162 0 min 0,000 mm 0,0 UV-I 0 W/m 12,2 C 3,2 km/h (1 Bft)
05.08.2016 03:48 13,1 C 13,1 C 95 % 1011,8 hPa 0,0 mm 1,3 km/h (1 Bft) S-SO 162 0 min 0,000 mm 0,0 UV-I 0 W/m 12,3 C 3,2 km/h (1 Bft)
05.08.2016 03:49 13,1 C 13,1 C 95 % 1011,6 hPa 0,0 mm 0,7 km/h (0 Bft) S-SO 162 0 min 0,000 mm 0,0 UV-I 0 W/m 12,3 C 1,6 km/h (1 Bft)
05.08.2016 03:50 13,1 C 13,1 C 95 % 1011,6 hPa 0,2 mm 0,9 km/h (0 Bft) S-SO 162 0 min 0,000 mm 0,0 UV-I 0 W/m 12,3 C 1,6 km/h (1 Bft)
05.08.2016 03:51 13,0 C 13,1 C 95 % 1011,6 hPa 0,0 mm 0,5 km/h (0 Bft) S-SO 162 0 min 0,000 mm 0,0 UV-I 0 W/m 12,2 C 1,6 km/h (1 Bft)
05.08.2016 03:52 13,1 C 13,1 C 95 % 1011,6 hPa 0,0 mm 0,1 km/h (0 Bft) S-SO 162 0 min 0,000 mm 0,0 UV-I 0 W/m 12,3 C 1,6 km/h (1 Bft)
05.08.2016 03:53 13,0 C 13,1 C 95 % 1011,6 hPa 0,2 mm 0,3 km/h (0 Bft) S-SO 162 0 min 0,000 mm 0,0 UV-I 0 W/m 12,2 C 1,6 km/h (1 Bft)
05.08.2016 03:54 13,1 C 13,1 C 95 % 1011,6 hPa 0,0 mm 0,0 km/h (0 Bft) S-SO 162 0 min 0,000 mm 0,0 UV-I 0 W/m 12,3 C 0,0 km/h (0 Bft)
05.08.2016 03:55 13,1 C 13,1 C 95 % 1011,6 hPa 0,0 mm 0,9 km/h (0 Bft) S-SO 159 0 min 0,000 mm 0,0 UV-I 0 W/m 12,3 C 1,6 km/h (1 Bft)
05.08.2016 03:56 13,0 C 13,1 C 95 % 1011,6 hPa 0,0 mm 1,6 km/h (1 Bft) S-SO 159 0 min 0,000 mm 0,0 UV-I 0 W/m 12,2 C 3,2 km/h (1 Bft)
05.08.2016 03:57 13,0 C 13,1 C 95 % 1011,6 hPa 0,2 mm 0,3 km/h (0 Bft) S-SO 159 0 min 0,000 mm 0,0 UV-I 0 W/m 12,2 C 1,6 km/h (1 Bft)
05.08.2016 03:58 13,1 C 13,1 C 95 % 1011,6 hPa 0,0 mm 0,0 km/h (0 Bft) S-SO 159 0 min 0,000 mm 0,0 UV-I 0 W/m 12,3 C 0,0 km/h (0 Bft)
05.08.2016 03:59 13,0 C 13,1 C 95 % 1011,4 hPa 0,0 mm 0,1 km/h (0 Bft) S-SO 159 0 min 0,000 mm 0,0 UV-I 0 W/m 12,2 C 1,6 km/h (1 Bft)
05.08.2016 04:00 13,0 C 13,1 C 95 % 1011,4 hPa 0,0 mm 0,0 km/h (0 Bft) S-SO 159 0 min 0,000 mm 0,0 UV-I 0 W/m 12,2 C 0,0 km/h (0 Bft)
05.08.2016 04:01 13,0 C 13,1 C 95 % 1011,4 hPa 0,0 mm 0,0 km/h (0 Bft) S-SO 159 0 min 0,000 mm 0,0 UV-I 0 W/m 12,2 C 0,0 km/h (0 Bft)
05.08.2016 04:02 13,0 C 13,1 C 95 % 1011,4 hPa 0,2 mm 0,2 km/h (0 Bft) S-SO 159 0 min 0,000 mm 0,0 UV-I 0 W/m 12,2 C 1,6 km/h (1 Bft)
05.08.2016 04:03 12,9 C 13,0 C 95 % 1011,4 hPa 0,0 mm 0,3 km/h (0 Bft) S-SO 159 0 min 0,000 mm 0,0 UV-I 0 W/m 12,1 C 1,6 km/h (1 Bft)
05.08.2016 04:04 13,0 C 13,0 C 95 % 1011,3 hPa 0,0 mm 0,0 km/h (0 Bft) S-SO 159 0 min 0,000 mm 0,0 UV-I 0 W/m 12,2 C 0,0 km/h (0 Bft)
05.08.2016 04:05 13,0 C 13,0 C 95 % 1011,3 hPa 0,0 mm 0,0 km/h (0 Bft) S-SO 159 0 min 0,000 mm 0,0 UV-I 0 W/m 12,2 C 0,0 km/h (0 Bft)
05.08.2016 04:06 13,0 C 13,0 C 95 % 1011,3 hPa 0,0 mm 0,0 km/h (0 Bft) S-SO 159 0 min 0,000 mm 0,0 UV-I 0 W/m 12,2 C 0,0 km/h (0 Bft)
05.08.2016 04:07 13,0 C 13,0 C 95 % 1011,3 hPa 0,0 mm 0,0 km/h (0 Bft) S-SO 159 0 min 0,000 mm 0,0 UV-I 0 W/m 12,2 C 0,0 km/h (0 Bft)
05.08.2016 04:08 12,9 C 13,0 C 95 % 1011,3 hPa 0,2 mm 0,0 km/h (0 Bft) S-SO 159 0 min 0,000 mm 0,0 UV-I 0 W/m 12,1 C 0,0 km/h (0 Bft)
05.08.2016 04:09 12,9 C 13,0 C 95 % 1011,2 hPa 0,0 mm 0,0 km/h (0 Bft) S-SO 159 0 min 0,000 mm 0,0 UV-I 0 W/m 12,1 C 0,0 km/h (0 Bft)
05.08.2016 04:10 12,9 C 12,9 C 95 % 1011,2 hPa 0,0 mm 0,0 km/h (0 Bft) S-SO 159 0 min 0,000 mm 0,0 UV-I 0 W/m 12,1 C 0,0 km/h (0 Bft)
05.08.2016 04:11 12,9 C 12,9 C 95 % 1011,2 hPa 0,0 mm 0,0 km/h (0 Bft) S-SO 159 0 min 0,000 mm 0,0 UV-I 0 W/m 12,1 C 0,0 km/h (0 Bft)
05.08.2016 04:12 13,0 C 13,0 C 95 % 1011,1 hPa 0,0 mm 0,0 km/h (0 Bft) O-SO 123 0 min 0,000 mm 0,0 UV-I 0 W/m 12,2 C 0,0 km/h (0 Bft)
05.08.2016 04:13 13,0 C 13,0 C 95 % 1011,2 hPa 0,0 mm 0,0 km/h (0 Bft) O-SO 123 0 min 0,000 mm 0,0 UV-I 0 W/m 12,2 C 0,0 km/h (0 Bft)
05.08.2016 04:14 12,9 C 13,0 C 95 % 1011,1 hPa 0,0 mm 0,0 km/h (0 Bft) O-SO 123 0 min 0,000 mm 0,0 UV-I 0 W/m 12,1 C 0,0 km/h (0 Bft)
05.08.2016 04:15 12,9 C 12,9 C 95 % 1011,1 hPa 0,0 mm 0,0 km/h (0 Bft) O-SO 123 0 min 0,000 mm 0,0 UV-I 0 W/m 12,1 C 0,0 km/h (0 Bft)
05.08.2016 04:16 12,9 C 12,9 C 95 % 1011,1 hPa 0,0 mm 0,0 km/h (0 Bft) O-SO 123 0 min 0,000 mm 0,0 UV-I 0 W/m 12,1 C 0,0 km/h (0 Bft)
05.08.2016 04:17 12,9 C 12,9 C 95 % 1011,1 hPa 0,0 mm 0,0 km/h (0 Bft) O-SO 123 0 min 0,000 mm 0,0 UV-I 0 W/m 12,1 C 0,0 km/h (0 Bft)
05.08.2016 04:18 12,9 C 12,9 C 95 % 1011,1 hPa 0,0 mm 0,0 km/h (0 Bft) O-SO 123 0 min 0,000 mm 0,0 UV-I 0 W/m 12,1 C 0,0 km/h (0 Bft)
05.08.2016 04:19 12,9 C 12,9 C 95 % 1011,1 hPa 0,0 mm 0,0 km/h (0 Bft) O-SO 123 0 min 0,000 mm 0,0 UV-I 0 W/m 12,1 C 0,0 km/h (0 Bft)
05.08.2016 04:20 12,9 C 12,9 C 96 % 1011,1 hPa 0,0 mm 0,0 km/h (0 Bft) O-SO 123 0 min 0,000 mm 0,0 UV-I 0 W/m 12,3 C 0,0 km/h (0 Bft)
05.08.2016 04:21 12,9 C 12,9 C 96 % 1011,2 hPa 0,0 mm 0,0 km/h (0 Bft) O-SO 123 0 min 0,000 mm 0,0 UV-I 0 W/m 12,3 C 0,0 km/h (0 Bft)
05.08.2016 04:22 13,0 C 13,0 C 96 % 1011,2 hPa 0,0 mm 0,0 km/h (0 Bft) O-SO 123 0 min 0,000 mm 0,0 UV-I 0 W/m 12,4 C 0,0 km/h (0 Bft)
05.08.2016 04:23 13,0 C 13,0 C 96 % 1011,2 hPa 0,0 mm 0,0 km/h (0 Bft) O-SO 123 0 min 0,000 mm 0,0 UV-I 0 W/m 12,4 C 0,0 km/h (0 Bft)
05.08.2016 04:24 13,0 C 13,0 C 96 % 1011,1 hPa 0,2 mm 0,0 km/h (0 Bft) O-SO 123 0 min 0,000 mm 0,0 UV-I 0 W/m 12,4 C 0,0 km/h (0 Bft)
05.08.2016 04:25 13,1 C 13,1 C 96 % 1011,1 hPa 0,0 mm 0,0 km/h (0 Bft) O-SO 123 0 min 0,000 mm 0,0 UV-I 0 W/m 12,5 C 0,0 km/h (0 Bft)
05.08.2016 04:26 13,1 C 13,1 C 96 % 1011,1 hPa 0,0 mm 0,0 km/h (0 Bft) O-SO 123 0 min 0,000 mm 0,0 UV-I 0 W/m 12,5 C 0,0 km/h (0 Bft)
05.08.2016 04:27 13,1 C 13,1 C 96 % 1011,1 hPa 0,0 mm 0,0 km/h (0 Bft) O-SO 123 0 min 0,000 mm 0,0 UV-I 0 W/m 12,5 C 0,0 km/h (0 Bft)
05.08.2016 04:28 13,1 C 13,1 C 96 % 1011,1 hPa 0,0 mm 0,0 km/h (0 Bft) O-SO 123 0 min 0,000 mm 0,0 UV-I 0 W/m 12,5 C 0,0 km/h (0 Bft)
05.08.2016 04:29 13,1 C 13,1 C 95 % 1011,1 hPa 0,0 mm 0,0 km/h (0 Bft) O-SO 123 0 min 0,000 mm 0,0 UV-I 0 W/m 12,3 C 0,0 km/h (0 Bft)
05.08.2016 04:30 13,1 C 13,1 C 95 % 1011,1 hPa 0,0 mm 0,0 km/h (0 Bft) O-SO 123 0 min 0,000 mm 0,0 UV-I 0 W/m 12,3 C 0,0 km/h (0 Bft)
05.08.2016 04:31 13,1 C 13,1 C 95 % 1010,9 hPa 0,2 mm 0,0 km/h (0 Bft) O-SO 123 0 min 0,000 mm 0,0 UV-I 0 W/m 12,3 C 0,0 km/h (0 Bft)
05.08.2016 04:32 13,1 C 13,1 C 95 % 1010,9 hPa 0,0 mm 0,0 km/h (0 Bft) O-SO 123 0 min 0,000 mm 0,0 UV-I 0 W/m 12,3 C 0,0 km/h (0 Bft)
05.08.2016 04:33 13,1 C 13,1 C 95 % 1010,9 hPa 0,0 mm 0,0 km/h (0 Bft) O-SO 123 0 min 0,000 mm 0,0 UV-I 0 W/m 12,3 C 0,0 km/h (0 Bft)
05.08.2016 04:34 13,1 C 13,1 C 95 % 1010,9 hPa 0,2 mm 0,7 km/h (0 Bft) O-SO 123 0 min 0,000 mm 0,0 UV-I 0 W/m 12,3 C 3,2 km/h (1 Bft)
05.08.2016 04:35 13,1 C 13,1 C 95 % 1010,8 hPa 0,0 mm 3,9 km/h (1 Bft) O-NO 71 0 min 0,000 mm 0,0 UV-I 0 W/m 12,3 C 4,8 km/h (1 Bft)
05.08.2016 04:36 13,1 C 13,1 C 95 % 1010,8 hPa 0,2 mm 2,2 km/h (1 Bft) O-NO 71 0 min 0,000 mm 0,0 UV-I 0 W/m 12,3 C 3,2 km/h (1 Bft)
05.08.2016 04:37 13,1 C 13,1 C 95 % 1010,8 hPa 0,0 mm 0,8 km/h (0 Bft) O-NO 71 0 min 0,000 mm 0,0 UV-I 0 W/m 12,3 C 1,6 km/h (1 Bft)
05.08.2016 04:38 13,1 C 13,1 C 95 % 1010,8 hPa 0,2 mm 0,0 km/h (0 Bft) O-NO 71 0 min 0,000 mm 0,0 UV-I 0 W/m 12,3 C 0,0 km/h (0 Bft)
05.08.2016 04:39 13,1 C 13,1 C 95 % 1010,8 hPa 0,0 mm 1,0 km/h (0 Bft) O-NO 71 0 min 0,000 mm 0,0 UV-I 0 W/m 12,3 C 1,6 km/h (1 Bft)
05.08.2016 04:40 13,1 C 13,1 C 95 % 1010,8 hPa 0,0 mm 2,3 km/h (1 Bft) O-NO 71 0 min 0,000 mm 0,0 UV-I 0 W/m 12,3 C 3,2 km/h (1 Bft)
05.08.2016 04:41 13,0 C 13,1 C 95 % 1010,6 hPa 0,2 mm 3,4 km/h (1 Bft) O-NO 71 0 min 0,000 mm 0,0 UV-I 0 W/m 12,2 C 4,8 km/h (1 Bft)
05.08.2016 04:42 13,0 C 13,1 C 95 % 1010,6 hPa 0,0 mm 4,2 km/h (1 Bft) O-NO 71 0 min 0,000 mm 0,0 UV-I 0 W/m 12,2 C 6,4 km/h (2 Bft)
05.08.2016 04:43 13,0 C 13,0 C 95 % 1010,6 hPa 0,0 mm 4,1 km/h (1 Bft) NO 46 0 min 0,000 mm 0,0 UV-I 0 W/m 12,2 C 6,4 km/h (2 Bft)
05.08.2016 04:44 13,0 C 13,0 C 95 % 1010,6 hPa 0,2 mm 5,3 km/h (1 Bft) NO 47 0 min 0,000 mm 0,0 UV-I 0 W/m 12,2 C 6,4 km/h (2 Bft)
05.08.2016 04:45 13,0 C 13,1 C 95 % 1010,6 hPa 0,0 mm 3,6 km/h (1 Bft) NO 53 0 min 0,000 mm 0,0 UV-I 0 W/m 12,2 C 4,8 km/h (1 Bft)
05.08.2016 04:46 13,1 C 13,1 C 95 % 1010,6 hPa 0,0 mm 3,1 km/h (1 Bft) NO 55 0 min 0,000 mm 0,0 UV-I 0 W/m 12,3 C 4,8 km/h (1 Bft)
05.08.2016 04:47 13,0 C 13,1 C 95 % 1010,6 hPa 0,0 mm 1,7 km/h (1 Bft) NO 55 0 min 0,000 mm 0,0 UV-I 0 W/m 12,2 C 3,2 km/h (1 Bft)
05.08.2016 04:48 13,0 C 13,0 C 95 % 1010,6 hPa 0,2 mm 0,4 km/h (0 Bft) NO 55 0 min 0,000 mm 0,0 UV-I 0 W/m 12,2 C 1,6 km/h (1 Bft)
05.08.2016 04:49 13,0 C 13,0 C 95 % 1010,6 hPa 0,0 mm 0,1 km/h (0 Bft) NO 55 0 min 0,000 mm 0,0 UV-I 0 W/m 12,2 C 1,6 km/h (1 Bft)
05.08.2016 04:50 13,0 C 13,0 C 95 % 1010,6 hPa 0,0 mm 0,2 km/h (0 Bft) NO 55 0 min 0,000 mm 0,0 UV-I 0 W/m 12,2 C 1,6 km/h (1 Bft)
05.08.2016 04:51 12,9 C 13,0 C 95 % 1010,6 hPa 0,2 mm 0,1 km/h (0 Bft) NO 55 0 min 0,000 mm 0,0 UV-I 0 W/m 12,1 C 1,6 km/h (1 Bft)
05.08.2016 04:52 12,9 C 13,0 C 95 % 1010,6 hPa 0,0 mm 0,3 km/h (0 Bft) NO 55 0 min 0,000 mm 0,0 UV-I 0 W/m 12,1 C 1,6 km/h (1 Bft)
05.08.2016 04:53 12,9 C 12,9 C 95 % 1010,6 hPa 0,2 mm 1,0 km/h (0 Bft) NO 55 0 min 0,000 mm 0,0 UV-I 0 W/m 12,1 C 3,2 km/h (1 Bft)
05.08.2016 04:54 12,9 C 12,9 C 95 % 1010,6 hPa 0,0 mm 1,7 km/h (1 Bft) NO 55 0 min 0,000 mm 0,0 UV-I 0 W/m 12,1 C 3,2 km/h (1 Bft)
05.08.2016 04:55 12,9 C 12,9 C 95 % 1010,6 hPa 0,0 mm 0,3 km/h (0 Bft) NO 55 0 min 0,000 mm 0,0 UV-I 0 W/m 12,1 C 1,6 km/h (1 Bft)
05.08.2016 04:56 12,9 C 12,9 C 95 % 1010,6 hPa 0,0 mm 0,2 km/h (0 Bft) NO 55 0 min 0,000 mm 0,0 UV-I 0 W/m 12,1 C 1,6 km/h (1 Bft)
05.08.2016 04:57 12,9 C 12,9 C 95 % 1010,6 hPa 0,2 mm 1,3 km/h (1 Bft) NO 55 0 min 0,000 mm 0,0 UV-I 0 W/m 12,1 C 1,6 km/h (1 Bft)
05.08.2016 04:58 12,9 C 12,9 C 95 % 1010,6 hPa 0,0 mm 0,8 km/h (0 Bft) NO 55 0 min 0,000 mm 0,0 UV-I 0 W/m 12,1 C 1,6 km/h (1 Bft)
05.08.2016 04:59 12,9 C 12,9 C 95 % 1010,6 hPa 0,2 mm 0,9 km/h (0 Bft) NO 55 0 min 0,000 mm 0,0 UV-I 0 W/m 12,1 C 1,6 km/h (1 Bft)
05.08.2016 05:00 12,9 C 12,9 C 95 % 1010,5 hPa 0,0 mm 1,0 km/h (0 Bft) NO 55 0 min 0,000 mm 0,0 UV-I 0 W/m 12,1 C 3,2 km/h (1 Bft)
05.08.2016 05:01 12,9 C 12,9 C 95 % 1010,5 hPa 0,0 mm 0,8 km/h (0 Bft) NO 55 0 min 0,000 mm 0,0 UV-I 0 W/m 12,1 C 1,6 km/h (1 Bft)
05.08.2016 05:02 12,9 C 12,9 C 96 % 1010,6 hPa 0,2 mm 1,5 km/h (1 Bft) NO 55 0 min 0,000 mm 0,0 UV-I 0 W/m 12,3 C 3,2 km/h (1 Bft)
05.08.2016 05:03 12,9 C 12,9 C 96 % 1010,5 hPa 0,0 mm 2,3 km/h (1 Bft) NO 55 0 min 0,000 mm 0,0 UV-I 0 W/m 12,3 C 3,2 km/h (1 Bft)
05.08.2016 05:04 12,9 C 12,9 C 96 % 1010,5 hPa 0,0 mm 0,7 km/h (0 Bft) NO 55 0 min 0,000 mm 0,0 UV-I 0 W/m 12,3 C 1,6 km/h (1 Bft)
05.08.2016 05:05 12,9 C 12,9 C 96 % 1010,6 hPa 0,2 mm 2,7 km/h (1 Bft) NO 55 0 min 0,000 mm 0,0 UV-I 0 W/m 12,3 C 3,2 km/h (1 Bft)
05.08.2016 05:06 12,9 C 12,9 C 96 % 1010,5 hPa 0,0 mm 2,1 km/h (1 Bft) NO 55 0 min 0,000 mm 0,0 UV-I 0 W/m 12,3 C 3,2 km/h (1 Bft)
05.08.2016 05:07 12,9 C 12,9 C 96 % 1010,5 hPa 0,2 mm 3,4 km/h (1 Bft) O 85 0 min 0,000 mm 0,0 UV-I 0 W/m 12,3 C 4,8 km/h (1 Bft)
05.08.2016 05:08 12,9 C 12,9 C 96 % 1010,5 hPa 0,0 mm 2,7 km/h (1 Bft) O 85 0 min 0,000 mm 0,0 UV-I 0 W/m 12,3 C 4,8 km/h (1 Bft)
05.08.2016 05:09 12,9 C 12,9 C 96 % 1010,5 hPa 0,2 mm 3,5 km/h (1 Bft) O 82 0 min 0,000 mm 0,0 UV-I 0 W/m 12,3 C 4,8 km/h (1 Bft)
05.08.2016 05:10 12,9 C 12,9 C 95 % 1010,5 hPa 0,0 mm 2,6 km/h (1 Bft) O 82 0 min 0,000 mm 0,0 UV-I 0 W/m 12,1 C 3,2 km/h (1 Bft)
05.08.2016 05:11 13,0 C 13,0 C 95 % 1010,5 hPa 0,0 mm 1,1 km/h (1 Bft) O 82 0 min 0,000 mm 0,0 UV-I 0 W/m 12,2 C 1,6 km/h (1 Bft)
05.08.2016 05:12 13,0 C 13,1 C 95 % 1010,5 hPa 0,2 mm 0,7 km/h (0 Bft) O 82 0 min 0,000 mm 0,0 UV-I 0 W/m 12,2 C 1,6 km/h (1 Bft)
05.08.2016 05:13 13,1 C 13,1 C 95 % 1010,5 hPa 0,0 mm 0,3 km/h (0 Bft) O 82 0 min 0,000 mm 0,0 UV-I 0 W/m 12,3 C 1,6 km/h (1 Bft)
05.08.2016 05:14 13,1 C 13,1 C 95 % 1010,5 hPa 0,0 mm 0,0 km/h (0 Bft) O 82 0 min 0,000 mm 0,0 UV-I 0 W/m 12,3 C 0,0 km/h (0 Bft)
05.08.2016 05:15 13,1 C 13,1 C 95 % 1010,6 hPa 0,2 mm 0,7 km/h (0 Bft) O 82 0 min 0,000 mm 0,0 UV-I 0 W/m 12,3 C 1,6 km/h (1 Bft)
05.08.2016 05:16 13,1 C 13,1 C 95 % 1010,5 hPa 0,0 mm 0,7 km/h (0 Bft) O 82 0 min 0,000 mm 0,0 UV-I 0 W/m 12,3 C 1,6 km/h (1 Bft)
05.08.2016 05:17 13,1 C 13,1 C 95 % 1010,6 hPa 0,2 mm 0,0 km/h (0 Bft) O 82 0 min 0,000 mm 0,0 UV-I 0 W/m 12,3 C 0,0 km/h (0 Bft)
05.08.2016 05:18 13,1 C 13,1 C 95 % 1010,6 hPa 0,0 mm 0,1 km/h (0 Bft) O 82 0 min 0,000 mm 0,0 UV-I 0 W/m 12,3 C 1,6 km/h (1 Bft)
05.08.2016 05:19 13,1 C 13,1 C 95 % 1010,6 hPa 0,0 mm 0,0 km/h (0 Bft) O 82 0 min 0,000 mm 0,0 UV-I 0 W/m 12,3 C 0,0 km/h (0 Bft)
05.08.2016 05:20 13,1 C 13,1 C 95 % 1010,6 hPa 0,2 mm 0,0 km/h (0 Bft) O 82 0 min 0,000 mm 0,0 UV-I 0 W/m 12,3 C 0,0 km/h (0 Bft)
05.08.2016 05:21 13,1 C 13,1 C 95 % 1010,6 hPa 0,0 mm 0,0 km/h (0 Bft) O 82 0 min 0,000 mm 0,0 UV-I 0 W/m 12,3 C 0,0 km/h (0 Bft)
05.08.2016 05:22 13,1 C 13,1 C 95 % 1010,6 hPa 0,0 mm 0,0 km/h (0 Bft) O 82 0 min 0,000 mm 0,0 UV-I 0 W/m 12,3 C 0,0 km/h (0 Bft)
05.08.2016 05:23 13,1 C 13,1 C 95 % 1010,7 hPa 0,2 mm 0,0 km/h (0 Bft) O 82 0 min 0,000 mm 0,0 UV-I 0 W/m 12,3 C 0,0 km/h (0 Bft)
05.08.2016 05:24 13,0 C 13,1 C 95 % 1010,7 hPa 0,0 mm 0,0 km/h (0 Bft) O 82 0 min 0,000 mm 0,0 UV-I 0 W/m 12,2 C 0,0 km/h (0 Bft)
05.08.2016 05:25 13,0 C 13,1 C 95 % 1010,6 hPa 0,0 mm 0,0 km/h (0 Bft) O 82 0 min 0,000 mm 0,0 UV-I 0 W/m 12,2 C 0,0 km/h (0 Bft)
05.08.2016 05:26 13,0 C 13,0 C 95 % 1010,7 hPa 0,2 mm 0,1 km/h (0 Bft) O 82 0 min 0,000 mm 0,0 UV-I 0 W/m 12,2 C 1,6 km/h (1 Bft)
05.08.2016 05:27 13,1 C 13,1 C 95 % 1010,8 hPa 0,0 mm 0,4 km/h (0 Bft) O 82 0 min 0,000 mm 0,0 UV-I 0 W/m 12,3 C 1,6 km/h (1 Bft)
05.08.2016 05:28 13,0 C 13,1 C 95 % 1010,8 hPa 0,0 mm 0,1 km/h (0 Bft) O 82 0 min 0,000 mm 0,0 UV-I 0 W/m 12,2 C 1,6 km/h (1 Bft)
05.08.2016 05:29 13,0 C 13,0 C 95 % 1010,8 hPa 0,0 mm 0,3 km/h (0 Bft) N 360 0 min 0,000 mm 0,0 UV-I 0 W/m 12,2 C 1,6 km/h (1 Bft)
05.08.2016 05:30 13,1 C 13,1 C 95 % 1010,8 hPa 0,2 mm 1,5 km/h (1 Bft) N 360 0 min 0,000 mm 0,0 UV-I 0 W/m 12,3 C 3,2 km/h (1 Bft)
05.08.2016 05:31 13,1 C 13,1 C 95 % 1010,8 hPa 0,0 mm 1,1 km/h (1 Bft) N 360 0 min 0,000 mm 0,0 UV-I 0 W/m 12,3 C 3,2 km/h (1 Bft)
05.08.2016 05:32 13,1 C 13,1 C 95 % 1010,8 hPa 0,0 mm 2,1 km/h (1 Bft) N 360 0 min 0,000 mm 0,0 UV-I 0 W/m 12,3 C 4,8 km/h (1 Bft)
05.08.2016 05:33 13,1 C 13,1 C 95 % 1010,9 hPa 0,0 mm 1,1 km/h (1 Bft) N 360 0 min 0,000 mm 0,0 UV-I 0 W/m 12,3 C 1,6 km/h (1 Bft)
05.08.2016 05:34 13,1 C 13,1 C 95 % 1010,9 hPa 0,2 mm 0,9 km/h (0 Bft) N 360 0 min 0,000 mm 0,0 UV-I 0 W/m 12,3 C 1,6 km/h (1 Bft)
05.08.2016 05:35 13,1 C 13,1 C 95 % 1010,9 hPa 0,0 mm 0,7 km/h (0 Bft) N 360 0 min 0,000 mm 0,0 UV-I 0 W/m 12,3 C 1,6 km/h (1 Bft)
05.08.2016 05:36 13,1 C 13,1 C 95 % 1010,9 hPa 0,0 mm 1,1 km/h (1 Bft) N 360 0 min 0,000 mm 0,0 UV-I 0 W/m 12,3 C 1,6 km/h (1 Bft)
05.08.2016 05:37 13,1 C 13,1 C 95 % 1010,9 hPa 0,0 mm 0,1 km/h (0 Bft) N 360 0 min 0,000 mm 0,0 UV-I 0 W/m 12,3 C 1,6 km/h (1 Bft)
05.08.2016 05:38 13,0 C 13,1 C 95 % 1010,9 hPa 0,2 mm 0,0 km/h (0 Bft) N 360 0 min 0,000 mm 0,0 UV-I 0 W/m 12,2 C 0,0 km/h (0 Bft)
05.08.2016 05:39 13,1 C 13,1 C 95 % 1010,9 hPa 0,0 mm 0,0 km/h (0 Bft) N 360 0 min 0,000 mm 0,0 UV-I 0 W/m 12,3 C 0,0 km/h (0 Bft)
05.08.2016 05:40 13,0 C 13,1 C 95 % 1010,9 hPa 0,0 mm 0,0 km/h (0 Bft) N 360 0 min 0,000 mm 0,0 UV-I 0 W/m 12,2 C 0,0 km/h (0 Bft)
05.08.2016 05:41 12,9 C 13,0 C 95 % 1010,9 hPa 0,0 mm 0,0 km/h (0 Bft) N 360 0 min 0,000 mm 0,0 UV-I 0 W/m 12,1 C 0,0 km/h (0 Bft)
05.08.2016 05:42 12,9 C 13,0 C 95 % 1010,9 hPa 0,2 mm 0,0 km/h (0 Bft) N 360 0 min 0,000 mm 0,0 UV-I 0 W/m 12,1 C 0,0 km/h (0 Bft)
05.08.2016 05:43 12,9 C 12,9 C 95 % 1010,9 hPa 0,0 mm 0,0 km/h (0 Bft) N 360 0 min 0,000 mm 0,0 UV-I 0 W/m 12,1 C 0,0 km/h (0 Bft)
05.08.2016 05:44 12,9 C 12,9 C 95 % 1011,0 hPa 0,0 mm 0,0 km/h (0 Bft) N 360 0 min 0,000 mm 0,0 UV-I 0 W/m 12,1 C 0,0 km/h (0 Bft)
05.08.2016 05:45 12,9 C 12,9 C 95 % 1011,1 hPa 0,2 mm 0,0 km/h (0 Bft) N 360 0 min 0,000 mm 0,0 UV-I 0 W/m 12,1 C 0,0 km/h (0 Bft)
05.08.2016 05:46 12,9 C 12,9 C 95 % 1011,0 hPa 0,0 mm 0,0 km/h (0 Bft) N 360 0 min 0,000 mm 0,0 UV-I 0 W/m 12,1 C 0,0 km/h (0 Bft)
05.08.2016 05:47 12,9 C 12,9 C 95 % 1011,0 hPa 0,0 mm 0,0 km/h (0 Bft) N 360 0 min 0,000 mm 0,0 UV-I 0 W/m 12,1 C 0,0 km/h (0 Bft)
05.08.2016 05:48 12,9 C 12,9 C 96 % 1011,1 hPa 0,0 mm 0,0 km/h (0 Bft) N 360 0 min 0,000 mm 0,0 UV-I 0 W/m 12,3 C 0,0 km/h (0 Bft)
05.08.2016 05:49 12,9 C 12,9 C 96 % 1011,1 hPa 0,0 mm 0,0 km/h (0 Bft) N 360 0 min 0,000 mm 0,0 UV-I 0 W/m 12,3 C 0,0 km/h (0 Bft)
05.08.2016 05:50 12,9 C 12,9 C 96 % 1011,1 hPa 0,2 mm 0,0 km/h (0 Bft) N 360 0 min 0,000 mm 0,0 UV-I 0 W/m 12,3 C 0,0 km/h (0 Bft)
05.08.2016 05:51 12,9 C 12,9 C 96 % 1011,1 hPa 0,0 mm 0,0 km/h (0 Bft) N 360 0 min 0,000 mm 0,0 UV-I 0 W/m 12,3 C 0,0 km/h (0 Bft)
05.08.2016 05:52 12,9 C 12,9 C 96 % 1011,2 hPa 0,0 mm 0,0 km/h (0 Bft) N 360 0 min 0,000 mm 0,0 UV-I 0 W/m 12,3 C 0,0 km/h (0 Bft)
05.08.2016 05:53 12,9 C 12,9 C 96 % 1011,1 hPa 0,0 mm 1,2 km/h (1 Bft) N 360 0 min 0,000 mm 0,0 UV-I 0 W/m 12,3 C 3,2 km/h (1 Bft)
05.08.2016 05:54 12,9 C 12,9 C 96 % 1011,1 hPa 0,0 mm 1,7 km/h (1 Bft) N 360 0 min 0,000 mm 0,0 UV-I 0 W/m 12,3 C 3,2 km/h (1 Bft)
05.08.2016 05:55 12,9 C 12,9 C 96 % 1011,1 hPa 0,0 mm 0,8 km/h (0 Bft) N 360 0 min 0,000 mm 0,0 UV-I 0 W/m 12,3 C 1,6 km/h (1 Bft)
05.08.2016 05:56 12,9 C 12,9 C 96 % 1011,1 hPa 0,2 mm 1,3 km/h (1 Bft) N 360 0 min 0,000 mm 0,0 UV-I 0 W/m 12,3 C 3,2 km/h (1 Bft)
05.08.2016 05:57 13,0 C 13,0 C 96 % 1011,1 hPa 0,0 mm 1,3 km/h (1 Bft) N 360 0 min 0,000 mm 0,0 UV-I 0 W/m 12,4 C 3,2 km/h (1 Bft)
05.08.2016 05:58 13,0 C 13,0 C 96 % 1011,2 hPa 0,0 mm 1,5 km/h (1 Bft) N 360 0 min 0,000 mm 0,0 UV-I 0 W/m 12,4 C 3,2 km/h (1 Bft)
05.08.2016 05:59 12,9 C 13,0 C 96 % 1011,1 hPa 0,0 mm 1,9 km/h (1 Bft) N 360 0 min 0,000 mm 0,0 UV-I 0 W/m 12,3 C 3,2 km/h (1 Bft)
05.08.2016 06:00 13,0 C 13,0 C 96 % 1011,2 hPa 0,2 mm 1,3 km/h (1 Bft) N 360 0 min 0,000 mm 0,0 UV-I 0 W/m 12,4 C 1,6 km/h (1 Bft)
05.08.2016 06:01 12,9 C 13,0 C 96 % 1011,2 hPa 0,0 mm 0,8 km/h (0 Bft) N 360 0 min 0,000 mm 0,0 UV-I 0 W/m 12,3 C 1,6 km/h (1 Bft)
05.08.2016 06:02 12,9 C 13,0 C 96 % 1011,2 hPa 0,0 mm 2,2 km/h (1 Bft) N 360 0 min 0,000 mm 0,0 UV-I 0 W/m 12,3 C 3,2 km/h (1 Bft)
05.08.2016 06:03 12,9 C 13,0 C 96 % 1011,2 hPa 0,0 mm 2,3 km/h (1 Bft) W 279 0 min 0,000 mm 0,0 UV-I 0 W/m 12,3 C 3,2 km/h (1 Bft)
05.08.2016 06:04 13,0 C 13,0 C 96 % 1011,2 hPa 0,2 mm 1,8 km/h (1 Bft) W 274 0 min 0,000 mm 0,0 UV-I 0 W/m 12,4 C 3,2 km/h (1 Bft)
05.08.2016 06:05 13,0 C 13,0 C 96 % 1011,2 hPa 0,0 mm 2,1 km/h (1 Bft) W 274 0 min 0,000 mm 0,0 UV-I 0 W/m 12,4 C 3,2 km/h (1 Bft)
05.08.2016 06:06 13,0 C 13,0 C 96 % 1011,2 hPa 0,0 mm 2,5 km/h (1 Bft) W 274 0 min 0,000 mm 0,0 UV-I 0 W/m 12,4 C 3,2 km/h (1 Bft)
05.08.2016 06:07 12,9 C 13,0 C 96 % 1011,2 hPa 0,2 mm 1,3 km/h (1 Bft) W 274 0 min 0,000 mm 0,0 UV-I 0 W/m 12,3 C 3,2 km/h (1 Bft)
05.08.2016 06:08 12,9 C 13,0 C 96 % 1011,2 hPa 0,0 mm 0,1 km/h (0 Bft) W 274 0 min 0,000 mm 0,0 UV-I 0 W/m 12,3 C 1,6 km/h (1 Bft)
05.08.2016 06:09 12,9 C 12,9 C 96 % 1011,1 hPa 0,0 mm 0,0 km/h (0 Bft) W 274 0 min 0,000 mm 0,0 UV-I 0 W/m 12,3 C 0,0 km/h (0 Bft)
05.08.2016 06:10 12,9 C 12,9 C 96 % 1011,2 hPa 0,2 mm 0,1 km/h (0 Bft) W 274 0 min 0,000 mm 0,0 UV-I 0 W/m 12,3 C 1,6 km/h (1 Bft)
05.08.2016 06:11 12,9 C 12,9 C 96 % 1011,2 hPa 0,0 mm 2,1 km/h (1 Bft) W 274 0 min 0,000 mm 0,0 UV-I 0 W/m 12,3 C 3,2 km/h (1 Bft)
05.08.2016 06:12 12,9 C 12,9 C 96 % 1011,2 hPa 0,2 mm 2,1 km/h (1 Bft) W 274 0 min 0,000 mm 0,0 UV-I 0 W/m 12,3 C 3,2 km/h (1 Bft)
05.08.2016 06:13 12,9 C 13,0 C 96 % 1011,2 hPa 0,0 mm 1,4 km/h (1 Bft) W 274 0 min 0,000 mm 0,0 UV-I 0 W/m 12,3 C 3,2 km/h (1 Bft)
05.08.2016 06:14 12,9 C 12,9 C 96 % 1011,1 hPa 0,2 mm 0,1 km/h (0 Bft) W 274 0 min 0,000 mm 0,0 UV-I 0 W/m 12,3 C 1,6 km/h (1 Bft)
05.08.2016 06:15 12,9 C 12,9 C 96 % 1011,1 hPa 0,0 mm 0,0 km/h (0 Bft) W 274 0 min 0,000 mm 0,0 UV-I 0 W/m 12,3 C 0,0 km/h (0 Bft)
05.08.2016 06:16 12,9 C 12,9 C 96 % 1011,1 hPa 0,0 mm 0,0 km/h (0 Bft) W 274 0 min 0,000 mm 0,0 UV-I 0 W/m 12,3 C 0,0 km/h (0 Bft)
05.08.2016 06:17 12,9 C 12,9 C 96 % 1011,2 hPa 0,2 mm 0,0 km/h (0 Bft) W 274 0 min 0,000 mm 0,0 UV-I 0 W/m 12,3 C 0,0 km/h (0 Bft)
05.08.2016 06:18 12,9 C 12,9 C 96 % 1011,1 hPa 0,0 mm 0,0 km/h (0 Bft) W 274 0 min 0,000 mm 0,0 UV-I 0 W/m 12,3 C 0,0 km/h (0 Bft)
05.08.2016 06:19 12,9 C 12,9 C 96 % 1011,2 hPa 0,2 mm 0,0 km/h (0 Bft) W 274 0 min 0,000 mm 0,0 UV-I 0 W/m 12,3 C 0,0 km/h (0 Bft)
05.08.2016 06:20 12,9 C 12,9 C 96 % 1011,2 hPa 0,0 mm 0,0 km/h (0 Bft) W 274 0 min 0,000 mm 0,0 UV-I 0 W/m 12,3 C 0,0 km/h (0 Bft)
05.08.2016 06:21 12,9 C 12,9 C 96 % 1011,2 hPa 0,2 mm 0,0 km/h (0 Bft) W 274 0 min 0,000 mm 0,0 UV-I 0 W/m 12,3 C 0,0 km/h (0 Bft)
05.08.2016 06:22 12,9 C 12,9 C 96 % 1011,2 hPa 0,0 mm 0,0 km/h (0 Bft) W 274 0 min 0,000 mm 0,0 UV-I 0 W/m 12,3 C 0,0 km/h (0 Bft)
05.08.2016 06:23 12,9 C 12,9 C 96 % 1011,2 hPa 0,0 mm 0,0 km/h (0 Bft) W 274 0 min 0,000 mm 0,0 UV-I 0 W/m 12,3 C 0,0 km/h (0 Bft)
05.08.2016 06:24 12,9 C 12,9 C 96 % 1011,2 hPa 0,2 mm 0,0 km/h (0 Bft) W 274 0 min 0,000 mm 0,0 UV-I 0 W/m 12,3 C 0,0 km/h (0 Bft)
05.08.2016 06:25 12,9 C 12,9 C 96 % 1011,2 hPa 0,0 mm 0,0 km/h (0 Bft) W 274 0 min 0,000 mm 0,0 UV-I 0 W/m 12,3 C 0,0 km/h (0 Bft)
05.08.2016 06:26 12,9 C 12,9 C 96 % 1011,2 hPa 0,0 mm 0,0 km/h (0 Bft) W 274 0 min 0,000 mm 0,0 UV-I 0 W/m 12,3 C 0,0 km/h (0 Bft)
05.08.2016 06:27 12,9 C 12,9 C 96 % 1011,2 hPa 0,2 mm 0,0 km/h (0 Bft) W 274 0 min 0,000 mm 0,0 UV-I 0 W/m 12,3 C 0,0 km/h (0 Bft)
05.08.2016 06:28 12,9 C 12,9 C 96 % 1011,2 hPa 0,0 mm 0,0 km/h (0 Bft) W 274 0 min 0,000 mm 0,0 UV-I 0 W/m 12,3 C 0,0 km/h (0 Bft)
05.08.2016 06:29 12,9 C 12,9 C 96 % 1011,2 hPa 0,0 mm 0,9 km/h (0 Bft) W 274 0 min 0,000 mm 0,0 UV-I 0 W/m 12,3 C 1,6 km/h (1 Bft)
05.08.2016 06:30 12,9 C 12,9 C 96 % 1011,2 hPa 0,0 mm 1,3 km/h (1 Bft) W 274 0 min 0,000 mm 0,0 UV-I 0 W/m 12,3 C 1,6 km/h (1 Bft)
05.08.2016 06:31 12,9 C 12,9 C 96 % 1011,2 hPa 0,2 mm 0,0 km/h (0 Bft) W 274 0 min 0,000 mm 0,0 UV-I 0 W/m 12,3 C 0,0 km/h (0 Bft)
05.08.2016 06:32 12,9 C 12,9 C 96 % 1011,2 hPa 0,0 mm 0,0 km/h (0 Bft) W 274 0 min 0,000 mm 0,0 UV-I 0 W/m 12,3 C 0,0 km/h (0 Bft)
05.08.2016 06:33 12,9 C 12,9 C 96 % 1011,2 hPa 0,0 mm 0,0 km/h (0 Bft) W 274 0 min 0,000 mm 0,0 UV-I 0 W/m 12,3 C 0,0 km/h (0 Bft)
05.08.2016 06:34 12,9 C 12,9 C 96 % 1011,2 hPa 0,2 mm 0,0 km/h (0 Bft) W 274 0 min 0,000 mm 0,0 UV-I 0 W/m 12,3 C 0,0 km/h (0 Bft)
05.08.2016 06:35 12,9 C 12,9 C 96 % 1011,2 hPa 0,0 mm 0,0 km/h (0 Bft) W 274 0 min 0,000 mm 0,0 UV-I 0 W/m 12,3 C 0,0 km/h (0 Bft)
05.08.2016 06:36 12,9 C 12,9 C 96 % 1011,2 hPa 0,0 mm 0,0 km/h (0 Bft) W 274 0 min 0,000 mm 0,0 UV-I 0 W/m 12,3 C 0,0 km/h (0 Bft)
05.08.2016 06:37 12,9 C 12,9 C 96 % 1011,2 hPa 0,0 mm 0,0 km/h (0 Bft) W 274 0 min 0,000 mm 0,0 UV-I 0 W/m 12,3 C 0,0 km/h (0 Bft)
05.08.2016 06:38 12,9 C 12,9 C 96 % 1011,2 hPa 0,2 mm 0,0 km/h (0 Bft) W 274 0 min 0,000 mm 0,0 UV-I 0 W/m 12,3 C 0,0 km/h (0 Bft)
05.08.2016 06:39 12,9 C 12,9 C 96 % 1011,2 hPa 0,0 mm 0,0 km/h (0 Bft) W 274 0 min 0,000 mm 0,0 UV-I 0 W/m 12,3 C 0,0 km/h (0 Bft)
05.08.2016 06:40 12,9 C 12,9 C 96 % 1011,3 hPa 0,0 mm 0,0 km/h (0 Bft) W 274 0 min 0,000 mm 0,0 UV-I 0 W/m 12,3 C 0,0 km/h (0 Bft)
05.08.2016 06:41 12,9 C 12,9 C 96 % 1011,3 hPa 0,0 mm 0,0 km/h (0 Bft) W 274 0 min 0,000 mm 0,0 UV-I 0 W/m 12,3 C 0,0 km/h (0 Bft)
05.08.2016 06:42 12,9 C 12,9 C 96 % 1011,3 hPa 0,2 mm 0,0 km/h (0 Bft) W 274 0 min 0,000 mm 0,0 UV-I 0 W/m 12,3 C 0,0 km/h (0 Bft)
05.08.2016 06:43 12,9 C 12,9 C 96 % 1011,3 hPa 0,0 mm 0,0 km/h (0 Bft) W 274 0 min 0,000 mm 0,0 UV-I 0 W/m 12,3 C 0,0 km/h (0 Bft)
05.08.2016 06:44 12,9 C 12,9 C 96 % 1011,3 hPa 0,0 mm 0,0 km/h (0 Bft) W 274 0 min 0,000 mm 0,0 UV-I 0 W/m 12,3 C 0,0 km/h (0 Bft)
05.08.2016 06:45 12,9 C 12,9 C 96 % 1011,3 hPa 0,2 mm 0,0 km/h (0 Bft) W 274 0 min 0,000 mm 0,0 UV-I 0 W/m 12,3 C 0,0 km/h (0 Bft)
05.08.2016 06:46 12,9 C 12,9 C 96 % 1011,3 hPa 0,0 mm 0,0 km/h (0 Bft) W 274 0 min 0,000 mm 0,0 UV-I 0 W/m 12,3 C 0,0 km/h (0 Bft)
05.08.2016 06:47 12,9 C 12,9 C 96 % 1011,3 hPa 0,0 mm 0,0 km/h (0 Bft) W 274 0 min 0,000 mm 0,0 UV-I 0 W/m 12,3 C 0,0 km/h (0 Bft)
05.08.2016 06:48 12,9 C 12,9 C 96 % 1011,3 hPa 0,2 mm 0,0 km/h (0 Bft) W 274 0 min 0,000 mm 0,0 UV-I 0 W/m 12,3 C 0,0 km/h (0 Bft)
05.08.2016 06:49 12,9 C 12,9 C 96 % 1011,3 hPa 0,0 mm 0,0 km/h (0 Bft) W 274 0 min 0,000 mm 0,0 UV-I 0 W/m 12,3 C 0,0 km/h (0 Bft)
05.08.2016 06:50 12,9 C 12,9 C 96 % 1011,3 hPa 0,0 mm 0,0 km/h (0 Bft) W 274 0 min 0,000 mm 0,0 UV-I 5 W/m 12,3 C 0,0 km/h (0 Bft)
05.08.2016 06:51 12,9 C 12,9 C 96 % 1011,3 hPa 0,0 mm 0,0 km/h (0 Bft) W 274 0 min 0,000 mm 0,0 UV-I 5 W/m 12,3 C 0,0 km/h (0 Bft)
05.08.2016 06:52 12,9 C 12,9 C 96 % 1011,4 hPa 0,2 mm 0,0 km/h (0 Bft) W 274 0 min 0,000 mm 0,0 UV-I 5 W/m 12,3 C 0,0 km/h (0 Bft)
05.08.2016 06:53 12,9 C 12,9 C 96 % 1011,4 hPa 0,0 mm 0,0 km/h (0 Bft) W 274 0 min 0,000 mm 0,0 UV-I 5 W/m 12,3 C 0,0 km/h (0 Bft)
05.08.2016 06:54 12,9 C 12,9 C 96 % 1011,3 hPa 0,0 mm 0,0 km/h (0 Bft) W 274 0 min 0,000 mm 0,0 UV-I 5 W/m 12,3 C 0,0 km/h (0 Bft)
05.08.2016 06:55 12,9 C 12,9 C 96 % 1011,4 hPa 0,2 mm 0,0 km/h (0 Bft) W 274 0 min 0,000 mm 0,0 UV-I 5 W/m 12,3 C 0,0 km/h (0 Bft)
05.08.2016 06:56 12,9 C 12,9 C 96 % 1011,4 hPa 0,0 mm 0,0 km/h (0 Bft) W 274 0 min 0,000 mm 0,0 UV-I 5 W/m 12,3 C 0,0 km/h (0 Bft)
05.08.2016 06:57 12,9 C 12,9 C 96 % 1011,3 hPa 0,0 mm 0,0 km/h (0 Bft) W 274 0 min 0,000 mm 0,0 UV-I 5 W/m 12,3 C 0,0 km/h (0 Bft)
05.08.2016 06:58 12,9 C 12,9 C 96 % 1011,3 hPa 0,2 mm 0,0 km/h (0 Bft) W 274 0 min 0,000 mm 0,0 UV-I 0 W/m 12,3 C 0,0 km/h (0 Bft)
05.08.2016 06:59 12,9 C 12,9 C 96 % 1011,3 hPa 0,0 mm 0,0 km/h (0 Bft) W 274 0 min 0,000 mm 0,0 UV-I 5 W/m 12,3 C 0,0 km/h (0 Bft)
05.08.2016 07:00 12,9 C 12,9 C 96 % 1011,4 hPa 0,2 mm 0,0 km/h (0 Bft) W 274 0 min 0,000 mm 0,0 UV-I 5 W/m 12,3 C 0,0 km/h (0 Bft)
05.08.2016 07:01 12,9 C 12,9 C 96 % 1011,4 hPa 0,0 mm 0,0 km/h (0 Bft) W 274 0 min 0,000 mm 0,0 UV-I 5 W/m 12,3 C 0,0 km/h (0 Bft)
05.08.2016 07:02 12,9 C 12,9 C 96 % 1011,3 hPa 0,0 mm 0,0 km/h (0 Bft) W 274 0 min 0,000 mm 0,0 UV-I 5 W/m 12,3 C 0,0 km/h (0 Bft)
05.08.2016 07:03 12,9 C 12,9 C 96 % 1011,4 hPa 0,2 mm 0,0 km/h (0 Bft) W 274 0 min 0,000 mm 0,0 UV-I 5 W/m 12,3 C 0,0 km/h (0 Bft)
05.08.2016 07:04 12,9 C 12,9 C 96 % 1011,4 hPa 0,0 mm 0,0 km/h (0 Bft) W 274 0 min 0,000 mm 0,0 UV-I 5 W/m 12,3 C 0,0 km/h (0 Bft)
05.08.2016 07:05 12,9 C 12,9 C 96 % 1011,4 hPa 0,0 mm 0,0 km/h (0 Bft) W 274 0 min 0,000 mm 0,0 UV-I 5 W/m 12,3 C 0,0 km/h (0 Bft)
05.08.2016 07:06 12,9 C 12,9 C 96 % 1011,3 hPa 0,0 mm 0,0 km/h (0 Bft) W 274 0 min 0,000 mm 0,0 UV-I 5 W/m 12,3 C 0,0 km/h (0 Bft)
05.08.2016 07:07 12,9 C 12,9 C 96 % 1011,3 hPa 0,2 mm 0,0 km/h (0 Bft) W 274 0 min 0,000 mm 0,0 UV-I 5 W/m 12,3 C 0,0 km/h (0 Bft)
05.08.2016 07:08 12,9 C 12,9 C 96 % 1011,3 hPa 0,0 mm 0,0 km/h (0 Bft) W 274 0 min 0,000 mm 0,0 UV-I 7 W/m 12,3 C 0,0 km/h (0 Bft)
05.08.2016 07:09 12,9 C 12,9 C 96 % 1011,3 hPa 0,0 mm 0,0 km/h (0 Bft) W 274 0 min 0,000 mm 0,0 UV-I 7 W/m 12,3 C 0,0 km/h (0 Bft)
05.08.2016 07:10 12,9 C 12,9 C 96 % 1011,4 hPa 0,0 mm 0,0 km/h (0 Bft) W 274 0 min 0,000 mm 0,0 UV-I 7 W/m 12,3 C 0,0 km/h (0 Bft)
05.08.2016 07:11 12,9 C 12,9 C 96 % 1011,3 hPa 0,2 mm 0,0 km/h (0 Bft) W 274 0 min 0,000 mm 0,0 UV-I 7 W/m 12,3 C 0,0 km/h (0 Bft)
05.08.2016 07:12 12,9 C 12,9 C 96 % 1011,4 hPa 0,0 mm 0,0 km/h (0 Bft) W 274 0 min 0,000 mm 0,0 UV-I 7 W/m 12,3 C 0,0 km/h (0 Bft)
05.08.2016 07:13 12,8 C 12,9 C 96 % 1011,3 hPa 0,0 mm 0,0 km/h (0 Bft) W 274 0 min 0,000 mm 0,0 UV-I 7 W/m 12,2 C 0,0 km/h (0 Bft)
05.08.2016 07:14 12,9 C 12,9 C 96 % 1011,4 hPa 0,0 mm 0,0 km/h (0 Bft) W 274 0 min 0,000 mm 0,0 UV-I 7 W/m 12,3 C 0,0 km/h (0 Bft)
05.08.2016 07:15 12,8 C 12,9 C 96 % 1011,3 hPa 0,2 mm 0,0 km/h (0 Bft) W 274 0 min 0,000 mm 0,0 UV-I 7 W/m 12,2 C 0,0 km/h (0 Bft)
05.08.2016 07:16 12,9 C 12,9 C 96 % 1011,3 hPa 0,0 mm 0,0 km/h (0 Bft) W 274 0 min 0,000 mm 0,0 UV-I 9 W/m 12,3 C 0,0 km/h (0 Bft)
05.08.2016 07:17 12,9 C 12,9 C 96 % 1011,3 hPa 0,0 mm 0,0 km/h (0 Bft) W 274 0 min 0,000 mm 0,0 UV-I 9 W/m 12,3 C 0,0 km/h (0 Bft)
05.08.2016 07:18 12,9 C 12,9 C 96 % 1011,3 hPa 0,0 mm 0,0 km/h (0 Bft) W 274 0 min 0,000 mm 0,0 UV-I 9 W/m 12,3 C 0,0 km/h (0 Bft)
05.08.2016 07:19 12,9 C 12,9 C 96 % 1011,3 hPa 0,2 mm 0,0 km/h (0 Bft) W 274 0 min 0,000 mm 0,0 UV-I 9 W/m 12,3 C 0,0 km/h (0 Bft)
05.08.2016 07:20 12,8 C 12,9 C 96 % 1011,3 hPa 0,0 mm 0,0 km/h (0 Bft) W 274 0 min 0,000 mm 0,0 UV-I 9 W/m 12,2 C 0,0 km/h (0 Bft)
05.08.2016 07:21 12,8 C 12,9 C 96 % 1011,3 hPa 0,0 mm 0,0 km/h (0 Bft) W 274 0 min 0,000 mm 0,0 UV-I 9 W/m 12,2 C 0,0 km/h (0 Bft)
05.08.2016 07:22 12,8 C 12,8 C 96 % 1011,2 hPa 0,2 mm 0,0 km/h (0 Bft) W 274 0 min 0,000 mm 0,0 UV-I 9 W/m 12,2 C 0,0 km/h (0 Bft)
05.08.2016 07:23 12,8 C 12,8 C 96 % 1011,3 hPa 0,0 mm 0,0 km/h (0 Bft) W 274 0 min 0,000 mm 0,0 UV-I 9 W/m 12,2 C 0,0 km/h (0 Bft)
05.08.2016 07:24 12,8 C 12,8 C 96 % 1011,2 hPa 0,0 mm 0,0 km/h (0 Bft) W 274 0 min 0,000 mm 0,0 UV-I 9 W/m 12,2 C 0,0 km/h (0 Bft)
05.08.2016 07:25 12,8 C 12,8 C 96 % 1011,2 hPa 0,0 mm 0,0 km/h (0 Bft) W 274 0 min 0,000 mm 0,0 UV-I 9 W/m 12,2 C 0,0 km/h (0 Bft)
05.08.2016 07:26 12,8 C 12,8 C 96 % 1011,3 hPa 0,2 mm 0,0 km/h (0 Bft) W 274 0 min 0,000 mm 0,0 UV-I 9 W/m 12,2 C 0,0 km/h (0 Bft)
05.08.2016 07:27 12,8 C 12,8 C 96 % 1011,2 hPa 0,0 mm 0,0 km/h (0 Bft) W 274 0 min 0,000 mm 0,0 UV-I 9 W/m 12,2 C 0,0 km/h (0 Bft)
05.08.2016 07:28 12,8 C 12,8 C 96 % 1011,2 hPa 0,0 mm 0,0 km/h (0 Bft) W 274 0 min 0,000 mm 0,0 UV-I 9 W/m 12,2 C 0,0 km/h (0 Bft)
05.08.2016 07:29 12,8 C 12,8 C 96 % 1011,2 hPa 0,0 mm 0,0 km/h (0 Bft) W 274 0 min 0,000 mm 0,0 UV-I 9 W/m 12,2 C 0,0 km/h (0 Bft)
05.08.2016 07:30 12,8 C 12,8 C 96 % 1011,2 hPa 0,2 mm 0,0 km/h (0 Bft) W 274 0 min 0,000 mm 0,0 UV-I 9 W/m 12,2 C 0,0 km/h (0 Bft)
05.08.2016 07:31 12,8 C 12,8 C 96 % 1011,2 hPa 0,0 mm 0,0 km/h (0 Bft) W 274 0 min 0,000 mm 0,0 UV-I 11 W/m 12,2 C 0,0 km/h (0 Bft)
05.08.2016 07:32 12,8 C 12,8 C 96 % 1011,3 hPa 0,0 mm 0,0 km/h (0 Bft) W 274 0 min 0,000 mm 0,0 UV-I 11 W/m 12,2 C 0,0 km/h (0 Bft)
05.08.2016 07:33 12,8 C 12,8 C 96 % 1011,3 hPa 0,2 mm 0,0 km/h (0 Bft) W 274 0 min 0,000 mm 0,0 UV-I 11 W/m 12,2 C 0,0 km/h (0 Bft)
05.08.2016 07:34 12,8 C 12,8 C 96 % 1011,2 hPa 0,0 mm 0,0 km/h (0 Bft) W 274 0 min 0,000 mm 0,0 UV-I 11 W/m 12,2 C 0,0 km/h (0 Bft)
05.08.2016 07:35 12,8 C 12,8 C 96 % 1011,3 hPa 0,0 mm 0,0 km/h (0 Bft) W 274 0 min 0,000 mm 0,0 UV-I 12 W/m 12,2 C 0,0 km/h (0 Bft)
05.08.2016 07:36 12,8 C 12,8 C 96 % 1011,3 hPa 0,2 mm 0,0 km/h (0 Bft) W 274 0 min 0,000 mm 0,0 UV-I 12 W/m 12,2 C 0,0 km/h (0 Bft)
05.08.2016 07:37 12,8 C 12,8 C 96 % 1011,3 hPa 0,0 mm 0,0 km/h (0 Bft) W 274 0 min 0,000 mm 0,0 UV-I 12 W/m 12,2 C 0,0 km/h (0 Bft)
05.08.2016 07:38 12,8 C 12,8 C 96 % 1011,3 hPa 0,0 mm 0,0 km/h (0 Bft) W 274 0 min 0,000 mm 0,0 UV-I 12 W/m 12,2 C 0,0 km/h (0 Bft)
05.08.2016 07:39 12,8 C 12,8 C 96 % 1011,3 hPa 0,0 mm 0,0 km/h (0 Bft) W 274 0 min 0,000 mm 0,0 UV-I 12 W/m 12,2 C 0,0 km/h (0 Bft)
05.08.2016 07:40 12,8 C 12,8 C 96 % 1011,4 hPa 0,2 mm 0,0 km/h (0 Bft) W 274 0 min 0,000 mm 0,0 UV-I 12 W/m 12,2 C 0,0 km/h (0 Bft)
05.08.2016 07:41 12,8 C 12,8 C 96 % 1011,4 hPa 0,0 mm 0,0 km/h (0 Bft) W 274 0 min 0,000 mm 0,0 UV-I 12 W/m 12,2 C 0,0 km/h (0 Bft)
05.08.2016 07:42 12,8 C 12,8 C 96 % 1011,5 hPa 0,0 mm 0,0 km/h (0 Bft) W 274 0 min 0,000 mm 0,0 UV-I 14 W/m 12,2 C 0,0 km/h (0 Bft)
05.08.2016 07:43 12,8 C 12,8 C 96 % 1011,4 hPa 0,2 mm 0,0 km/h (0 Bft) W 274 0 min 0,000 mm 0,0 UV-I 14 W/m 12,2 C 0,0 km/h (0 Bft)
05.08.2016 07:44 12,8 C 12,8 C 95 % 1011,5 hPa 0,0 mm 0,0 km/h (0 Bft) W 274 0 min 0,000 mm 0,0 UV-I 14 W/m 12,0 C 0,0 km/h (0 Bft)
05.08.2016 07:45 12,8 C 12,8 C 95 % 1011,4 hPa 0,0 mm 0,0 km/h (0 Bft) W 274 0 min 0,000 mm 0,0 UV-I 14 W/m 12,0 C 0,0 km/h (0 Bft)
05.08.2016 07:46 12,8 C 12,8 C 95 % 1011,4 hPa 0,2 mm 0,0 km/h (0 Bft) W 274 0 min 0,000 mm 0,0 UV-I 14 W/m 12,0 C 0,0 km/h (0 Bft)
05.08.2016 07:47 12,8 C 12,8 C 95 % 1011,4 hPa 0,0 mm 0,0 km/h (0 Bft) W 274 0 min 0,000 mm 0,0 UV-I 16 W/m 12,0 C 0,0 km/h (0 Bft)
05.08.2016 07:48 12,8 C 12,8 C 96 % 1011,4 hPa 0,0 mm 0,0 km/h (0 Bft) W 274 0 min 0,000 mm 0,0 UV-I 16 W/m 12,2 C 0,0 km/h (0 Bft)
05.08.2016 07:49 12,8 C 12,8 C 96 % 1011,4 hPa 0,2 mm 0,0 km/h (0 Bft) W 274 0 min 0,000 mm 0,0 UV-I 16 W/m 12,2 C 0,0 km/h (0 Bft)
05.08.2016 07:50 12,8 C 12,8 C 96 % 1011,4 hPa 0,0 mm 0,0 km/h (0 Bft) W 274 0 min 0,000 mm 0,0 UV-I 16 W/m 12,2 C 0,0 km/h (0 Bft)
05.08.2016 07:51 12,8 C 12,8 C 96 % 1011,4 hPa 0,0 mm 0,0 km/h (0 Bft) W 274 0 min 0,000 mm 0,0 UV-I 14 W/m 12,2 C 0,0 km/h (0 Bft)
05.08.2016 07:52 12,9 C 12,9 C 96 % 1011,4 hPa 0,2 mm 0,0 km/h (0 Bft) W 274 0 min 0,000 mm 0,0 UV-I 14 W/m 12,3 C 0,0 km/h (0 Bft)
05.08.2016 07:53 12,8 C 12,9 C 96 % 1011,4 hPa 0,0 mm 0,0 km/h (0 Bft) W 274 0 min 0,000 mm 0,0 UV-I 14 W/m 12,2 C 0,0 km/h (0 Bft)
05.08.2016 07:54 12,8 C 12,8 C 96 % 1011,4 hPa 0,0 mm 0,0 km/h (0 Bft) W 274 0 min 0,000 mm 0,0 UV-I 14 W/m 12,2 C 0,0 km/h (0 Bft)
05.08.2016 07:55 12,8 C 12,8 C 96 % 1011,3 hPa 0,2 mm 0,0 km/h (0 Bft) W 274 0 min 0,000 mm 0,0 UV-I 14 W/m 12,2 C 0,0 km/h (0 Bft)
05.08.2016 07:56 12,8 C 12,8 C 96 % 1011,3 hPa 0,0 mm 0,0 km/h (0 Bft) W 274 0 min 0,000 mm 0,0 UV-I 14 W/m 12,2 C 0,0 km/h (0 Bft)
05.08.2016 07:57 12,8 C 12,8 C 96 % 1011,3 hPa 0,0 mm 0,0 km/h (0 Bft) W 274 0 min 0,000 mm 0,0 UV-I 14 W/m 12,2 C 0,0 km/h (0 Bft)
05.08.2016 07:58 12,8 C 12,8 C 96 % 1011,3 hPa 0,2 mm 0,0 km/h (0 Bft) W 274 0 min 0,000 mm 0,0 UV-I 12 W/m 12,2 C 0,0 km/h (0 Bft)
05.08.2016 07:59 12,8 C 12,9 C 96 % 1011,3 hPa 0,0 mm 0,0 km/h (0 Bft) W 274 0 min 0,000 mm 0,0 UV-I 12 W/m 12,2 C 0,0 km/h (0 Bft)
05.08.2016 08:00 12,8 C 12,8 C 96 % 1011,3 hPa 0,0 mm 0,0 km/h (0 Bft) W 274 0 min 0,000 mm 0,0 UV-I 12 W/m 12,2 C 0,0 km/h (0 Bft)
05.08.2016 08:01 12,8 C 12,8 C 96 % 1011,3 hPa 0,0 mm 0,0 km/h (0 Bft) W 274 0 min 0,000 mm 0,0 UV-I 14 W/m 12,2 C 0,0 km/h (0 Bft)
05.08.2016 08:02 12,9 C 12,9 C 96 % 1011,3 hPa 0,2 mm 0,0 km/h (0 Bft) W 274 0 min 0,000 mm 0,0 UV-I 14 W/m 12,3 C 0,0 km/h (0 Bft)
05.08.2016 08:03 12,9 C 12,9 C 96 % 1011,3 hPa 0,0 mm 0,0 km/h (0 Bft) W 274 0 min 0,000 mm 0,0 UV-I 14 W/m 12,3 C 0,0 km/h (0 Bft)
05.08.2016 08:04 12,9 C 12,9 C 96 % 1011,3 hPa 0,0 mm 0,0 km/h (0 Bft) W 274 0 min 0,000 mm 0,0 UV-I 16 W/m 12,3 C 0,0 km/h (0 Bft)
05.08.2016 08:05 12,9 C 12,9 C 96 % 1011,3 hPa 0,0 mm 0,0 km/h (0 Bft) W 274 0 min 0,000 mm 0,0 UV-I 19 W/m 12,3 C 0,0 km/h (0 Bft)
05.08.2016 08:06 12,9 C 12,9 C 96 % 1011,3 hPa 0,2 mm 0,0 km/h (0 Bft) W 274 0 min 0,000 mm 0,0 UV-I 21 W/m 12,3 C 0,0 km/h (0 Bft)
05.08.2016 08:07 12,9 C 12,9 C 96 % 1011,3 hPa 0,0 mm 0,0 km/h (0 Bft) W 274 0 min 0,000 mm 0,0 UV-I 23 W/m 12,3 C 0,0 km/h (0 Bft)
05.08.2016 08:08 12,9 C 12,9 C 96 % 1011,3 hPa 0,0 mm 0,0 km/h (0 Bft) W 274 0 min 0,000 mm 0,0 UV-I 25 W/m 12,3 C 0,0 km/h (0 Bft)
05.08.2016 08:09 12,9 C 12,9 C 96 % 1011,3 hPa 0,0 mm 0,0 km/h (0 Bft) W 274 0 min 0,000 mm 0,0 UV-I 26 W/m 12,3 C 0,0 km/h (0 Bft)
05.08.2016 08:10 12,9 C 12,9 C 96 % 1011,4 hPa 0,2 mm 0,0 km/h (0 Bft) W 274 0 min 0,000 mm 0,0 UV-I 26 W/m 12,3 C 0,0 km/h (0 Bft)
05.08.2016 08:11 12,9 C 12,9 C 96 % 1011,4 hPa 0,0 mm 0,0 km/h (0 Bft) W 274 0 min 0,000 mm 0,0 UV-I 26 W/m 12,3 C 0,0 km/h (0 Bft)
05.08.2016 08:12 12,8 C 12,9 C 95 % 1011,5 hPa 0,0 mm 0,0 km/h (0 Bft) W 274 0 min 0,000 mm 0,0 UV-I 26 W/m 12,0 C 0,0 km/h (0 Bft)
05.08.2016 08:13 12,8 C 12,9 C 95 % 1011,5 hPa 0,0 mm 0,0 km/h (0 Bft) W 274 0 min 0,000 mm 0,0 UV-I 26 W/m 12,0 C 0,0 km/h (0 Bft)
05.08.2016 08:14 12,9 C 12,9 C 95 % 1011,5 hPa 0,2 mm 0,0 km/h (0 Bft) W 274 0 min 0,000 mm 0,0 UV-I 26 W/m 12,1 C 0,0 km/h (0 Bft)
05.08.2016 08:15 12,9 C 12,9 C 95 % 1011,5 hPa 0,0 mm 0,0 km/h (0 Bft) W 274 0 min 0,000 mm 0,0 UV-I 26 W/m 12,1 C 0,0 km/h (0 Bft)
05.08.2016 08:16 12,9 C 12,9 C 96 % 1011,5 hPa 0,0 mm 0,0 km/h (0 Bft) W 274 0 min 0,000 mm 0,0 UV-I 26 W/m 12,3 C 0,0 km/h (0 Bft)
05.08.2016 08:17 12,9 C 12,9 C 96 % 1011,5 hPa 0,2 mm 0,0 km/h (0 Bft) W 274 0 min 0,000 mm 0,0 UV-I 28 W/m 12,3 C 0,0 km/h (0 Bft)
05.08.2016 08:18 12,9 C 12,9 C 96 % 1011,5 hPa 0,0 mm 0,0 km/h (0 Bft) W 274 0 min 0,000 mm 0,0 UV-I 28 W/m 12,3 C 0,0 km/h (0 Bft)
05.08.2016 08:19 12,9 C 12,9 C 96 % 1011,5 hPa 0,0 mm 0,0 km/h (0 Bft) W 274 0 min 0,000 mm 0,0 UV-I 28 W/m 12,3 C 0,0 km/h (0 Bft)
05.08.2016 08:20 12,9 C 12,9 C 95 % 1011,6 hPa 0,0 mm 0,0 km/h (0 Bft) W 274 0 min 0,000 mm 0,0 UV-I 28 W/m 12,1 C 0,0 km/h (0 Bft)
05.08.2016 08:21 12,9 C 12,9 C 96 % 1011,5 hPa 0,2 mm 0,0 km/h (0 Bft) W 274 0 min 0,000 mm 0,0 UV-I 28 W/m 12,3 C 0,0 km/h (0 Bft)
05.08.2016 08:22 12,9 C 12,9 C 96 % 1011,6 hPa 0,0 mm 0,0 km/h (0 Bft) W 274 0 min 0,000 mm 0,0 UV-I 30 W/m 12,3 C 0,0 km/h (0 Bft)
05.08.2016 08:23 12,9 C 12,9 C 96 % 1011,6 hPa 0,0 mm 0,0 km/h (0 Bft) W 274 0 min 0,000 mm 0,0 UV-I 30 W/m 12,3 C 0,0 km/h (0 Bft)
05.08.2016 08:24 12,9 C 12,9 C 96 % 1011,6 hPa 0,2 mm 0,0 km/h (0 Bft) W 274 0 min 0,000 mm 0,0 UV-I 30 W/m 12,3 C 0,0 km/h (0 Bft)
05.08.2016 08:25 12,9 C 12,9 C 96 % 1011,7 hPa 0,0 mm 0,0 km/h (0 Bft) W 274 0 min 0,000 mm 0,0 UV-I 28 W/m 12,3 C 0,0 km/h (0 Bft)
05.08.2016 08:26 12,9 C 12,9 C 96 % 1011,7 hPa 0,0 mm 0,0 km/h (0 Bft) W 274 0 min 0,000 mm 0,0 UV-I 28 W/m 12,3 C 0,0 km/h (0 Bft)
05.08.2016 08:27 13,0 C 13,0 C 96 % 1011,7 hPa 0,0 mm 0,0 km/h (0 Bft) W 274 0 min 0,000 mm 0,0 UV-I 28 W/m 12,4 C 0,0 km/h (0 Bft)
05.08.2016 08:28 13,0 C 13,0 C 96 % 1011,8 hPa 0,2 mm 0,0 km/h (0 Bft) W 274 0 min 0,000 mm 0,0 UV-I 30 W/m 12,4 C 0,0 km/h (0 Bft)
05.08.2016 08:29 13,1 C 13,1 C 96 % 1011,8 hPa 0,2 mm 0,0 km/h (0 Bft) W 274 0 min 0,000 mm 0,0 UV-I 30 W/m 12,5 C 0,0 km/h (0 Bft)
05.08.2016 08:30 13,1 C 13,1 C 96 % 1011,8 hPa 0,0 mm 0,0 km/h (0 Bft) W 274 0 min 0,000 mm 0,0 UV-I 30 W/m 12,5 C 0,0 km/h (0 Bft)
05.08.2016 08:31 13,1 C 13,1 C 96 % 1011,8 hPa 0,0 mm 0,0 km/h (0 Bft) W 274 0 min 0,000 mm 0,0 UV-I 32 W/m 12,5 C 0,0 km/h (0 Bft)
05.08.2016 08:32 13,1 C 13,1 C 96 % 1011,9 hPa 0,0 mm 0,0 km/h (0 Bft) W 274 0 min 0,000 mm 0,0 UV-I 32 W/m 12,5 C 0,0 km/h (0 Bft)
05.08.2016 08:33 13,1 C 13,1 C 96 % 1011,9 hPa 0,2 mm 0,0 km/h (0 Bft) W 274 0 min 0,000 mm 0,0 UV-I 33 W/m 12,5 C 0,0 km/h (0 Bft)
05.08.2016 08:34 13,1 C 13,1 C 96 % 1011,9 hPa 0,0 mm 0,0 km/h (0 Bft) W 274 0 min 0,000 mm 0,0 UV-I 35 W/m 12,5 C 0,0 km/h (0 Bft)
05.08.2016 08:35 13,2 C 13,2 C 96 % 1011,9 hPa 0,0 mm 0,0 km/h (0 Bft) W 274 0 min 0,000 mm 0,0 UV-I 35 W/m 12,6 C 0,0 km/h (0 Bft)
05.08.2016 08:36 13,2 C 13,2 C 96 % 1011,9 hPa 0,2 mm 0,0 km/h (0 Bft) W 274 0 min 0,000 mm 0,0 UV-I 35 W/m 12,6 C 0,0 km/h (0 Bft)
05.08.2016 08:37 13,2 C 13,2 C 96 % 1012,0 hPa 0,0 mm 0,0 km/h (0 Bft) W 274 0 min 0,000 mm 0,0 UV-I 33 W/m 12,6 C 0,0 km/h (0 Bft)
05.08.2016 08:38 13,2 C 13,2 C 96 % 1012,0 hPa 0,0 mm 0,0 km/h (0 Bft) W 274 0 min 0,000 mm 0,0 UV-I 33 W/m 12,6 C 0,0 km/h (0 Bft)
05.08.2016 08:39 13,2 C 13,2 C 96 % 1012,0 hPa 0,2 mm 0,0 km/h (0 Bft) W 274 0 min 0,000 mm 0,0 UV-I 32 W/m 12,6 C 0,0 km/h (0 Bft)
05.08.2016 08:40 13,2 C 13,2 C 96 % 1012,1 hPa 0,0 mm 0,0 km/h (0 Bft) W 274 0 min 0,000 mm 0,0 UV-I 30 W/m 12,6 C 0,0 km/h (0 Bft)
05.08.2016 08:41 13,2 C 13,2 C 96 % 1012,0 hPa 0,0 mm 0,0 km/h (0 Bft) W 274 0 min 0,000 mm 0,0 UV-I 30 W/m 12,6 C 0,0 km/h (0 Bft)
05.08.2016 08:42 13,3 C 13,3 C 96 % 1012,0 hPa 0,2 mm 0,0 km/h (0 Bft) W 274 0 min 0,000 mm 0,0 UV-I 30 W/m 12,7 C 0,0 km/h (0 Bft)
05.08.2016 08:43 13,3 C 13,3 C 96 % 1012,0 hPa 0,0 mm 0,0 km/h (0 Bft) W 274 0 min 0,000 mm 0,0 UV-I 30 W/m 12,7 C 0,0 km/h (0 Bft)
05.08.2016 08:44 13,3 C 13,3 C 96 % 1012,0 hPa 0,0 mm 0,0 km/h (0 Bft) W 274 0 min 0,000 mm 0,0 UV-I 30 W/m 12,7 C 0,0 km/h (0 Bft)
05.08.2016 08:45 13,2 C 13,3 C 95 % 1012,0 hPa 0,0 mm 0,0 km/h (0 Bft) W 274 0 min 0,000 mm 0,0 UV-I 30 W/m 12,4 C 0,0 km/h (0 Bft)
05.08.2016 08:46 13,2 C 13,2 C 95 % 1012,0 hPa 0,2 mm 0,0 km/h (0 Bft) W 274 0 min 0,000 mm 0,0 UV-I 30 W/m 12,4 C 0,0 km/h (0 Bft)
05.08.2016 08:47 13,2 C 13,2 C 95 % 1012,1 hPa 0,0 mm 0,1 km/h (0 Bft) W 274 0 min 0,000 mm 0,0 UV-I 30 W/m 12,4 C 1,6 km/h (1 Bft)
05.08.2016 08:48 13,2 C 13,2 C 95 % 1012,1 hPa 0,0 mm 0,2 km/h (0 Bft) W 274 0 min 0,000 mm 0,0 UV-I 30 W/m 12,4 C 1,6 km/h (1 Bft)
05.08.2016 08:49 13,2 C 13,2 C 95 % 1012,0 hPa 0,0 mm 0,0 km/h (0 Bft) W 274 0 min 0,000 mm 0,0 UV-I 30 W/m 12,4 C 0,0 km/h (0 Bft)
05.08.2016 08:50 13,2 C 13,2 C 95 % 1012,1 hPa 0,2 mm 0,0 km/h (0 Bft) W 274 0 min 0,000 mm 0,0 UV-I 30 W/m 12,4 C 0,0 km/h (0 Bft)
05.08.2016 08:51 13,2 C 13,2 C 95 % 1012,1 hPa 0,0 mm 0,0 km/h (0 Bft) W 274 0 min 0,000 mm 0,0 UV-I 32 W/m 12,4 C 0,0 km/h (0 Bft)
05.08.2016 08:52 13,2 C 13,2 C 95 % 1012,1 hPa 0,0 mm 0,0 km/h (0 Bft) W 274 0 min 0,000 mm 0,0 UV-I 32 W/m 12,4 C 0,0 km/h (0 Bft)
05.08.2016 08:53 13,2 C 13,2 C 95 % 1012,1 hPa 0,0 mm 0,0 km/h (0 Bft) W 274 0 min 0,000 mm 0,0 UV-I 33 W/m 12,4 C 0,0 km/h (0 Bft)
05.08.2016 08:54 13,2 C 13,2 C 95 % 1012,1 hPa 0,2 mm 0,0 km/h (0 Bft) W 274 0 min 0,000 mm 0,0 UV-I 35 W/m 12,4 C 0,0 km/h (0 Bft)
05.08.2016 08:55 13,2 C 13,2 C 95 % 1012,1 hPa 0,0 mm 0,0 km/h (0 Bft) W 274 0 min 0,000 mm 0,0 UV-I 37 W/m 12,4 C 0,0 km/h (0 Bft)
05.08.2016 08:56 13,2 C 13,2 C 95 % 1012,1 hPa 0,0 mm 0,0 km/h (0 Bft) W 274 0 min 0,000 mm 0,0 UV-I 39 W/m 12,4 C 0,0 km/h (0 Bft)
05.08.2016 08:57 13,1 C 13,2 C 95 % 1012,1 hPa 0,0 mm 0,0 km/h (0 Bft) W 274 0 min 0,000 mm 0,0 UV-I 37 W/m 12,3 C 0,0 km/h (0 Bft)
05.08.2016 08:58 13,2 C 13,2 C 95 % 1012,1 hPa 0,0 mm 0,0 km/h (0 Bft) W 274 0 min 0,000 mm 0,0 UV-I 35 W/m 12,4 C 0,0 km/h (0 Bft)
05.08.2016 08:59 13,2 C 13,2 C 95 % 1012,1 hPa 0,2 mm 0,0 km/h (0 Bft) W 274 0 min 0,000 mm 0,0 UV-I 33 W/m 12,4 C 0,0 km/h (0 Bft)
05.08.2016 09:00 13,2 C 13,2 C 95 % 1012,1 hPa 0,0 mm 0,0 km/h (0 Bft) W 274 0 min 0,025 mm 0,0 UV-I 32 W/m 12,4 C 0,0 km/h (0 Bft)
05.08.2016 09:01 13,2 C 13,2 C 95 % 1012,2 hPa 0,0 mm 0,0 km/h (0 Bft) W 274 0 min 0,000 mm 0,0 UV-I 32 W/m 12,4 C 0,0 km/h (0 Bft)
05.08.2016 09:02 13,2 C 13,2 C 95 % 1012,2 hPa 0,0 mm 0,0 km/h (0 Bft) W 274 0 min 0,000 mm 0,0 UV-I 28 W/m 12,4 C 0,0 km/h (0 Bft)
05.08.2016 09:03 13,2 C 13,2 C 95 % 1012,2 hPa 0,2 mm 0,0 km/h (0 Bft) W 274 0 min 0,000 mm 0,0 UV-I 28 W/m 12,4 C 0,0 km/h (0 Bft)
05.08.2016 09:04 13,2 C 13,2 C 95 % 1012,2 hPa 0,0 mm 0,0 km/h (0 Bft) W 274 0 min 0,000 mm 0,0 UV-I 28 W/m 12,4 C 0,0 km/h (0 Bft)
05.08.2016 09:05 13,2 C 13,2 C 95 % 1012,2 hPa 0,0 mm 0,0 km/h (0 Bft) W 274 0 min 0,000 mm 0,0 UV-I 28 W/m 12,4 C 0,0 km/h (0 Bft)
05.08.2016 09:06 13,1 C 13,2 C 95 % 1012,2 hPa 0,0 mm 0,0 km/h (0 Bft) W 274 0 min 0,000 mm 0,0 UV-I 28 W/m 12,3 C 0,0 km/h (0 Bft)
05.08.2016 09:07 13,1 C 13,1 C 95 % 1012,1 hPa 0,2 mm 0,0 km/h (0 Bft) W 274 0 min 0,000 mm 0,0 UV-I 28 W/m 12,3 C 0,0 km/h (0 Bft)
05.08.2016 09:08 13,1 C 13,1 C 95 % 1012,2 hPa 0,0 mm 0,8 km/h (0 Bft) W 274 0 min 0,000 mm 0,0 UV-I 28 W/m 12,3 C 1,6 km/h (1 Bft)
05.08.2016 09:09 13,1 C 13,1 C 95 % 1012,2 hPa 0,0 mm 0,6 km/h (0 Bft) W 274 0 min 0,000 mm 0,0 UV-I 28 W/m 12,3 C 1,6 km/h (1 Bft)
05.08.2016 09:10 13,1 C 13,1 C 95 % 1012,2 hPa 0,2 mm 1,0 km/h (0 Bft) W 274 0 min 0,000 mm 0,0 UV-I 28 W/m 12,3 C 1,6 km/h (1 Bft)
05.08.2016 09:11 13,1 C 13,2 C 95 % 1012,1 hPa 0,2 mm 1,7 km/h (1 Bft) W 274 0 min 0,000 mm 0,0 UV-I 28 W/m 12,3 C 3,2 km/h (1 Bft)
05.08.2016 09:12 13,2 C 13,2 C 95 % 1012,2 hPa 0,0 mm 0,3 km/h (0 Bft) W 274 0 min 0,000 mm 0,0 UV-I 28 W/m 12,4 C 1,6 km/h (1 Bft)
05.08.2016 09:13 13,2 C 13,2 C 95 % 1012,1 hPa 0,0 mm 0,5 km/h (0 Bft) W 274 0 min 0,000 mm 0,0 UV-I 28 W/m 12,4 C 1,6 km/h (1 Bft)
05.08.2016 09:14 13,2 C 13,2 C 95 % 1012,2 hPa 0,2 mm 0,0 km/h (0 Bft) W 274 0 min 0,000 mm 0,0 UV-I 26 W/m 12,4 C 0,0 km/h (0 Bft)
05.08.2016 09:15 13,2 C 13,2 C 95 % 1012,2 hPa 0,2 mm 0,1 km/h (0 Bft) W 274 0 min 0,000 mm 0,0 UV-I 25 W/m 12,4 C 1,6 km/h (1 Bft)
05.08.2016 09:16 13,2 C 13,2 C 95 % 1012,2 hPa 0,0 mm 0,0 km/h (0 Bft) W 274 0 min 0,000 mm 0,0 UV-I 23 W/m 12,4 C 0,0 km/h (0 Bft)
05.08.2016 09:17 13,2 C 13,2 C 95 % 1012,2 hPa 0,2 mm 0,5 km/h (0 Bft) W 274 0 min 0,000 mm 0,0 UV-I 23 W/m 12,4 C 1,6 km/h (1 Bft)
05.08.2016 09:18 13,2 C 13,2 C 95 % 1012,3 hPa 0,0 mm 0,8 km/h (0 Bft) W 274 0 min 0,000 mm 0,0 UV-I 25 W/m 12,4 C 1,6 km/h (1 Bft)
05.08.2016 09:19 13,1 C 13,2 C 95 % 1012,3 hPa 0,2 mm 2,0 km/h (1 Bft) W-SW 244 0 min 0,000 mm 0,0 UV-I 25 W/m 12,3 C 3,2 km/h (1 Bft)
05.08.2016 09:20 13,1 C 13,1 C 95 % 1012,3 hPa 0,0 mm 1,0 km/h (0 Bft) W-SW 244 0 min 0,000 mm 0,0 UV-I 26 W/m 12,3 C 1,6 km/h (1 Bft)
05.08.2016 09:21 13,1 C 13,1 C 95 % 1012,3 hPa 0,2 mm 0,1 km/h (0 Bft) W-SW 244 0 min 0,000 mm 0,0 UV-I 26 W/m 12,3 C 1,6 km/h (1 Bft)
05.08.2016 09:22 13,1 C 13,1 C 95 % 1012,3 hPa 0,0 mm 0,0 km/h (0 Bft) W-SW 244 0 min 0,000 mm 0,0 UV-I 26 W/m 12,3 C 0,0 km/h (0 Bft)
05.08.2016 09:23 13,1 C 13,1 C 95 % 1012,3 hPa 0,2 mm 0,0 km/h (0 Bft) W-SW 244 0 min 0,000 mm 0,0 UV-I 26 W/m 12,3 C 0,0 km/h (0 Bft)
05.08.2016 09:24 13,1 C 13,1 C 95 % 1012,4 hPa 0,2 mm 0,0 km/h (0 Bft) W-SW 244 0 min 0,000 mm 0,0 UV-I 25 W/m 12,3 C 0,0 km/h (0 Bft)
05.08.2016 09:25 13,1 C 13,1 C 95 % 1012,4 hPa 0,0 mm 0,2 km/h (0 Bft) W-SW 244 0 min 0,000 mm 0,0 UV-I 23 W/m 12,3 C 1,6 km/h (1 Bft)
05.08.2016 09:26 13,1 C 13,1 C 95 % 1012,4 hPa 0,2 mm 1,1 km/h (1 Bft) W-NW 285 0 min 0,000 mm 0,0 UV-I 16 W/m 12,3 C 3,2 km/h (1 Bft)
05.08.2016 09:27 13,1 C 13,1 C 95 % 1012,4 hPa 0,0 mm 2,7 km/h (1 Bft) W-NW 297 0 min 0,000 mm 0,0 UV-I 14 W/m 12,3 C 3,2 km/h (1 Bft)
05.08.2016 09:28 13,1 C 13,1 C 96 % 1012,5 hPa 0,2 mm 4,6 km/h (1 Bft) W-NW 299 0 min 0,000 mm 0,0 UV-I 14 W/m 12,5 C 4,8 km/h (1 Bft)
05.08.2016 09:29 13,1 C 13,2 C 96 % 1012,5 hPa 0,0 mm 4,2 km/h (1 Bft) W-NW 300 0 min 0,000 mm 0,0 UV-I 12 W/m 12,5 C 4,8 km/h (1 Bft)
05.08.2016 09:30 13,2 C 13,2 C 96 % 1012,6 hPa 0,2 mm 3,6 km/h (1 Bft) W-NW 302 0 min 0,000 mm 0,0 UV-I 12 W/m 12,6 C 4,8 km/h (1 Bft)
05.08.2016 09:31 13,2 C 13,2 C 96 % 1012,6 hPa 0,4 mm 5,3 km/h (1 Bft) NW 319 0 min 0,000 mm 0,0 UV-I 12 W/m 12,6 C 8,0 km/h (2 Bft)
05.08.2016 09:32 13,1 C 13,2 C 95 % 1012,6 hPa 0,0 mm 3,4 km/h (1 Bft) NW 309 0 min 0,000 mm 0,0 UV-I 14 W/m 12,3 C 4,8 km/h (1 Bft)
05.08.2016 09:33 13,1 C 13,2 C 95 % 1012,6 hPa 0,4 mm 8,8 km/h (2 Bft) NW 306 0 min 0,000 mm 0,0 UV-I 16 W/m 12,3 C 14,5 km/h (3 Bft)
05.08.2016 09:34 12,9 C 13,1 C 95 % 1012,6 hPa 0,0 mm 4,1 km/h (1 Bft) W-NW 298 0 min 0,000 mm 0,0 UV-I 19 W/m 12,1 C 8,0 km/h (2 Bft)
05.08.2016 09:35 12,9 C 12,9 C 94 % 1012,7 hPa 0,2 mm 8,0 km/h (2 Bft) NW 319 0 min 0,000 mm 0,0 UV-I 23 W/m 12,0 C 12,9 km/h (3 Bft)
05.08.2016 09:36 12,9 C 12,9 C 94 % 1012,7 hPa 0,2 mm 8,2 km/h (2 Bft) W-NW 302 0 min 0,000 mm 0,0 UV-I 28 W/m 12,0 C 12,9 km/h (3 Bft)
05.08.2016 09:37 12,8 C 12,9 C 94 % 1012,7 hPa 0,0 mm 9,2 km/h (2 Bft) NW 310 0 min 0,000 mm 0,0 UV-I 32 W/m 11,9 C 14,5 km/h (3 Bft)
05.08.2016 09:38 12,7 C 12,8 C 94 % 1012,7 hPa 0,2 mm 6,1 km/h (2 Bft) W-NW 302 0 min 0,000 mm 0,0 UV-I 33 W/m 11,8 C 9,7 km/h (2 Bft)
05.08.2016 09:39 12,7 C 12,7 C 94 % 1012,7 hPa 0,0 mm 4,5 km/h (1 Bft) NW 307 0 min 0,000 mm 0,0 UV-I 30 W/m 11,8 C 6,4 km/h (2 Bft)
05.08.2016 09:40 12,6 C 12,7 C 94 % 1012,7 hPa 0,2 mm 6,5 km/h (2 Bft) W-SW 250 0 min 0,000 mm 0,0 UV-I 30 W/m 11,7 C 11,3 km/h (2 Bft)
05.08.2016 09:41 12,6 C 12,6 C 94 % 1012,8 hPa 0,0 mm 7,2 km/h (2 Bft) W-NW 302 0 min 0,000 mm 0,0 UV-I 30 W/m 11,7 C 11,3 km/h (2 Bft)
05.08.2016 09:42 12,5 C 12,6 C 94 % 1012,8 hPa 0,0 mm 9,0 km/h (2 Bft) W-NW 293 0 min 0,000 mm 0,0 UV-I 26 W/m 11,6 C 14,5 km/h (3 Bft)
05.08.2016 09:43 12,4 C 12,5 C 94 % 1012,9 hPa 0,2 mm 9,1 km/h (2 Bft) W-NW 288 0 min 0,000 mm 0,0 UV-I 25 W/m 11,5 C 14,5 km/h (3 Bft)
05.08.2016 09:44 12,4 C 12,4 C 94 % 1012,9 hPa 0,0 mm 9,9 km/h (2 Bft) W-SW 248 0 min 0,000 mm 0,0 UV-I 25 W/m 11,5 C 14,5 km/h (3 Bft)
05.08.2016 09:45 12,3 C 12,4 C 93 % 1013,0 hPa 0,2 mm 9,2 km/h (2 Bft) W 267 0 min 0,000 mm 0,0 UV-I 25 W/m 11,2 C 14,5 km/h (3 Bft)
05.08.2016 09:46 12,3 C 12,3 C 93 % 1013,0 hPa 0,2 mm 10,1 km/h (2 Bft) W-NW 302 0 min 0,000 mm 0,0 UV-I 26 W/m 11,2 C 14,5 km/h (3 Bft)
05.08.2016 09:47 12,2 C 12,3 C 93 % 1013,1 hPa 0,2 mm 8,4 km/h (2 Bft) W-NW 294 0 min 0,000 mm 0,0 UV-I 26 W/m 11,1 C 12,9 km/h (3 Bft)
05.08.2016 09:48 12,1 C 12,2 C 93 % 1013,1 hPa 0,0 mm 8,9 km/h (2 Bft) W-NW 290 0 min 0,000 mm 0,0 UV-I 26 W/m 11,0 C 12,9 km/h (3 Bft)
05.08.2016 09:49 12,1 C 12,2 C 93 % 1013,1 hPa 0,2 mm 10,1 km/h (2 Bft) W-NW 289 0 min 0,000 mm 0,0 UV-I 25 W/m 11,0 C 14,5 km/h (3 Bft)
05.08.2016 09:50 12,1 C 12,1 C 93 % 1013,1 hPa 0,0 mm 6,8 km/h (2 Bft) W 266 0 min 0,000 mm 0,0 UV-I 23 W/m 11,0 C 11,3 km/h (2 Bft)
05.08.2016 09:51 12,1 C 12,1 C 94 % 1013,2 hPa 0,2 mm 8,9 km/h (2 Bft) W-SW 253 0 min 0,000 mm 0,0 UV-I 21 W/m 11,2 C 12,9 km/h (3 Bft)
05.08.2016 09:52 12,0 C 12,1 C 94 % 1013,2 hPa 0,0 mm 8,4 km/h (2 Bft) W 262 0 min 0,000 mm 0,0 UV-I 21 W/m 11,1 C 11,3 km/h (2 Bft)
05.08.2016 09:53 11,9 C 12,0 C 94 % 1013,3 hPa 0,2 mm 8,7 km/h (2 Bft) W 261 0 min 0,000 mm 0,0 UV-I 23 W/m 11,0 C 14,5 km/h (3 Bft)
05.08.2016 09:54 11,9 C 11,9 C 94 % 1013,3 hPa 0,2 mm 5,6 km/h (1 Bft) W 260 0 min 0,000 mm 0,0 UV-I 23 W/m 11,0 C 9,7 km/h (2 Bft)
05.08.2016 09:55 11,9 C 11,9 C 94 % 1013,3 hPa 0,0 mm 5,0 km/h (1 Bft) S-SW 201 0 min 0,000 mm 0,0 UV-I 26 W/m 11,0 C 9,7 km/h (2 Bft)
05.08.2016 09:56 11,9 C 11,9 C 94 % 1013,4 hPa 0,2 mm 6,7 km/h (2 Bft) W 263 0 min 0,000 mm 0,0 UV-I 23 W/m 11,0 C 12,9 km/h (3 Bft)
05.08.2016 09:57 11,9 C 11,9 C 94 % 1013,3 hPa 0,2 mm 7,7 km/h (2 Bft) W 273 0 min 0,000 mm 0,0 UV-I 19 W/m 11,0 C 11,3 km/h (2 Bft)
05.08.2016 09:58 11,9 C 11,9 C 94 % 1013,3 hPa 0,2 mm 4,3 km/h (1 Bft) W-SW 254 0 min 0,000 mm 0,0 UV-I 18 W/m 11,0 C 6,4 km/h (2 Bft)
05.08.2016 09:59 11,9 C 11,9 C 95 % 1013,3 hPa 0,0 mm 5,0 km/h (1 Bft) W-SW 252 0 min 0,000 mm 0,0 UV-I 18 W/m 11,1 C 6,4 km/h (2 Bft)
05.08.2016 10:00 11,9 C 11,9 C 95 % 1013,3 hPa 0,2 mm 4,6 km/h (1 Bft) W 263 0 min 0,000 mm 0,0 UV-I 19 W/m 11,1 C 6,4 km/h (2 Bft)
05.08.2016 10:01 11,9 C 11,9 C 95 % 1013,3 hPa 0,2 mm 9,4 km/h (2 Bft) W-SW 248 0 min 0,025 mm 0,0 UV-I 19 W/m 11,1 C 14,5 km/h (3 Bft)
05.08.2016 10:02 11,9 C 11,9 C 95 % 1013,2 hPa 0,0 mm 10,2 km/h (2 Bft) W-SW 243 0 min 0,001 mm 0,0 UV-I 19 W/m 11,1 C 16,1 km/h (3 Bft)
05.08.2016 10:03 11,9 C 11,9 C 94 % 1013,3 hPa 0,2 mm 6,1 km/h (2 Bft) W 267 0 min 0,000 mm 0,0 UV-I 19 W/m 11,0 C 11,3 km/h (2 Bft)
05.08.2016 10:04 11,9 C 11,9 C 94 % 1013,3 hPa 0,0 mm 4,8 km/h (1 Bft) W 273 0 min 0,000 mm 0,0 UV-I 19 W/m 11,0 C 9,7 km/h (2 Bft)
05.08.2016 10:05 11,8 C 11,9 C 95 % 1013,3 hPa 0,2 mm 4,8 km/h (1 Bft) W 260 0 min 0,000 mm 0,0 UV-I 19 W/m 11,0 C 6,4 km/h (2 Bft)
05.08.2016 10:06 11,9 C 11,9 C 95 % 1013,3 hPa 0,0 mm 4,9 km/h (1 Bft) W 263 0 min 0,000 mm 0,0 UV-I 19 W/m 11,1 C 8,0 km/h (2 Bft)
05.08.2016 10:07 11,9 C 11,9 C 95 % 1013,3 hPa 0,0 mm 6,6 km/h (2 Bft) W 278 0 min 0,000 mm 0,0 UV-I 23 W/m 11,1 C 9,7 km/h (2 Bft)
05.08.2016 10:08 11,8 C 11,9 C 95 % 1013,4 hPa 0,2 mm 5,9 km/h (2 Bft) W-NW 294 0 min 0,000 mm 0,0 UV-I 25 W/m 11,0 C 9,7 km/h (2 Bft)
05.08.2016 10:09 11,8 C 11,9 C 95 % 1013,5 hPa 0,2 mm 5,0 km/h (1 Bft) SW 225 0 min 0,000 mm 0,0 UV-I 25 W/m 11,0 C 9,7 km/h (2 Bft)
05.08.2016 10:10 11,8 C 11,9 C 95 % 1013,5 hPa 0,0 mm 9,8 km/h (2 Bft) W-SW 257 0 min 0,000 mm 0,0 UV-I 26 W/m 11,0 C 12,9 km/h (3 Bft)
05.08.2016 10:11 11,8 C 11,8 C 95 % 1013,6 hPa 0,2 mm 9,5 km/h (2 Bft) W-SW 248 0 min 0,000 mm 0,0 UV-I 26 W/m 11,0 C 14,5 km/h (3 Bft)
05.08.2016 10:12 11,8 C 11,8 C 95 % 1013,7 hPa 0,0 mm 13,3 km/h (3 Bft) SW 223 0 min 0,000 mm 0,0 UV-I 28 W/m 11,0 C 20,9 km/h (4 Bft)
05.08.2016 10:13 11,8 C 11,8 C 95 % 1013,8 hPa 0,2 mm 10,3 km/h (2 Bft) W 278 0 min 0,000 mm 0,0 UV-I 28 W/m 11,0 C 14,5 km/h (3 Bft)
05.08.2016 10:14 11,7 C 11,8 C 95 % 1013,9 hPa 0,2 mm 6,2 km/h (2 Bft) W-SW 241 0 min 0,000 mm 0,0 UV-I 30 W/m 10,9 C 11,3 km/h (2 Bft)
05.08.2016 10:15 11,7 C 11,8 C 94 % 1013,9 hPa 0,0 mm 3,7 km/h (1 Bft) W-SW 251 0 min 0,000 mm 0,0 UV-I 30 W/m 10,8 C 6,4 km/h (2 Bft)
05.08.2016 10:16 11,7 C 11,7 C 94 % 1014,0 hPa 0,0 mm 8,0 km/h (2 Bft) W-SW 241 0 min 0,000 mm 0,0 UV-I 28 W/m 10,8 C 11,3 km/h (2 Bft)
05.08.2016 10:17 11,7 C 11,7 C 95 % 1014,0 hPa 0,2 mm 8,0 km/h (2 Bft) W-SW 254 0 min 0,000 mm 0,0 UV-I 26 W/m 10,9 C 11,3 km/h (2 Bft)
05.08.2016 10:18 11,7 C 11,7 C 95 % 1014,1 hPa 0,0 mm 9,0 km/h (2 Bft) SW 221 0 min 0,000 mm 0,0 UV-I 26 W/m 10,9 C 14,5 km/h (3 Bft)
05.08.2016 10:19 11,7 C 11,7 C 94 % 1014,1 hPa 0,2 mm 4,0 km/h (1 Bft) W-SW 258 0 min 0,000 mm 0,0 UV-I 23 W/m 10,8 C 8,0 km/h (2 Bft)
05.08.2016 10:20 11,7 C 11,7 C 94 % 1014,2 hPa 0,0 mm 6,2 km/h (2 Bft) SW 221 0 min 0,000 mm 0,0 UV-I 25 W/m 10,8 C 9,7 km/h (2 Bft)
05.08.2016 10:21 11,7 C 11,7 C 94 % 1014,1 hPa 0,0 mm 8,5 km/h (2 Bft) W 261 0 min 0,000 mm 0,0 UV-I 25 W/m 10,8 C 12,9 km/h (3 Bft)
05.08.2016 10:22 11,7 C 11,7 C 94 % 1014,2 hPa 0,2 mm 8,8 km/h (2 Bft) W-SW 238 0 min 0,000 mm 0,0 UV-I 25 W/m 10,8 C 11,3 km/h (2 Bft)
05.08.2016 10:23 11,7 C 11,7 C 94 % 1014,1 hPa 0,0 mm 10,0 km/h (2 Bft) NW 304 0 min 0,000 mm 0,0 UV-I 25 W/m 10,8 C 14,5 km/h (3 Bft)
05.08.2016 10:24 11,7 C 11,7 C 94 % 1014,1 hPa 0,0 mm 7,8 km/h (2 Bft) W-NW 298 0 min 0,000 mm 0,0 UV-I 25 W/m 10,8 C 12,9 km/h (3 Bft)
05.08.2016 10:25 11,7 C 11,7 C 94 % 1014,2 hPa 0,2 mm 7,4 km/h (2 Bft) W-NW 294 0 min 0,000 mm 0,0 UV-I 26 W/m 10,8 C 12,9 km/h (3 Bft)
05.08.2016 10:26 11,7 C 11,7 C 94 % 1014,2 hPa 0,0 mm 5,4 km/h (1 Bft) W-SW 258 0 min 0,000 mm 0,0 UV-I 28 W/m 10,8 C 11,3 km/h (2 Bft)
05.08.2016 10:27 11,7 C 11,7 C 94 % 1014,2 hPa 0,0 mm 6,2 km/h (2 Bft) W 279 0 min 0,000 mm 0,0 UV-I 26 W/m 10,8 C 12,9 km/h (3 Bft)
05.08.2016 10:28 11,7 C 11,7 C 94 % 1014,2 hPa 0,2 mm 7,5 km/h (2 Bft) W 275 0 min 0,000 mm 0,0 UV-I 26 W/m 10,8 C 12,9 km/h (3 Bft)
05.08.2016 10:29 11,7 C 11,7 C 95 % 1014,3 hPa 0,0 mm 4,6 km/h (1 Bft) W-NW 284 0 min 0,000 mm 0,0 UV-I 25 W/m 10,9 C 9,7 km/h (2 Bft)
05.08.2016 10:30 11,6 C 11,7 C 95 % 1014,3 hPa 0,2 mm 8,0 km/h (2 Bft) W 275 0 min 0,000 mm 0,0 UV-I 25 W/m 10,8 C 19,3 km/h (3 Bft)
05.08.2016 10:31 11,6 C 11,7 C 95 % 1014,3 hPa 0,0 mm 7,8 km/h (2 Bft) W-SW 247 0 min 0,000 mm 0,0 UV-I 25 W/m 10,8 C 16,1 km/h (3 Bft)
05.08.2016 10:32 11,6 C 11,7 C 95 % 1014,4 hPa 0,2 mm 5,3 km/h (1 Bft) W-SW 248 0 min 0,000 mm 0,0 UV-I 25 W/m 10,8 C 9,7 km/h (2 Bft)
05.08.2016 10:33 11,6 C 11,7 C 95 % 1014,4 hPa 0,0 mm 2,3 km/h (1 Bft) W-SW 248 0 min 0,000 mm 0,0 UV-I 25 W/m 10,8 C 4,8 km/h (1 Bft)
05.08.2016 10:34 11,6 C 11,6 C 95 % 1014,4 hPa 0,2 mm 4,3 km/h (1 Bft) W-SW 252 0 min 0,000 mm 0,0 UV-I 26 W/m 10,8 C 12,9 km/h (3 Bft)
05.08.2016 10:35 11,6 C 11,6 C 95 % 1014,4 hPa 0,0 mm 8,9 km/h (2 Bft) W-SW 250 0 min 0,000 mm 0,0 UV-I 26 W/m 10,8 C 14,5 km/h (3 Bft)
05.08.2016 10:36 11,6 C 11,6 C 95 % 1014,4 hPa 0,0 mm 5,3 km/h (1 Bft) NW 306 0 min 0,000 mm 0,0 UV-I 26 W/m 10,8 C 8,0 km/h (2 Bft)
05.08.2016 10:37 11,6 C 11,6 C 94 % 1014,4 hPa 0,2 mm 10,3 km/h (2 Bft) W 281 0 min 0,000 mm 0,0 UV-I 25 W/m 10,7 C 17,7 km/h (3 Bft)
05.08.2016 10:38 11,6 C 11,6 C 94 % 1014,4 hPa 0,0 mm 11,4 km/h (2 Bft) W 269 0 min 0,000 mm 0,0 UV-I 26 W/m 10,7 C 19,3 km/h (3 Bft)
05.08.2016 10:39 11,6 C 11,6 C 94 % 1014,4 hPa 0,0 mm 8,3 km/h (2 Bft) W 279 0 min 0,000 mm 0,0 UV-I 30 W/m 10,7 C 14,5 km/h (3 Bft)
05.08.2016 10:40 11,6 C 11,6 C 94 % 1014,4 hPa 0,2 mm 10,5 km/h (2 Bft) W-NW 291 0 min 0,000 mm 0,0 UV-I 30 W/m 10,7 C 14,5 km/h (3 Bft)
05.08.2016 10:41 11,6 C 11,6 C 94 % 1014,4 hPa 0,0 mm 10,3 km/h (2 Bft) W-NW 288 0 min 0,000 mm 0,0 UV-I 30 W/m 10,7 C 16,1 km/h (3 Bft)
05.08.2016 10:42 11,6 C 11,6 C 94 % 1014,4 hPa 0,0 mm 12,5 km/h (3 Bft) W 281 0 min 0,000 mm 0,0 UV-I 32 W/m 10,7 C 17,7 km/h (3 Bft)
05.08.2016 10:43 11,6 C 11,6 C 94 % 1014,4 hPa 0,2 mm 8,7 km/h (2 Bft) W-SW 255 0 min 0,000 mm 0,0 UV-I 33 W/m 10,7 C 14,5 km/h (3 Bft)
05.08.2016 10:44 11,6 C 11,6 C 94 % 1014,5 hPa 0,0 mm 9,3 km/h (2 Bft) W-SW 258 0 min 0,000 mm 0,0 UV-I 33 W/m 10,7 C 14,5 km/h (3 Bft)
05.08.2016 10:45 11,5 C 11,6 C 94 % 1014,5 hPa 0,2 mm 5,5 km/h (1 Bft) SW 221 0 min 0,000 mm 0,0 UV-I 33 W/m 10,6 C 8,0 km/h (2 Bft)
05.08.2016 10:46 11,6 C 11,6 C 94 % 1014,5 hPa 0,2 mm 8,7 km/h (2 Bft) W 277 0 min 0,000 mm 0,0 UV-I 33 W/m 10,7 C 14,5 km/h (3 Bft)
05.08.2016 10:47 11,5 C 11,6 C 94 % 1014,5 hPa 0,0 mm 9,9 km/h (2 Bft) W-NW 293 0 min 0,000 mm 0,0 UV-I 33 W/m 10,6 C 14,5 km/h (3 Bft)
05.08.2016 10:48 11,6 C 11,6 C 94 % 1014,5 hPa 0,0 mm 10,4 km/h (2 Bft) W-NW 286 0 min 0,000 mm 0,0 UV-I 33 W/m 10,7 C 16,1 km/h (3 Bft)
05.08.2016 10:49 11,6 C 11,6 C 94 % 1014,6 hPa 0,2 mm 7,8 km/h (2 Bft) W-NW 291 0 min 0,000 mm 0,0 UV-I 33 W/m 10,7 C 12,9 km/h (3 Bft)
05.08.2016 10:50 11,5 C 11,6 C 94 % 1014,6 hPa 0,0 mm 8,9 km/h (2 Bft) W 260 0 min 0,000 mm 0,0 UV-I 37 W/m 10,6 C 16,1 km/h (3 Bft)
05.08.2016 10:51 11,5 C 11,6 C 94 % 1014,6 hPa 0,0 mm 12,1 km/h (2 Bft) W-NW 283 0 min 0,000 mm 0,0 UV-I 37 W/m 10,6 C 19,3 km/h (3 Bft)
05.08.2016 10:52 11,5 C 11,6 C 94 % 1014,7 hPa 0,0 mm 7,2 km/h (2 Bft) W-SW 254 0 min 0,000 mm 0,0 UV-I 37 W/m 10,6 C 11,3 km/h (2 Bft)
05.08.2016 10:53 11,6 C 11,6 C 94 % 1014,7 hPa 0,2 mm 11,2 km/h (2 Bft) W-NW 288 0 min 0,000 mm 0,0 UV-I 37 W/m 10,7 C 14,5 km/h (3 Bft)
05.08.2016 10:54 11,5 C 11,6 C 94 % 1014,8 hPa 0,0 mm 12,7 km/h (3 Bft) SW 233 0 min 0,000 mm 0,0 UV-I 37 W/m 10,6 C 24,1 km/h (4 Bft)
05.08.2016 10:55 11,5 C 11,5 C 94 % 1014,8 hPa 0,0 mm 16,8 km/h (3 Bft) W-SW 248 0 min 0,000 mm 0,0 UV-I 35 W/m 10,6 C 22,5 km/h (4 Bft)
05.08.2016 10:56 11,5 C 11,5 C 94 % 1014,9 hPa 0,2 mm 20,0 km/h (4 Bft) W 275 0 min 0,000 mm 0,0 UV-I 35 W/m 10,6 C 29,0 km/h (5 Bft)
05.08.2016 10:57 11,4 C 11,5 C 94 % 1014,9 hPa 0,0 mm 12,0 km/h (2 Bft) W 276 0 min 0,000 mm 0,0 UV-I 35 W/m 10,5 C 20,9 km/h (4 Bft)
05.08.2016 10:58 11,4 C 11,4 C 94 % 1014,9 hPa 0,0 mm 7,0 km/h (2 Bft) W-NW 301 0 min 0,000 mm 0,0 UV-I 35 W/m 10,5 C 9,7 km/h (2 Bft)
05.08.2016 10:59 11,4 C 11,4 C 94 % 1015,0 hPa 0,2 mm 10,9 km/h (2 Bft) W-SW 248 0 min 0,000 mm 0,0 UV-I 33 W/m 10,5 C 17,7 km/h (3 Bft)
05.08.2016 11:00 11,4 C 11,4 C 94 % 1015,0 hPa 0,0 mm 9,5 km/h (2 Bft) NW 306 0 min 0,025 mm 0,0 UV-I 33 W/m 10,5 C 17,7 km/h (3 Bft)
05.08.2016 11:01 11,4 C 11,4 C 94 % 1015,1 hPa 0,2 mm 7,8 km/h (2 Bft) W 261 0 min 0,000 mm 0,0 UV-I 35 W/m 10,5 C 12,9 km/h (3 Bft)
05.08.2016 11:02 11,3 C 11,4 C 94 % 1015,1 hPa 0,0 mm 8,9 km/h (2 Bft) W 273 0 min 0,000 mm 0,0 UV-I 35 W/m 10,4 C 16,1 km/h (3 Bft)
05.08.2016 11:03 11,3 C 11,3 C 94 % 1015,1 hPa 0,0 mm 11,5 km/h (2 Bft) W 272 0 min 0,000 mm 0,0 UV-I 33 W/m 10,4 C 17,7 km/h (3 Bft)
05.08.2016 11:04 11,3 C 11,3 C 94 % 1015,1 hPa 0,2 mm 6,7 km/h (2 Bft) W-SW 257 0 min 0,000 mm 0,0 UV-I 32 W/m 10,4 C 11,3 km/h (2 Bft)
05.08.2016 11:05 11,3 C 11,3 C 94 % 1015,1 hPa 0,0 mm 11,0 km/h (2 Bft) W 259 0 min 0,000 mm 0,0 UV-I 32 W/m 10,4 C 17,7 km/h (3 Bft)
05.08.2016 11:06 11,3 C 11,3 C 94 % 1015,1 hPa 0,2 mm 9,5 km/h (2 Bft) W-NW 292 0 min 0,000 mm 0,0 UV-I 33 W/m 10,4 C 12,9 km/h (3 Bft)
05.08.2016 11:07 11,3 C 11,3 C 94 % 1015,1 hPa 0,0 mm 8,2 km/h (2 Bft) W 277 0 min 0,000 mm 0,0 UV-I 33 W/m 10,4 C 12,9 km/h (3 Bft)
05.08.2016 11:08 11,3 C 11,3 C 94 % 1015,2 hPa 0,0 mm 7,0 km/h (2 Bft) W 273 0 min 0,000 mm 0,0 UV-I 35 W/m 10,4 C 12,9 km/h (3 Bft)
05.08.2016 11:09 11,3 C 11,3 C 94 % 1015,2 hPa 0,0 mm 7,2 km/h (2 Bft) W 275 0 min 0,000 mm 0,0 UV-I 35 W/m 10,4 C 12,9 km/h (3 Bft)
05.08.2016 11:10 11,2 C 11,3 C 94 % 1015,2 hPa 0,2 mm 9,7 km/h (2 Bft) W-NW 302 0 min 0,000 mm 0,0 UV-I 37 W/m 10,3 C 16,1 km/h (3 Bft)
05.08.2016 11:11 11,2 C 11,3 C 94 % 1015,2 hPa 0,0 mm 11,9 km/h (2 Bft) W 259 0 min 0,000 mm 0,0 UV-I 35 W/m 10,3 C 17,7 km/h (3 Bft)
05.08.2016 11:12 11,3 C 11,3 C 94 % 1015,3 hPa 0,0 mm 10,2 km/h (2 Bft) W-SW 256 0 min 0,000 mm 0,0 UV-I 35 W/m 10,4 C 14,5 km/h (3 Bft)
05.08.2016 11:13 11,2 C 11,3 C 94 % 1015,3 hPa 0,2 mm 10,7 km/h (2 Bft) W-SW 239 0 min 0,000 mm 0,0 UV-I 35 W/m 10,3 C 14,5 km/h (3 Bft)
05.08.2016 11:14 11,2 C 11,2 C 94 % 1015,3 hPa 0,0 mm 8,9 km/h (2 Bft) W 265 0 min 0,000 mm 0,0 UV-I 35 W/m 10,3 C 14,5 km/h (3 Bft)
05.08.2016 11:15 11,2 C 11,2 C 94 % 1015,3 hPa 0,0 mm 11,3 km/h (2 Bft) W-SW 250 0 min 0,000 mm 0,0 UV-I 37 W/m 10,3 C 17,7 km/h (3 Bft)
05.08.2016 11:16 11,2 C 11,3 C 94 % 1015,4 hPa 0,2 mm 10,6 km/h (2 Bft) W 261 0 min 0,000 mm 0,0 UV-I 35 W/m 10,3 C 14,5 km/h (3 Bft)
05.08.2016 11:17 11,2 C 11,2 C 94 % 1015,5 hPa 0,0 mm 11,1 km/h (2 Bft) W 270 0 min 0,000 mm 0,0 UV-I 35 W/m 10,3 C 16,1 km/h (3 Bft)
05.08.2016 11:18 11,2 C 11,2 C 94 % 1015,5 hPa 0,2 mm 9,1 km/h (2 Bft) NW 321 0 min 0,000 mm 0,0 UV-I 35 W/m 10,3 C 14,5 km/h (3 Bft)
05.08.2016 11:19 11,2 C 11,3 C 94 % 1015,5 hPa 0,0 mm 10,2 km/h (2 Bft) W 273 0 min 0,000 mm 0,0 UV-I 35 W/m 10,3 C 17,7 km/h (3 Bft)
05.08.2016 11:20 11,2 C 11,2 C 94 % 1015,6 hPa 0,2 mm 7,4 km/h (2 Bft) W-SW 253 0 min 0,000 mm 0,0 UV-I 37 W/m 10,3 C 11,3 km/h (2 Bft)
05.08.2016 11:21 11,2 C 11,3 C 94 % 1015,6 hPa 0,0 mm 7,4 km/h (2 Bft) W 274 0 min 0,000 mm 0,0 UV-I 39 W/m 10,3 C 11,3 km/h (2 Bft)
05.08.2016 11:22 11,2 C 11,3 C 94 % 1015,6 hPa 0,0 mm 4,6 km/h (1 Bft) W-NW 288 0 min 0,000 mm 0,0 UV-I 39 W/m 10,3 C 9,7 km/h (2 Bft)
05.08.2016 11:23 11,2 C 11,3 C 94 % 1015,6 hPa 0,2 mm 7,2 km/h (2 Bft) W-SW 246 0 min 0,000 mm 0,0 UV-I 39 W/m 10,3 C 14,5 km/h (3 Bft)
05.08.2016 11:24 11,2 C 11,3 C 94 % 1015,6 hPa 0,2 mm 5,2 km/h (1 Bft) W 276 0 min 0,000 mm 0,0 UV-I 39 W/m 10,3 C 8,0 km/h (2 Bft)
05.08.2016 11:25 11,3 C 11,3 C 94 % 1015,7 hPa 0,0 mm 7,7 km/h (2 Bft) W-SW 252 0 min 0,000 mm 0,0 UV-I 40 W/m 10,4 C 14,5 km/h (3 Bft)
05.08.2016 11:26 11,3 C 11,3 C 94 % 1015,7 hPa 0,0 mm 5,7 km/h (1 Bft) W-SW 247 0 min 0,000 mm 0,0 UV-I 40 W/m 10,4 C 11,3 km/h (2 Bft)
05.08.2016 11:27 11,3 C 11,3 C 94 % 1015,7 hPa 0,2 mm 8,9 km/h (2 Bft) W 265 0 min 0,000 mm 0,0 UV-I 40 W/m 10,4 C 12,9 km/h (3 Bft)
05.08.2016 11:28 11,3 C 11,3 C 94 % 1015,7 hPa 0,0 mm 10,6 km/h (2 Bft) W 269 0 min 0,000 mm 0,0 UV-I 40 W/m 10,4 C 16,1 km/h (3 Bft)
05.08.2016 11:29 11,3 C 11,3 C 94 % 1015,8 hPa 0,2 mm 6,4 km/h (2 Bft) W 269 0 min 0,000 mm 0,0 UV-I 42 W/m 10,4 C 9,7 km/h (2 Bft)
05.08.2016 11:30 11,3 C 11,3 C 95 % 1015,8 hPa 0,0 mm 6,3 km/h (2 Bft) W 260 0 min 0,000 mm 0,0 UV-I 42 W/m 10,5 C 11,3 km/h (2 Bft)
05.08.2016 11:31 11,3 C 11,3 C 95 % 1015,8 hPa 0,2 mm 8,7 km/h (2 Bft) W 273 0 min 0,000 mm 0,0 UV-I 40 W/m 10,5 C 17,7 km/h (3 Bft)
05.08.2016 11:32 11,3 C 11,3 C 94 % 1015,8 hPa 0,0 mm 9,3 km/h (2 Bft) W-NW 286 0 min 0,000 mm 0,0 UV-I 42 W/m 10,4 C 14,5 km/h (3 Bft)
05.08.2016 11:33 11,3 C 11,3 C 94 % 1015,9 hPa 0,2 mm 7,3 km/h (2 Bft) W-SW 242 0 min 0,000 mm 0,0 UV-I 42 W/m 10,4 C 11,3 km/h (2 Bft)
05.08.2016 11:34 11,3 C 11,3 C 94 % 1015,9 hPa 0,0 mm 9,4 km/h (2 Bft) W-SW 242 0 min 0,000 mm 0,0 UV-I 40 W/m 10,4 C 14,5 km/h (3 Bft)
05.08.2016 11:35 11,3 C 11,4 C 94 % 1015,9 hPa 0,0 mm 13,2 km/h (3 Bft) NW 306 0 min 0,000 mm 0,0 UV-I 39 W/m 10,4 C 16,1 km/h (3 Bft)
05.08.2016 11:36 11,3 C 11,3 C 94 % 1016,0 hPa 0,2 mm 11,1 km/h (2 Bft) W-SW 254 0 min 0,000 mm 0,0 UV-I 39 W/m 10,4 C 17,7 km/h (3 Bft)
05.08.2016 11:37 11,3 C 11,3 C 94 % 1016,0 hPa 0,0 mm 12,4 km/h (3 Bft) W-NW 285 0 min 0,000 mm 0,0 UV-I 39 W/m 10,4 C 22,5 km/h (4 Bft)
05.08.2016 11:38 11,3 C 11,3 C 94 % 1016,0 hPa 0,0 mm 9,3 km/h (2 Bft) W 281 0 min 0,000 mm 0,0 UV-I 39 W/m 10,4 C 12,9 km/h (3 Bft)
05.08.2016 11:39 11,3 C 11,3 C 94 % 1016,1 hPa 0,2 mm 14,3 km/h (3 Bft) W 268 0 min 0,000 mm 0,0 UV-I 39 W/m 10,4 C 20,9 km/h (4 Bft)
05.08.2016 11:40 11,3 C 11,3 C 94 % 1016,1 hPa 0,0 mm 13,0 km/h (3 Bft) W-SW 250 0 min 0,000 mm 0,0 UV-I 39 W/m 10,4 C 17,7 km/h (3 Bft)
05.08.2016 11:41 11,3 C 11,3 C 94 % 1016,1 hPa 0,0 mm 14,1 km/h (3 Bft) W-NW 282 0 min 0,000 mm 0,0 UV-I 40 W/m 10,4 C 24,1 km/h (4 Bft)
05.08.2016 11:42 11,3 C 11,3 C 93 % 1016,2 hPa 0,2 mm 10,6 km/h (2 Bft) W 281 0 min 0,000 mm 0,0 UV-I 40 W/m 10,2 C 16,1 km/h (3 Bft)
05.08.2016 11:43 11,3 C 11,3 C 94 % 1016,2 hPa 0,0 mm 7,6 km/h (2 Bft) W-NW 283 0 min 0,000 mm 0,0 UV-I 40 W/m 10,4 C 12,9 km/h (3 Bft)
05.08.2016 11:44 11,3 C 11,3 C 94 % 1016,2 hPa 0,2 mm 10,3 km/h (2 Bft) W-SW 246 0 min 0,000 mm 0,0 UV-I 40 W/m 10,4 C 16,1 km/h (3 Bft)
05.08.2016 11:45 11,3 C 11,3 C 94 % 1016,3 hPa 0,0 mm 14,1 km/h (3 Bft) W-SW 252 0 min 0,000 mm 0,0 UV-I 42 W/m 10,4 C 17,7 km/h (3 Bft)
05.08.2016 11:46 11,3 C 11,3 C 93 % 1016,3 hPa 0,0 mm 12,6 km/h (3 Bft) W 273 0 min 0,000 mm 0,0 UV-I 44 W/m 10,2 C 16,1 km/h (3 Bft)
05.08.2016 11:47 11,3 C 11,3 C 93 % 1016,3 hPa 0,0 mm 6,4 km/h (2 Bft) W 263 0 min 0,000 mm 0,0 UV-I 44 W/m 10,2 C 9,7 km/h (2 Bft)
05.08.2016 11:48 11,3 C 11,3 C 94 % 1016,4 hPa 0,2 mm 7,6 km/h (2 Bft) W-SW 248 0 min 0,000 mm 0,0 UV-I 42 W/m 10,4 C 11,3 km/h (2 Bft)
05.08.2016 11:49 11,3 C 11,3 C 94 % 1016,4 hPa 0,0 mm 12,8 km/h (3 Bft) W-NW 293 0 min 0,000 mm 0,0 UV-I 44 W/m 10,4 C 16,1 km/h (3 Bft)
05.08.2016 11:50 11,3 C 11,3 C 94 % 1016,4 hPa 0,0 mm 6,0 km/h (2 Bft) W 280 0 min 0,000 mm 0,0 UV-I 44 W/m 10,4 C 9,7 km/h (2 Bft)
05.08.2016 11:51 11,3 C 11,3 C 94 % 1016,4 hPa 0,2 mm 4,0 km/h (1 Bft) SW 232 0 min 0,000 mm 0,0 UV-I 47 W/m 10,4 C 6,4 km/h (2 Bft)
05.08.2016 11:52 11,3 C 11,3 C 94 % 1016,4 hPa 0,0 mm 3,4 km/h (1 Bft) W 263 0 min 0,000 mm 0,0 UV-I 46 W/m 10,4 C 4,8 km/h (1 Bft)
05.08.2016 11:53 11,3 C 11,3 C 94 % 1016,4 hPa 0,0 mm 5,3 km/h (1 Bft) W 278 0 min 0,000 mm 0,0 UV-I 40 W/m 10,4 C 11,3 km/h (2 Bft)
05.08.2016 11:54 11,3 C 11,3 C 94 % 1016,4 hPa 0,2 mm 5,0 km/h (1 Bft) W-NW 298 0 min 0,000 mm 0,0 UV-I 37 W/m 10,4 C 11,3 km/h (2 Bft)
05.08.2016 11:55 11,3 C 11,3 C 94 % 1016,4 hPa 0,0 mm 5,7 km/h (1 Bft) W-NW 285 0 min 0,000 mm 0,0 UV-I 35 W/m 10,4 C 9,7 km/h (2 Bft)
05.08.2016 11:56 11,3 C 11,3 C 94 % 1016,5 hPa 0,0 mm 4,8 km/h (1 Bft) W 281 0 min 0,000 mm 0,0 UV-I 33 W/m 10,4 C 6,4 km/h (2 Bft)
05.08.2016 11:57 11,3 C 11,3 C 94 % 1016,5 hPa 0,2 mm 3,2 km/h (1 Bft) W 267 0 min 0,000 mm 0,0 UV-I 35 W/m 10,4 C 4,8 km/h (1 Bft)
05.08.2016 11:58 11,3 C 11,3 C 94 % 1016,6 hPa 0,0 mm 2,5 km/h (1 Bft) SW 236 0 min 0,000 mm 0,0 UV-I 42 W/m 10,4 C 3,2 km/h (1 Bft)
05.08.2016 11:59 11,3 C 11,3 C 94 % 1016,6 hPa 0,2 mm 4,8 km/h (1 Bft) W-SW 258 0 min 0,000 mm 0,0 UV-I 46 W/m 10,4 C 6,4 km/h (2 Bft)
05.08.2016 12:00 11,3 C 11,3 C 94 % 1016,6 hPa 0,0 mm 3,6 km/h (1 Bft) W-NW 287 0 min 0,026 mm 0,0 UV-I 44 W/m 10,4 C 6,4 km/h (2 Bft)
05.08.2016 12:01 11,3 C 11,3 C 94 % 1016,6 hPa 0,2 mm 6,4 km/h (2 Bft) W-SW 248 0 min 0,000 mm 0,0 UV-I 44 W/m 10,4 C 9,7 km/h (2 Bft)
05.08.2016 12:02 11,3 C 11,3 C 94 % 1016,6 hPa 0,0 mm 5,4 km/h (1 Bft) W 266 0 min 0,000 mm 0,0 UV-I 51 W/m 10,4 C 11,3 km/h (2 Bft)
05.08.2016 12:03 11,3 C 11,3 C 94 % 1016,6 hPa 0,0 mm 7,3 km/h (2 Bft) W-SW 242 0 min 0,000 mm 0,6 UV-I 56 W/m 10,4 C 12,9 km/h (3 Bft)
05.08.2016 12:04 11,3 C 11,3 C 94 % 1016,6 hPa 0,2 mm 11,0 km/h (2 Bft) W-SW 258 0 min 0,000 mm 0,6 UV-I 58 W/m 10,4 C 16,1 km/h (3 Bft)
05.08.2016 12:05 11,3 C 11,3 C 95 % 1016,7 hPa 0,0 mm 7,1 km/h (2 Bft) NW 311 0 min 0,000 mm 0,6 UV-I 60 W/m 10,5 C 9,7 km/h (2 Bft)
05.08.2016 12:06 11,3 C 11,3 C 94 % 1016,6 hPa 0,0 mm 5,0 km/h (1 Bft) W 259 0 min 0,000 mm 0,5 UV-I 56 W/m 10,4 C 9,7 km/h (2 Bft)
05.08.2016 12:07 11,3 C 11,3 C 95 % 1016,6 hPa 0,2 mm 4,4 km/h (1 Bft) W-SW 242 0 min 0,000 mm 0,6 UV-I 58 W/m 10,5 C 9,7 km/h (2 Bft)
05.08.2016 12:08 11,3 C 11,3 C 94 % 1016,7 hPa 0,0 mm 10,7 km/h (2 Bft) W 277 0 min 0,000 mm 0,7 UV-I 65 W/m 10,4 C 12,9 km/h (3 Bft)
05.08.2016 12:09 11,3 C 11,3 C 94 % 1016,7 hPa 0,0 mm 9,1 km/h (2 Bft) W-SW 238 0 min 0,000 mm 0,6 UV-I 62 W/m 10,4 C 11,3 km/h (2 Bft)
05.08.2016 12:10 11,3 C 11,3 C 95 % 1016,7 hPa 0,2 mm 4,5 km/h (1 Bft) W 280 0 min 0,000 mm 0,6 UV-I 62 W/m 10,5 C 9,7 km/h (2 Bft)
05.08.2016 12:11 11,3 C 11,4 C 95 % 1016,7 hPa 0,0 mm 5,9 km/h (2 Bft) W-SW 246 0 min 0,000 mm 0,0 UV-I 54 W/m 10,5 C 9,7 km/h (2 Bft)
05.08.2016 12:12 11,3 C 11,3 C 94 % 1016,7 hPa 0,0 mm 6,2 km/h (2 Bft) W 275 0 min 0,000 mm 0,0 UV-I 51 W/m 10,4 C 14,5 km/h (3 Bft)
05.08.2016 12:13 11,3 C 11,3 C 94 % 1016,7 hPa 0,2 mm 6,8 km/h (2 Bft) W 274 0 min 0,000 mm 0,0 UV-I 51 W/m 10,4 C 11,3 km/h (2 Bft)
05.08.2016 12:14 11,3 C 11,3 C 94 % 1016,8 hPa 0,0 mm 7,0 km/h (2 Bft) W-NW 288 0 min 0,000 mm 0,0 UV-I 53 W/m 10,4 C 11,3 km/h (2 Bft)
05.08.2016 12:15 11,3 C 11,3 C 94 % 1016,8 hPa 0,2 mm 3,9 km/h (1 Bft) W-NW 296 0 min 0,000 mm 0,0 UV-I 54 W/m 10,4 C 11,3 km/h (2 Bft)
05.08.2016 12:16 11,3 C 11,3 C 94 % 1016,8 hPa 0,0 mm 4,5 km/h (1 Bft) W 272 0 min 0,000 mm 0,6 UV-I 60 W/m 10,4 C 6,4 km/h (2 Bft)
05.08.2016 12:17 11,3 C 11,3 C 94 % 1016,8 hPa 0,0 mm 8,4 km/h (2 Bft) W-NW 286 0 min 0,000 mm 0,7 UV-I 65 W/m 10,4 C 14,5 km/h (3 Bft)
05.08.2016 12:18 11,3 C 11,3 C 94 % 1016,9 hPa 0,2 mm 3,1 km/h (1 Bft) W-NW 301 0 min 0,000 mm 0,7 UV-I 69 W/m 10,4 C 6,4 km/h (2 Bft)
05.08.2016 12:19 11,3 C 11,3 C 94 % 1016,9 hPa 0,0 mm 3,6 km/h (1 Bft) W-NW 288 0 min 0,000 mm 0,7 UV-I 67 W/m 10,4 C 4,8 km/h (1 Bft)
05.08.2016 12:20 11,3 C 11,3 C 95 % 1016,9 hPa 0,2 mm 4,2 km/h (1 Bft) W-NW 284 0 min 0,000 mm 0,6 UV-I 65 W/m 10,5 C 4,8 km/h (1 Bft)
05.08.2016 12:21 11,3 C 11,3 C 95 % 1016,9 hPa 0,0 mm 3,0 km/h (1 Bft) W 281 0 min 0,000 mm 0,6 UV-I 60 W/m 10,5 C 3,2 km/h (1 Bft)
05.08.2016 12:22 11,3 C 11,3 C 94 % 1016,9 hPa 0,2 mm 5,4 km/h (1 Bft) W 263 0 min 0,000 mm 0,6 UV-I 62 W/m 10,4 C 6,4 km/h (2 Bft)
05.08.2016 12:23 11,3 C 11,3 C 94 % 1016,9 hPa 0,0 mm 6,0 km/h (2 Bft) W-NW 285 0 min 0,000 mm 0,6 UV-I 62 W/m 10,4 C 9,7 km/h (2 Bft)
05.08.2016 12:24 11,3 C 11,3 C 94 % 1016,9 hPa 0,0 mm 5,2 km/h (1 Bft) W 274 0 min 0,000 mm 0,6 UV-I 62 W/m 10,4 C 6,4 km/h (2 Bft)
05.08.2016 12:25 11,3 C 11,3 C 94 % 1016,9 hPa 0,2 mm 5,7 km/h (1 Bft) W 265 0 min 0,000 mm 0,6 UV-I 62 W/m 10,4 C 9,7 km/h (2 Bft)
05.08.2016 12:26 11,3 C 11,3 C 94 % 1017,0 hPa 0,0 mm 4,7 km/h (1 Bft) W-NW 287 0 min 0,000 mm 0,6 UV-I 63 W/m 10,4 C 6,4 km/h (2 Bft)
05.08.2016 12:27 11,3 C 11,3 C 94 % 1017,0 hPa 0,2 mm 2,4 km/h (1 Bft) W-NW 287 0 min 0,000 mm 0,6 UV-I 65 W/m 10,4 C 3,2 km/h (1 Bft)
05.08.2016 12:29 11,3 C 11,3 C 95 % 1017,1 hPa 0,0 mm 3,8 km/h (1 Bft) W 263 0 min 0,000 mm 0,6 UV-I 60 W/m 10,5 C 6,4 km/h (2 Bft)
05.08.2016 12:30 11,3 C 11,3 C 95 % 1017,1 hPa 0,0 mm 4,6 km/h (1 Bft) W 264 0 min 0,000 mm 0,6 UV-I 58 W/m 10,5 C 6,4 km/h (2 Bft)
05.08.2016 12:31 11,3 C 11,4 C 95 % 1017,1 hPa 0,2 mm 7,9 km/h (2 Bft) W 262 0 min 0,000 mm 0,6 UV-I 62 W/m 10,5 C 11,3 km/h (2 Bft)
05.08.2016 12:32 11,4 C 11,4 C 95 % 1017,2 hPa 0,0 mm 6,2 km/h (2 Bft) W-SW 240 0 min 0,000 mm 0,7 UV-I 69 W/m 10,6 C 12,9 km/h (3 Bft)
05.08.2016 12:33 11,4 C 11,4 C 95 % 1017,2 hPa 0,0 mm 3,7 km/h (1 Bft) W-SW 257 0 min 0,000 mm 0,7 UV-I 76 W/m 10,6 C 6,4 km/h (2 Bft)
05.08.2016 12:34 11,4 C 11,4 C 95 % 1017,1 hPa 0,0 mm 4,2 km/h (1 Bft) W-SW 250 0 min 0,000 mm 0,8 UV-I 81 W/m 10,6 C 4,8 km/h (1 Bft)
05.08.2016 12:35 11,4 C 11,4 C 95 % 1017,2 hPa 0,2 mm 2,7 km/h (1 Bft) W-SW 252 0 min 0,000 mm 0,8 UV-I 84 W/m 10,6 C 4,8 km/h (1 Bft)
05.08.2016 12:36 11,4 C 11,4 C 95 % 1017,2 hPa 0,0 mm 5,3 km/h (1 Bft) W 267 0 min 0,000 mm 0,8 UV-I 86 W/m 10,6 C 6,4 km/h (2 Bft)
05.08.2016 12:37 11,4 C 11,4 C 95 % 1017,2 hPa 0,0 mm 3,4 km/h (1 Bft) W-SW 251 0 min 0,000 mm 0,8 UV-I 90 W/m 10,6 C 4,8 km/h (1 Bft)
05.08.2016 12:38 11,4 C 11,4 C 95 % 1017,2 hPa 0,2 mm 3,5 km/h (1 Bft) W-SW 240 0 min 0,000 mm 0,9 UV-I 90 W/m 10,6 C 9,7 km/h (2 Bft)
05.08.2016 12:39 11,4 C 11,4 C 95 % 1017,2 hPa 0,0 mm 2,7 km/h (1 Bft) W-SW 246 0 min 0,000 mm 0,9 UV-I 95 W/m 10,6 C 4,8 km/h (1 Bft)
05.08.2016 12:40 11,4 C 11,4 C 95 % 1017,2 hPa 0,0 mm 5,7 km/h (1 Bft) W-SW 237 0 min 0,000 mm 0,9 UV-I 97 W/m 10,6 C 9,7 km/h (2 Bft)
05.08.2016 12:41 11,4 C 11,4 C 95 % 1017,2 hPa 0,0 mm 3,9 km/h (1 Bft) W-SW 256 0 min 0,000 mm 0,9 UV-I 98 W/m 10,6 C 6,4 km/h (2 Bft)
05.08.2016 12:42 11,4 C 11,4 C 95 % 1017,2 hPa 0,2 mm 6,0 km/h (2 Bft) W-SW 246 0 min 0,000 mm 0,9 UV-I 98 W/m 10,6 C 9,7 km/h (2 Bft)
05.08.2016 12:43 11,4 C 11,5 C 95 % 1017,2 hPa 0,0 mm 6,6 km/h (2 Bft) W-SW 255 0 min 0,000 mm 0,9 UV-I 98 W/m 10,6 C 11,3 km/h (2 Bft)
05.08.2016 12:44 11,5 C 11,5 C 95 % 1017,2 hPa 0,0 mm 3,9 km/h (1 Bft) W 267 0 min 0,000 mm 0,9 UV-I 95 W/m 10,7 C 6,4 km/h (2 Bft)
05.08.2016 12:45 11,5 C 11,5 C 95 % 1017,2 hPa 0,0 mm 5,2 km/h (1 Bft) W 274 0 min 0,000 mm 0,9 UV-I 98 W/m 10,7 C 8,0 km/h (2 Bft)
05.08.2016 12:46 11,6 C 11,6 C 95 % 1017,3 hPa 0,2 mm 5,7 km/h (1 Bft) W 261 0 min 0,000 mm 1,0 UV-I 102 W/m 10,8 C 9,7 km/h (2 Bft)
05.08.2016 12:47 11,6 C 11,6 C 95 % 1017,3 hPa 0,0 mm 6,4 km/h (2 Bft) W-SW 248 0 min 0,000 mm 1,0 UV-I 105 W/m 10,8 C 11,3 km/h (2 Bft)
05.08.2016 12:48 11,5 C 11,6 C 94 % 1017,3 hPa 0,0 mm 6,8 km/h (2 Bft) W 263 0 min 0,000 mm 1,0 UV-I 109 W/m 10,6 C 11,3 km/h (2 Bft)
05.08.2016 12:49 11,6 C 11,6 C 94 % 1017,3 hPa 0,2 mm 7,4 km/h (2 Bft) W 259 0 min 0,000 mm 1,0 UV-I 109 W/m 10,7 C 11,3 km/h (2 Bft)
05.08.2016 12:50 11,6 C 11,6 C 94 % 1017,3 hPa 0,0 mm 6,4 km/h (2 Bft) S-SW 210 0 min 0,000 mm 1,0 UV-I 111 W/m 10,7 C 11,3 km/h (2 Bft)
05.08.2016 12:51 11,6 C 11,6 C 94 % 1017,3 hPa 0,0 mm 2,0 km/h (1 Bft) S-SW 210 0 min 0,000 mm 1,1 UV-I 111 W/m 10,7 C 3,2 km/h (1 Bft)
05.08.2016 12:52 11,6 C 11,6 C 95 % 1017,3 hPa 0,2 mm 5,1 km/h (1 Bft) SW 221 0 min 0,000 mm 1,0 UV-I 109 W/m 10,8 C 8,0 km/h (2 Bft)
05.08.2016 12:53 11,6 C 11,6 C 95 % 1017,4 hPa 0,0 mm 6,2 km/h (2 Bft) W 267 0 min 0,000 mm 1,0 UV-I 104 W/m 10,8 C 11,3 km/h (2 Bft)
05.08.2016 12:54 11,6 C 11,6 C 94 % 1017,4 hPa 0,0 mm 8,3 km/h (2 Bft) W-SW 241 0 min 0,000 mm 1,0 UV-I 104 W/m 10,7 C 14,5 km/h (3 Bft)
05.08.2016 12:55 11,6 C 11,6 C 94 % 1017,4 hPa 0,2 mm 6,8 km/h (2 Bft) S-SW 202 0 min 0,000 mm 1,0 UV-I 102 W/m 10,7 C 12,9 km/h (3 Bft)
05.08.2016 12:56 11,6 C 11,6 C 94 % 1017,4 hPa 0,0 mm 7,6 km/h (2 Bft) W-NW 291 0 min 0,000 mm 0,9 UV-I 98 W/m 10,7 C 12,9 km/h (3 Bft)
05.08.2016 12:57 11,6 C 11,6 C 94 % 1017,4 hPa 0,0 mm 8,3 km/h (2 Bft) SW 234 0 min 0,000 mm 0,9 UV-I 98 W/m 10,7 C 12,9 km/h (3 Bft)
05.08.2016 12:58 11,6 C 11,6 C 94 % 1017,4 hPa 0,0 mm 5,6 km/h (1 Bft) W 275 0 min 0,000 mm 1,0 UV-I 104 W/m 10,7 C 9,7 km/h (2 Bft)
05.08.2016 12:59 11,6 C 11,6 C 94 % 1017,4 hPa 0,0 mm 4,1 km/h (1 Bft) W-SW 246 0 min 0,000 mm 1,0 UV-I 109 W/m 10,7 C 6,4 km/h (2 Bft)
05.08.2016 13:00 11,6 C 11,6 C 94 % 1017,4 hPa 0,2 mm 6,9 km/h (2 Bft) W-SW 254 0 min 0,000 mm 1,0 UV-I 105 W/m 10,7 C 11,3 km/h (2 Bft)
05.08.2016 13:01 11,6 C 11,6 C 94 % 1017,3 hPa 0,0 mm 5,6 km/h (1 Bft) W-SW 258 0 min 0,050 mm 1,0 UV-I 105 W/m 10,7 C 11,3 km/h (2 Bft)
05.08.2016 13:02 11,5 C 11,6 C 94 % 1017,4 hPa 0,0 mm 5,1 km/h (1 Bft) SW 236 0 min 0,000 mm 0,9 UV-I 102 W/m 10,6 C 9,7 km/h (2 Bft)
05.08.2016 13:03 11,5 C 11,5 C 93 % 1017,4 hPa 0,0 mm 7,0 km/h (2 Bft) W-SW 237 0 min 0,000 mm 0,8 UV-I 83 W/m 10,4 C 12,9 km/h (3 Bft)
05.08.2016 13:04 11,5 C 11,5 C 93 % 1017,5 hPa 0,0 mm 8,6 km/h (2 Bft) W-NW 301 0 min 0,000 mm 0,7 UV-I 81 W/m 10,4 C 11,3 km/h (2 Bft)
05.08.2016 13:05 11,5 C 11,5 C 93 % 1017,5 hPa 0,0 mm 7,0 km/h (2 Bft) W 263 0 min 0,000 mm 0,8 UV-I 84 W/m 10,4 C 11,3 km/h (2 Bft)
05.08.2016 13:06 11,5 C 11,5 C 94 % 1017,5 hPa 0,2 mm 5,7 km/h (1 Bft) W-SW 248 0 min 0,000 mm 0,9 UV-I 91 W/m 10,6 C 8,0 km/h (2 Bft)
05.08.2016 13:07 11,5 C 11,5 C 94 % 1017,5 hPa 0,0 mm 5,4 km/h (1 Bft) W-NW 297 0 min 0,000 mm 0,9 UV-I 98 W/m 10,6 C 8,0 km/h (2 Bft)
05.08.2016 13:08 11,4 C 11,5 C 94 % 1017,5 hPa 0,0 mm 4,6 km/h (1 Bft) W 262 0 min 0,000 mm 1,0 UV-I 120 W/m 10,5 C 8,0 km/h (2 Bft)
05.08.2016 13:09 11,5 C 11,5 C 94 % 1017,5 hPa 0,0 mm 10,3 km/h (2 Bft) W 263 0 min 0,000 mm 1,1 UV-I 130 W/m 10,6 C 12,9 km/h (3 Bft)
05.08.2016 13:10 11,5 C 11,6 C 94 % 1017,4 hPa 0,0 mm 7,8 km/h (2 Bft) SW 221 0 min 0,000 mm 1,3 UV-I 139 W/m 10,6 C 12,9 km/h (3 Bft)
05.08.2016 13:11 11,6 C 11,6 C 94 % 1017,4 hPa 0,0 mm 6,0 km/h (2 Bft) W-NW 287 0 min 0,000 mm 1,3 UV-I 144 W/m 10,7 C 12,9 km/h (3 Bft)
05.08.2016 13:12 11,6 C 11,6 C 94 % 1017,4 hPa 0,0 mm 9,0 km/h (2 Bft) W-SW 242 0 min 0,000 mm 1,3 UV-I 146 W/m 10,7 C 11,3 km/h (2 Bft)
05.08.2016 13:13 11,6 C 11,6 C 94 % 1017,4 hPa 0,0 mm 6,0 km/h (2 Bft) W-NW 288 0 min 0,000 mm 1,3 UV-I 148 W/m 10,7 C 12,9 km/h (3 Bft)
05.08.2016 13:14 11,6 C 11,6 C 94 % 1017,4 hPa 0,2 mm 10,1 km/h (2 Bft) SW 234 0 min 0,000 mm 1,3 UV-I 137 W/m 10,7 C 14,5 km/h (3 Bft)
05.08.2016 13:15 11,7 C 11,7 C 94 % 1017,5 hPa 0,0 mm 4,9 km/h (1 Bft) W 261 0 min 0,000 mm 1,2 UV-I 132 W/m 10,8 C 9,7 km/h (2 Bft)
05.08.2016 13:16 11,7 C 11,7 C 94 % 1017,6 hPa 0,0 mm 5,0 km/h (1 Bft) SW 222 0 min 0,000 mm 1,2 UV-I 127 W/m 10,8 C 9,7 km/h (2 Bft)
05.08.2016 13:17 11,7 C 11,7 C 95 % 1017,6 hPa 0,0 mm 6,0 km/h (2 Bft) SW 234 0 min 0,000 mm 1,1 UV-I 121 W/m 10,9 C 11,3 km/h (2 Bft)
05.08.2016 13:18 11,7 C 11,7 C 94 % 1017,6 hPa 0,0 mm 6,4 km/h (2 Bft) SW 232 0 min 0,000 mm 1,1 UV-I 120 W/m 10,8 C 8,0 km/h (2 Bft)
05.08.2016 13:19 11,7 C 11,7 C 94 % 1017,7 hPa 0,0 mm 7,8 km/h (2 Bft) W-SW 257 0 min 0,000 mm 1,1 UV-I 116 W/m 10,8 C 12,9 km/h (3 Bft)
05.08.2016 13:20 11,7 C 11,7 C 94 % 1017,7 hPa 0,0 mm 11,2 km/h (2 Bft) W-SW 243 0 min 0,000 mm 1,1 UV-I 111 W/m 10,8 C 16,1 km/h (3 Bft)
05.08.2016 13:21 11,8 C 11,8 C 94 % 1017,7 hPa 0,0 mm 7,6 km/h (2 Bft) W-SW 254 0 min 0,000 mm 1,0 UV-I 109 W/m 10,9 C 12,9 km/h (3 Bft)
05.08.2016 13:22 11,7 C 11,8 C 93 % 1017,7 hPa 0,0 mm 7,1 km/h (2 Bft) SW 214 0 min 0,000 mm 1,0 UV-I 109 W/m 10,6 C 12,9 km/h (3 Bft)
05.08.2016 13:23 11,7 C 11,7 C 93 % 1017,7 hPa 0,0 mm 9,5 km/h (2 Bft) W 267 0 min 0,000 mm 1,0 UV-I 109 W/m 10,6 C 12,9 km/h (3 Bft)
05.08.2016 13:24 11,7 C 11,7 C 93 % 1017,7 hPa 0,0 mm 7,7 km/h (2 Bft) W 263 0 min 0,000 mm 1,0 UV-I 109 W/m 10,6 C 11,3 km/h (2 Bft)
05.08.2016 13:25 11,7 C 11,7 C 93 % 1017,7 hPa 0,2 mm 2,8 km/h (1 Bft) SW 223 0 min 0,000 mm 1,0 UV-I 107 W/m 10,6 C 6,4 km/h (2 Bft)
05.08.2016 13:26 11,7 C 11,7 C 93 % 1017,8 hPa 0,0 mm 4,0 km/h (1 Bft) S-SW 198 0 min 0,000 mm 1,0 UV-I 105 W/m 10,6 C 6,4 km/h (2 Bft)
05.08.2016 13:27 11,7 C 11,7 C 94 % 1017,8 hPa 0,0 mm 3,1 km/h (1 Bft) W-SW 257 0 min 0,000 mm 1,0 UV-I 104 W/m 10,8 C 4,8 km/h (1 Bft)
05.08.2016 13:28 11,7 C 11,7 C 94 % 1017,8 hPa 0,0 mm 4,4 km/h (1 Bft) SW 216 0 min 0,000 mm 1,0 UV-I 104 W/m 10,8 C 8,0 km/h (2 Bft)
05.08.2016 13:29 11,7 C 11,7 C 94 % 1017,9 hPa 0,0 mm 2,5 km/h (1 Bft) W-SW 254 0 min 0,000 mm 1,0 UV-I 104 W/m 10,8 C 3,2 km/h (1 Bft)
05.08.2016 13:30 11,7 C 11,7 C 93 % 1017,9 hPa 0,0 mm 3,6 km/h (1 Bft) W-SW 240 0 min 0,000 mm 1,0 UV-I 105 W/m 10,6 C 6,4 km/h (2 Bft)
05.08.2016 13:31 11,7 C 11,7 C 93 % 1017,8 hPa 0,0 mm 3,3 km/h (1 Bft) W-SW 239 0 min 0,000 mm 1,0 UV-I 105 W/m 10,6 C 6,4 km/h (2 Bft)
05.08.2016 13:32 11,6 C 11,7 C 93 % 1017,9 hPa 0,0 mm 4,7 km/h (1 Bft) W 273 0 min 0,000 mm 1,0 UV-I 104 W/m 10,5 C 9,7 km/h (2 Bft)
05.08.2016 13:33 11,7 C 11,7 C 93 % 1017,9 hPa 0,0 mm 6,6 km/h (2 Bft) W-SW 249 0 min 0,000 mm 1,0 UV-I 100 W/m 10,6 C 9,7 km/h (2 Bft)
05.08.2016 13:34 11,7 C 11,7 C 94 % 1017,9 hPa 0,2 mm 3,4 km/h (1 Bft) SW 221 0 min 0,000 mm 0,9 UV-I 97 W/m 10,8 C 4,8 km/h (1 Bft)
05.08.2016 13:35 11,7 C 11,7 C 93 % 1017,9 hPa 0,0 mm 1,1 km/h (1 Bft) S-SW 210 0 min 0,000 mm 0,9 UV-I 95 W/m 10,6 C 3,2 km/h (1 Bft)
05.08.2016 13:36 11,7 C 11,7 C 94 % 1017,9 hPa 0,0 mm 5,5 km/h (1 Bft) W-NW 290 0 min 0,000 mm 0,8 UV-I 90 W/m 10,8 C 8,0 km/h (2 Bft)
05.08.2016 13:37 11,7 C 11,7 C 94 % 1017,9 hPa 0,0 mm 2,7 km/h (1 Bft) W-SW 238 0 min 0,000 mm 0,8 UV-I 83 W/m 10,8 C 4,8 km/h (1 Bft)
05.08.2016 13:38 11,7 C 11,7 C 94 % 1017,9 hPa 0,0 mm 2,8 km/h (1 Bft) W-SW 257 0 min 0,000 mm 0,8 UV-I 81 W/m 10,8 C 4,8 km/h (1 Bft)
05.08.2016 13:39 11,7 C 11,7 C 94 % 1018,0 hPa 0,0 mm 6,6 km/h (2 Bft) W-SW 250 0 min 0,000 mm 0,8 UV-I 83 W/m 10,8 C 11,3 km/h (2 Bft)
05.08.2016 13:40 11,7 C 11,7 C 94 % 1018,0 hPa 0,2 mm 3,8 km/h (1 Bft) W-SW 249 0 min 0,000 mm 0,8 UV-I 81 W/m 10,8 C 6,4 km/h (2 Bft)
05.08.2016 13:41 11,7 C 11,7 C 94 % 1018,0 hPa 0,0 mm 2,7 km/h (1 Bft) W-SW 242 0 min 0,000 mm 0,8 UV-I 81 W/m 10,8 C 8,0 km/h (2 Bft)
05.08.2016 13:42 11,7 C 11,7 C 94 % 1018,2 hPa 0,0 mm 5,7 km/h (1 Bft) SW 235 0 min 0,000 mm 0,8 UV-I 81 W/m 10,8 C 9,7 km/h (2 Bft)
05.08.2016 13:43 11,6 C 11,7 C 93 % 1018,2 hPa 0,0 mm 3,8 km/h (1 Bft) W-SW 250 0 min 0,000 mm 0,8 UV-I 81 W/m 10,5 C 8,0 km/h (2 Bft)
05.08.2016 13:44 11,7 C 11,7 C 94 % 1018,2 hPa 0,0 mm 4,5 km/h (1 Bft) S 180 0 min 0,000 mm 0,8 UV-I 81 W/m 10,8 C 11,3 km/h (2 Bft)
05.08.2016 13:45 11,6 C 11,7 C 93 % 1018,2 hPa 0,2 mm 4,6 km/h (1 Bft) S 176 0 min 0,000 mm 0,8 UV-I 83 W/m 10,5 C 6,4 km/h (2 Bft)
05.08.2016 13:46 11,6 C 11,6 C 94 % 1018,2 hPa 0,0 mm 4,3 km/h (1 Bft) SW 235 0 min 0,000 mm 0,8 UV-I 84 W/m 10,7 C 6,4 km/h (2 Bft)
05.08.2016 13:47 11,6 C 11,6 C 94 % 1018,2 hPa 0,0 mm 4,0 km/h (1 Bft) W 263 0 min 0,000 mm 0,8 UV-I 84 W/m 10,7 C 6,4 km/h (2 Bft)
05.08.2016 13:48 11,6 C 11,6 C 94 % 1018,2 hPa 0,0 mm 3,4 km/h (1 Bft) S 188 0 min 0,000 mm 0,8 UV-I 84 W/m 10,7 C 6,4 km/h (2 Bft)
05.08.2016 13:49 11,6 C 11,6 C 94 % 1018,3 hPa 0,2 mm 10,5 km/h (2 Bft) W-SW 248 0 min 0,000 mm 0,8 UV-I 83 W/m 10,7 C 16,1 km/h (3 Bft)
05.08.2016 13:50 11,6 C 11,6 C 93 % 1018,2 hPa 0,0 mm 9,9 km/h (2 Bft) W-SW 252 0 min 0,000 mm 0,8 UV-I 83 W/m 10,5 C 14,5 km/h (3 Bft)
05.08.2016 13:51 11,6 C 11,6 C 93 % 1018,3 hPa 0,0 mm 8,0 km/h (2 Bft) NW 311 0 min 0,000 mm 0,8 UV-I 83 W/m 10,5 C 12,9 km/h (3 Bft)
05.08.2016 13:52 11,6 C 11,6 C 93 % 1018,3 hPa 0,0 mm 3,6 km/h (1 Bft) W 271 0 min 0,000 mm 0,8 UV-I 83 W/m 10,5 C 4,8 km/h (1 Bft)
05.08.2016 13:53 11,6 C 11,6 C 94 % 1018,3 hPa 0,2 mm 4,6 km/h (1 Bft) W 262 0 min 0,000 mm 0,8 UV-I 81 W/m 10,7 C 9,7 km/h (2 Bft)
05.08.2016 13:54 11,6 C 11,6 C 94 % 1018,3 hPa 0,0 mm 5,2 km/h (1 Bft) SW 223 0 min 0,000 mm 0,8 UV-I 79 W/m 10,7 C 6,4 km/h (2 Bft)
05.08.2016 13:55 11,7 C 11,7 C 94 % 1018,3 hPa 0,0 mm 3,4 km/h (1 Bft) W-NW 285 0 min 0,000 mm 0,8 UV-I 79 W/m 10,8 C 6,4 km/h (2 Bft)
05.08.2016 13:56 11,6 C 11,7 C 94 % 1018,4 hPa 0,0 mm 6,8 km/h (2 Bft) W 263 0 min 0,000 mm 0,8 UV-I 79 W/m 10,7 C 11,3 km/h (2 Bft)
05.08.2016 13:57 11,6 C 11,7 C 93 % 1018,3 hPa 0,2 mm 5,8 km/h (2 Bft) W-SW 255 0 min 0,000 mm 0,8 UV-I 79 W/m 10,5 C 11,3 km/h (2 Bft)
05.08.2016 13:58 11,6 C 11,6 C 94 % 1018,3 hPa 0,0 mm 6,0 km/h (2 Bft) W-SW 252 0 min 0,000 mm 0,7 UV-I 79 W/m 10,7 C 8,0 km/h (2 Bft)
05.08.2016 13:59 11,6 C 11,7 C 94 % 1018,3 hPa 0,0 mm 3,4 km/h (1 Bft) W-SW 251 0 min 0,000 mm 0,8 UV-I 81 W/m 10,7 C 6,4 km/h (2 Bft)
05.08.2016 14:00 11,7 C 11,7 C 94 % 1018,4 hPa 0,0 mm 2,9 km/h (1 Bft) SW 222 0 min 0,051 mm 0,8 UV-I 83 W/m 10,8 C 4,8 km/h (1 Bft)
05.08.2016 14:01 11,6 C 11,7 C 94 % 1018,4 hPa 0,2 mm 6,0 km/h (2 Bft) W-SW 252 0 min 0,000 mm 0,8 UV-I 88 W/m 10,7 C 11,3 km/h (2 Bft)
05.08.2016 14:02 11,6 C 11,6 C 94 % 1018,4 hPa 0,0 mm 5,2 km/h (1 Bft) W-SW 258 0 min 0,000 mm 0,8 UV-I 90 W/m 10,7 C 8,0 km/h (2 Bft)
05.08.2016 14:03 11,7 C 11,7 C 94 % 1018,4 hPa 0,0 mm 4,2 km/h (1 Bft) W 259 0 min 0,000 mm 0,8 UV-I 90 W/m 10,8 C 6,4 km/h (2 Bft)
05.08.2016 14:04 11,7 C 11,7 C 94 % 1018,5 hPa 0,2 mm 3,9 km/h (1 Bft) W 264 0 min 0,000 mm 0,8 UV-I 90 W/m 10,8 C 6,4 km/h (2 Bft)
05.08.2016 14:05 11,6 C 11,7 C 94 % 1018,5 hPa 0,0 mm 3,3 km/h (1 Bft) W 263 0 min 0,000 mm 0,8 UV-I 88 W/m 10,7 C 9,7 km/h (2 Bft)
05.08.2016 14:06 11,6 C 11,7 C 94 % 1018,6 hPa 0,0 mm 2,5 km/h (1 Bft) S 182 0 min 0,000 mm 0,8 UV-I 86 W/m 10,7 C 4,8 km/h (1 Bft)
05.08.2016 14:07 11,6 C 11,6 C 94 % 1018,5 hPa 0,0 mm 4,7 km/h (1 Bft) S-SW 204 0 min 0,000 mm 0,8 UV-I 83 W/m 10,7 C 8,0 km/h (2 Bft)
05.08.2016 14:08 11,6 C 11,6 C 94 % 1018,6 hPa 0,2 mm 3,2 km/h (1 Bft) S 183 0 min 0,000 mm 0,8 UV-I 81 W/m 10,7 C 4,8 km/h (1 Bft)
05.08.2016 14:09 11,6 C 11,6 C 94 % 1018,6 hPa 0,0 mm 4,2 km/h (1 Bft) S-SO 167 0 min 0,000 mm 0,7 UV-I 79 W/m 10,7 C 8,0 km/h (2 Bft)
05.08.2016 14:10 11,6 C 11,6 C 94 % 1018,6 hPa 0,0 mm 4,0 km/h (1 Bft) S 170 0 min 0,000 mm 0,7 UV-I 79 W/m 10,7 C 8,0 km/h (2 Bft)
05.08.2016 14:11 11,6 C 11,6 C 94 % 1018,6 hPa 0,0 mm 3,7 km/h (1 Bft) SW 221 0 min 0,000 mm 0,7 UV-I 79 W/m 10,7 C 6,4 km/h (2 Bft)
05.08.2016 14:12 11,6 C 11,6 C 94 % 1018,6 hPa 0,2 mm 3,0 km/h (1 Bft) SW 236 0 min 0,000 mm 0,7 UV-I 79 W/m 10,7 C 3,2 km/h (1 Bft)
05.08.2016 14:13 11,6 C 11,6 C 94 % 1018,6 hPa 0,0 mm 1,6 km/h (1 Bft) W 267 0 min 0,000 mm 0,7 UV-I 77 W/m 10,7 C 4,8 km/h (1 Bft)
05.08.2016 14:14 11,6 C 11,6 C 94 % 1018,6 hPa 0,0 mm 6,4 km/h (2 Bft) W-SW 242 0 min 0,000 mm 0,7 UV-I 77 W/m 10,7 C 9,7 km/h (2 Bft)
05.08.2016 14:15 11,6 C 11,6 C 94 % 1018,7 hPa 0,0 mm 1,7 km/h (1 Bft) SW 234 0 min 0,000 mm 0,7 UV-I 77 W/m 10,7 C 4,8 km/h (1 Bft)
05.08.2016 14:16 11,6 C 11,6 C 94 % 1018,6 hPa 0,0 mm 3,1 km/h (1 Bft) W-SW 249 0 min 0,000 mm 0,7 UV-I 79 W/m 10,7 C 4,8 km/h (1 Bft)
05.08.2016 14:17 11,7 C 11,7 C 94 % 1018,7 hPa 0,0 mm 3,2 km/h (1 Bft) SW 233 0 min 0,000 mm 0,7 UV-I 79 W/m 10,8 C 4,8 km/h (1 Bft)
05.08.2016 14:18 11,7 C 11,7 C 94 % 1018,7 hPa 0,2 mm 3,4 km/h (1 Bft) S-SW 195 0 min 0,000 mm 0,8 UV-I 83 W/m 10,8 C 6,4 km/h (2 Bft)
05.08.2016 14:19 11,6 C 11,7 C 94 % 1018,7 hPa 0,0 mm 4,6 km/h (1 Bft) S-SW 203 0 min 0,000 mm 0,8 UV-I 90 W/m 10,7 C 6,4 km/h (2 Bft)
05.08.2016 14:20 11,6 C 11,6 C 94 % 1018,8 hPa 0,0 mm 4,3 km/h (1 Bft) S 184 0 min 0,000 mm 0,8 UV-I 91 W/m 10,7 C 8,0 km/h (2 Bft)
05.08.2016 14:21 11,6 C 11,6 C 94 % 1018,8 hPa 0,0 mm 2,6 km/h (1 Bft) SW 232 0 min 0,000 mm 0,8 UV-I 90 W/m 10,7 C 4,8 km/h (1 Bft)
05.08.2016 14:22 11,6 C 11,7 C 94 % 1018,8 hPa 0,0 mm 3,8 km/h (1 Bft) W-NW 299 0 min 0,000 mm 0,8 UV-I 88 W/m 10,7 C 6,4 km/h (2 Bft)
05.08.2016 14:23 11,6 C 11,7 C 94 % 1018,8 hPa 0,0 mm 2,5 km/h (1 Bft) W-SW 243 0 min 0,000 mm 0,8 UV-I 86 W/m 10,7 C 4,8 km/h (1 Bft)
05.08.2016 14:24 11,7 C 11,7 C 94 % 1018,8 hPa 0,2 mm 5,6 km/h (1 Bft) SW 223 0 min 0,000 mm 0,8 UV-I 84 W/m 10,8 C 9,7 km/h (2 Bft)
05.08.2016 14:25 11,7 C 11,7 C 95 % 1018,8 hPa 0,0 mm 1,9 km/h (1 Bft) S-SW 210 0 min 0,000 mm 0,8 UV-I 81 W/m 10,9 C 3,2 km/h (1 Bft)
05.08.2016 14:26 11,7 C 11,7 C 94 % 1018,8 hPa 0,0 mm 2,0 km/h (1 Bft) S 175 0 min 0,000 mm 0,8 UV-I 81 W/m 10,8 C 3,2 km/h (1 Bft)
05.08.2016 14:27 11,7 C 11,7 C 94 % 1018,8 hPa 0,0 mm 1,9 km/h (1 Bft) S-SW 196 0 min 0,000 mm 0,8 UV-I 83 W/m 10,8 C 3,2 km/h (1 Bft)
05.08.2016 14:28 11,7 C 11,7 C 94 % 1018,9 hPa 0,0 mm 4,5 km/h (1 Bft) S-SW 205 0 min 0,000 mm 0,8 UV-I 84 W/m 10,8 C 8,0 km/h (2 Bft)
05.08.2016 14:29 11,7 C 11,7 C 94 % 1018,9 hPa 0,0 mm 3,2 km/h (1 Bft) SW 232 0 min 0,000 mm 0,8 UV-I 86 W/m 10,8 C 6,4 km/h (2 Bft)
05.08.2016 14:30 11,7 C 11,7 C 94 % 1018,9 hPa 0,0 mm 4,6 km/h (1 Bft) W-SW 246 0 min 0,000 mm 0,8 UV-I 86 W/m 10,8 C 8,0 km/h (2 Bft)
05.08.2016 14:31 11,7 C 11,7 C 94 % 1019,0 hPa 0,2 mm 3,1 km/h (1 Bft) SW 224 0 min 0,000 mm 0,8 UV-I 86 W/m 10,8 C 11,3 km/h (2 Bft)
05.08.2016 14:32 11,7 C 11,7 C 94 % 1019,0 hPa 0,0 mm 5,2 km/h (1 Bft) SW 226 0 min 0,000 mm 0,8 UV-I 88 W/m 10,8 C 8,0 km/h (2 Bft)
05.08.2016 14:33 11,7 C 11,7 C 94 % 1019,0 hPa 0,0 mm 3,2 km/h (1 Bft) S-SW 209 0 min 0,000 mm 0,8 UV-I 88 W/m 10,8 C 4,8 km/h (1 Bft)
05.08.2016 14:34 11,7 C 11,7 C 94 % 1018,9 hPa 0,0 mm 3,5 km/h (1 Bft) W-SW 256 0 min 0,000 mm 0,8 UV-I 86 W/m 10,8 C 4,8 km/h (1 Bft)
05.08.2016 14:35 11,7 C 11,7 C 94 % 1019,0 hPa 0,0 mm 2,5 km/h (1 Bft) SW 236 0 min 0,000 mm 0,8 UV-I 84 W/m 10,8 C 3,2 km/h (1 Bft)
05.08.2016 14:36 11,7 C 11,7 C 94 % 1019,0 hPa 0,0 mm 3,1 km/h (1 Bft) S 173 0 min 0,000 mm 0,8 UV-I 81 W/m 10,8 C 4,8 km/h (1 Bft)
05.08.2016 14:37 11,7 C 11,7 C 94 % 1019,0 hPa 0,0 mm 3,7 km/h (1 Bft) S 182 0 min 0,000 mm 0,8 UV-I 81 W/m 10,8 C 8,0 km/h (2 Bft)
05.08.2016 14:38 11,7 C 11,7 C 93 % 1019,0 hPa 0,2 mm 2,3 km/h (1 Bft) S-SW 194 0 min 0,000 mm 0,7 UV-I 79 W/m 10,6 C 4,8 km/h (1 Bft)
05.08.2016 14:39 11,7 C 11,7 C 94 % 1019,1 hPa 0,0 mm 3,0 km/h (1 Bft) S 175 0 min 0,000 mm 0,7 UV-I 79 W/m 10,8 C 4,8 km/h (1 Bft)
05.08.2016 14:40 11,7 C 11,7 C 93 % 1019,1 hPa 0,0 mm 4,3 km/h (1 Bft) S 187 0 min 0,000 mm 0,8 UV-I 79 W/m 10,6 C 8,0 km/h (2 Bft)
05.08.2016 14:41 11,7 C 11,7 C 93 % 1019,2 hPa 0,0 mm 3,0 km/h (1 Bft) S 187 0 min 0,000 mm 0,8 UV-I 81 W/m 10,6 C 6,4 km/h (2 Bft)
05.08.2016 14:42 11,7 C 11,7 C 93 % 1019,2 hPa 0,0 mm 3,0 km/h (1 Bft) S-SW 200 0 min 0,000 mm 0,8 UV-I 84 W/m 10,6 C 6,4 km/h (2 Bft)
05.08.2016 14:43 11,7 C 11,7 C 93 % 1019,3 hPa 0,0 mm 3,6 km/h (1 Bft) S 176 0 min 0,000 mm 0,8 UV-I 84 W/m 10,6 C 8,0 km/h (2 Bft)
05.08.2016 14:44 11,7 C 11,7 C 93 % 1019,3 hPa 0,0 mm 2,1 km/h (1 Bft) SW 215 0 min 0,000 mm 0,8 UV-I 84 W/m 10,6 C 4,8 km/h (1 Bft)
05.08.2016 14:45 11,7 C 11,7 C 93 % 1019,3 hPa 0,2 mm 0,8 km/h (0 Bft) SW 215 0 min 0,000 mm 0,8 UV-I 84 W/m 10,6 C 3,2 km/h (1 Bft)
05.08.2016 14:46 11,7 C 11,7 C 94 % 1019,3 hPa 0,0 mm 2,5 km/h (1 Bft) SW 217 0 min 0,000 mm 0,8 UV-I 84 W/m 10,8 C 6,4 km/h (2 Bft)
05.08.2016 14:47 11,7 C 11,7 C 94 % 1019,4 hPa 0,0 mm 3,8 km/h (1 Bft) S-SW 202 0 min 0,000 mm 0,8 UV-I 86 W/m 10,8 C 9,7 km/h (2 Bft)
05.08.2016 14:48 11,7 C 11,7 C 93 % 1019,4 hPa 0,0 mm 5,0 km/h (1 Bft) S 190 0 min 0,000 mm 0,8 UV-I 84 W/m 10,6 C 6,4 km/h (2 Bft)
05.08.2016 14:49 11,7 C 11,7 C 93 % 1019,3 hPa 0,0 mm 3,1 km/h (1 Bft) S-SW 192 0 min 0,000 mm 0,8 UV-I 86 W/m 10,6 C 6,4 km/h (2 Bft)
05.08.2016 14:50 11,7 C 11,7 C 93 % 1019,3 hPa 0,0 mm 4,9 km/h (1 Bft) S-SW 203 0 min 0,000 mm 0,8 UV-I 88 W/m 10,6 C 8,0 km/h (2 Bft)
05.08.2016 14:51 11,7 C 11,7 C 93 % 1019,3 hPa 0,0 mm 6,7 km/h (2 Bft) S-SW 200 0 min 0,000 mm 0,8 UV-I 88 W/m 10,6 C 9,7 km/h (2 Bft)
05.08.2016 14:52 11,7 C 11,7 C 93 % 1019,3 hPa 0,0 mm 6,0 km/h (2 Bft) S-SO 162 0 min 0,000 mm 0,8 UV-I 88 W/m 10,6 C 8,0 km/h (2 Bft)
05.08.2016 14:53 11,7 C 11,7 C 93 % 1019,3 hPa 0,0 mm 6,0 km/h (2 Bft) S 172 0 min 0,000 mm 0,8 UV-I 86 W/m 10,6 C 9,7 km/h (2 Bft)
05.08.2016 14:54 11,7 C 11,7 C 92 % 1019,3 hPa 0,0 mm 5,6 km/h (1 Bft) S 183 0 min 0,000 mm 0,8 UV-I 83 W/m 10,4 C 8,0 km/h (2 Bft)
05.08.2016 14:55 11,7 C 11,7 C 93 % 1019,3 hPa 0,2 mm 6,2 km/h (2 Bft) S 180 0 min 0,000 mm 0,7 UV-I 83 W/m 10,6 C 8,0 km/h (2 Bft)
05.08.2016 14:56 11,7 C 11,7 C 93 % 1019,3 hPa 0,0 mm 3,0 km/h (1 Bft) S 180 0 min 0,000 mm 0,7 UV-I 81 W/m 10,6 C 4,8 km/h (1 Bft)
05.08.2016 14:57 11,6 C 11,7 C 92 % 1019,3 hPa 0,0 mm 2,0 km/h (1 Bft) W-SW 239 0 min 0,000 mm 0,7 UV-I 81 W/m 10,3 C 3,2 km/h (1 Bft)
05.08.2016 14:58 11,6 C 11,6 C 92 % 1019,3 hPa 0,0 mm 2,4 km/h (1 Bft) S-SW 207 0 min 0,000 mm 0,7 UV-I 81 W/m 10,3 C 3,2 km/h (1 Bft)
05.08.2016 14:59 11,5 C 11,6 C 93 % 1019,4 hPa 0,0 mm 2,1 km/h (1 Bft) S 182 0 min 0,000 mm 0,8 UV-I 83 W/m 10,4 C 3,2 km/h (1 Bft)
05.08.2016 15:00 11,4 C 11,5 C 92 % 1019,4 hPa 0,0 mm 4,0 km/h (1 Bft) S 180 0 min 0,000 mm 0,8 UV-I 90 W/m 10,1 C 6,4 km/h (2 Bft)
05.08.2016 15:01 11,3 C 11,4 C 93 % 1019,4 hPa 0,0 mm 2,9 km/h (1 Bft) S-SW 200 0 min 0,051 mm 0,8 UV-I 91 W/m 10,2 C 3,2 km/h (1 Bft)
05.08.2016 15:02 11,4 C 11,4 C 93 % 1019,4 hPa 0,0 mm 2,6 km/h (1 Bft) S 178 0 min 0,000 mm 0,8 UV-I 93 W/m 10,3 C 4,8 km/h (1 Bft)
05.08.2016 15:03 11,4 C 11,4 C 94 % 1019,4 hPa 0,0 mm 0,3 km/h (0 Bft) S 178 0 min 0,000 mm 0,9 UV-I 93 W/m 10,5 C 1,6 km/h (1 Bft)
05.08.2016 15:04 11,4 C 11,4 C 94 % 1019,4 hPa 0,2 mm 2,4 km/h (1 Bft) S-SW 200 0 min 0,000 mm 0,9 UV-I 93 W/m 10,5 C 4,8 km/h (1 Bft)
05.08.2016 15:05 11,4 C 11,4 C 92 % 1019,4 hPa 0,0 mm 3,4 km/h (1 Bft) SW 225 0 min 0,000 mm 0,9 UV-I 95 W/m 10,1 C 4,8 km/h (1 Bft)
05.08.2016 15:06 11,5 C 11,5 C 92 % 1019,4 hPa 0,0 mm 3,2 km/h (1 Bft) S 174 0 min 0,000 mm 0,9 UV-I 97 W/m 10,2 C 4,8 km/h (1 Bft)
05.08.2016 15:07 11,5 C 11,6 C 92 % 1019,5 hPa 0,0 mm 5,2 km/h (1 Bft) S 179 0 min 0,000 mm 0,9 UV-I 98 W/m 10,2 C 8,0 km/h (2 Bft)
05.08.2016 15:08 11,6 C 11,6 C 92 % 1019,4 hPa 0,0 mm 2,5 km/h (1 Bft) S-SW 194 0 min 0,000 mm 0,9 UV-I 100 W/m 10,3 C 4,8 km/h (1 Bft)
05.08.2016 15:09 11,6 C 11,6 C 93 % 1019,4 hPa 0,2 mm 1,0 km/h (0 Bft) S-SW 194 0 min 0,000 mm 0,9 UV-I 105 W/m 10,5 C 1,6 km/h (1 Bft)
05.08.2016 15:10 11,5 C 11,6 C 93 % 1019,5 hPa 0,0 mm 1,8 km/h (1 Bft) S-SW 197 0 min 0,000 mm 0,9 UV-I 105 W/m 10,4 C 3,2 km/h (1 Bft)
05.08.2016 15:11 11,5 C 11,5 C 94 % 1019,5 hPa 0,0 mm 2,1 km/h (1 Bft) S 186 0 min 0,000 mm 0,9 UV-I 107 W/m 10,6 C 3,2 km/h (1 Bft)
05.08.2016 15:12 11,5 C 11,5 C 94 % 1019,6 hPa 0,0 mm 3,7 km/h (1 Bft) S 172 0 min 0,000 mm 0,9 UV-I 107 W/m 10,6 C 8,0 km/h (2 Bft)
05.08.2016 15:13 11,5 C 11,5 C 94 % 1019,5 hPa 0,2 mm 5,0 km/h (1 Bft) S-SW 193 0 min 0,000 mm 0,9 UV-I 107 W/m 10,6 C 8,0 km/h (2 Bft)
05.08.2016 15:14 11,6 C 11,6 C 92 % 1019,5 hPa 0,0 mm 2,3 km/h (1 Bft) SW 220 0 min 0,000 mm 0,9 UV-I 107 W/m 10,3 C 3,2 km/h (1 Bft)
05.08.2016 15:15 11,6 C 11,6 C 94 % 1019,6 hPa 0,0 mm 0,5 km/h (0 Bft) SW 220 0 min 0,000 mm 1,0 UV-I 109 W/m 10,7 C 1,6 km/h (1 Bft)
05.08.2016 15:16 11,6 C 11,6 C 93 % 1019,6 hPa 0,0 mm 0,3 km/h (0 Bft) SW 220 0 min 0,000 mm 1,0 UV-I 113 W/m 10,5 C 1,6 km/h (1 Bft)
05.08.2016 15:17 11,6 C 11,6 C 93 % 1019,6 hPa 0,0 mm 0,9 km/h (0 Bft) SW 220 0 min 0,000 mm 1,0 UV-I 118 W/m 10,5 C 1,6 km/h (1 Bft)
05.08.2016 15:18 11,5 C 11,6 C 94 % 1019,6 hPa 0,0 mm 0,1 km/h (0 Bft) SW 220 0 min 0,000 mm 1,0 UV-I 120 W/m 10,6 C 1,6 km/h (1 Bft)
05.08.2016 15:19 11,5 C 11,5 C 94 % 1019,6 hPa 0,2 mm 0,8 km/h (0 Bft) S-SW 207 0 min 0,000 mm 1,0 UV-I 120 W/m 10,6 C 3,2 km/h (1 Bft)
05.08.2016 15:20 11,4 C 11,5 C 94 % 1019,6 hPa 0,0 mm 0,8 km/h (0 Bft) S-SW 207 0 min 0,000 mm 1,0 UV-I 120 W/m 10,5 C 1,6 km/h (1 Bft)
05.08.2016 15:21 11,5 C 11,5 C 95 % 1019,6 hPa 0,0 mm 1,9 km/h (1 Bft) S-SW 206 0 min 0,000 mm 1,0 UV-I 120 W/m 10,7 C 3,2 km/h (1 Bft)
05.08.2016 15:22 11,5 C 11,5 C 95 % 1019,6 hPa 0,0 mm 2,0 km/h (1 Bft) S-SW 206 0 min 0,000 mm 1,0 UV-I 118 W/m 10,7 C 3,2 km/h (1 Bft)
05.08.2016 15:23 11,5 C 11,5 C 95 % 1019,6 hPa 0,0 mm 1,6 km/h (1 Bft) S 183 0 min 0,000 mm 1,0 UV-I 116 W/m 10,7 C 3,2 km/h (1 Bft)
05.08.2016 15:24 11,5 C 11,5 C 94 % 1019,6 hPa 0,0 mm 3,2 km/h (1 Bft) S 186 0 min 0,000 mm 1,0 UV-I 114 W/m 10,6 C 4,8 km/h (1 Bft)
05.08.2016 15:25 11,6 C 11,6 C 94 % 1019,6 hPa 0,0 mm 4,6 km/h (1 Bft) S-SO 150 0 min 0,000 mm 1,0 UV-I 116 W/m 10,7 C 8,0 km/h (2 Bft)
05.08.2016 15:26 11,5 C 11,6 C 94 % 1019,6 hPa 0,2 mm 3,9 km/h (1 Bft) SO 134 0 min 0,000 mm 1,0 UV-I 118 W/m 10,6 C 6,4 km/h (2 Bft)
05.08.2016 15:27 11,6 C 11,6 C 94 % 1019,7 hPa 0,0 mm 1,7 km/h (1 Bft) SO 143 0 min 0,000 mm 1,0 UV-I 118 W/m 10,7 C 3,2 km/h (1 Bft)
05.08.2016 15:28 11,6 C 11,6 C 95 % 1019,7 hPa 0,0 mm 2,1 km/h (1 Bft) SO 143 0 min 0,000 mm 1,0 UV-I 118 W/m 10,8 C 3,2 km/h (1 Bft)
05.08.2016 15:29 11,6 C 11,6 C 94 % 1019,7 hPa 0,0 mm 3,6 km/h (1 Bft) S 171 0 min 0,000 mm 1,0 UV-I 113 W/m 10,7 C 6,4 km/h (2 Bft)
05.08.2016 15:30 11,6 C 11,6 C 94 % 1019,8 hPa 0,0 mm 3,2 km/h (1 Bft) S-SO 167 0 min 0,000 mm 1,0 UV-I 111 W/m 10,7 C 4,8 km/h (1 Bft)
05.08.2016 15:31 11,6 C 11,6 C 94 % 1019,8 hPa 0,0 mm 2,6 km/h (1 Bft) S-SO 165 0 min 0,000 mm 1,0 UV-I 111 W/m 10,7 C 4,8 km/h (1 Bft)
05.08.2016 15:32 11,5 C 11,6 C 94 % 1019,8 hPa 0,0 mm 4,9 km/h (1 Bft) S 181 0 min 0,000 mm 1,0 UV-I 111 W/m 10,6 C 8,0 km/h (2 Bft)
05.08.2016 15:33 11,5 C 11,5 C 93 % 1019,7 hPa 0,2 mm 4,8 km/h (1 Bft) S 175 0 min 0,000 mm 1,0 UV-I 109 W/m 10,4 C 8,0 km/h (2 Bft)
05.08.2016 15:34 11,4 C 11,5 C 92 % 1019,7 hPa 0,0 mm 2,9 km/h (1 Bft) S 178 0 min 0,000 mm 0,9 UV-I 109 W/m 10,1 C 6,4 km/h (2 Bft)
05.08.2016 15:35 11,4 C 11,4 C 93 % 1019,7 hPa 0,0 mm 1,2 km/h (1 Bft) S 178 0 min 0,000 mm 0,9 UV-I 109 W/m 10,3 C 3,2 km/h (1 Bft)
05.08.2016 15:36 11,4 C 11,4 C 93 % 1019,7 hPa 0,0 mm 1,1 km/h (1 Bft) S 188 0 min 0,000 mm 0,9 UV-I 109 W/m 10,3 C 3,2 km/h (1 Bft)
05.08.2016 15:37 11,4 C 11,4 C 94 % 1019,6 hPa 0,0 mm 1,5 km/h (1 Bft) S-SW 199 0 min 0,000 mm 0,9 UV-I 109 W/m 10,5 C 3,2 km/h (1 Bft)
05.08.2016 15:38 11,5 C 11,5 C 94 % 1019,7 hPa 0,0 mm 0,4 km/h (0 Bft) S-SW 199 0 min 0,000 mm 0,9 UV-I 111 W/m 10,6 C 1,6 km/h (1 Bft)
05.08.2016 15:39 11,6 C 11,6 C 94 % 1019,7 hPa 0,2 mm 0,1 km/h (0 Bft) S-SW 199 0 min 0,000 mm 0,9 UV-I 111 W/m 10,7 C 1,6 km/h (1 Bft)
05.08.2016 15:40 11,6 C 11,6 C 94 % 1019,6 hPa 0,0 mm 0,5 km/h (0 Bft) S-SW 202 0 min 0,000 mm 1,0 UV-I 111 W/m 10,7 C 1,6 km/h (1 Bft)
05.08.2016 15:41 11,6 C 11,6 C 95 % 1019,6 hPa 0,0 mm 0,8 km/h (0 Bft) SW 235 0 min 0,000 mm 1,0 UV-I 111 W/m 10,8 C 1,6 km/h (1 Bft)
05.08.2016 15:42 11,5 C 11,6 C 94 % 1019,7 hPa 0,0 mm 0,0 km/h (0 Bft) SW 235 0 min 0,000 mm 0,9 UV-I 111 W/m 10,6 C 0,0 km/h (0 Bft)
05.08.2016 15:43 11,5 C 11,5 C 94 % 1019,7 hPa 0,0 mm 0,1 km/h (0 Bft) SW 235 0 min 0,000 mm 0,9 UV-I 111 W/m 10,6 C 1,6 km/h (1 Bft)
05.08.2016 15:44 11,5 C 11,5 C 94 % 1019,7 hPa 0,0 mm 0,6 km/h (0 Bft) SW 235 0 min 0,000 mm 0,9 UV-I 111 W/m 10,6 C 1,6 km/h (1 Bft)
05.08.2016 15:45 11,5 C 11,5 C 94 % 1019,7 hPa 0,0 mm 0,1 km/h (0 Bft) SW 234 0 min 0,000 mm 1,0 UV-I 113 W/m 10,6 C 1,6 km/h (1 Bft)
05.08.2016 15:46 11,6 C 11,6 C 94 % 1019,8 hPa 0,0 mm 1,5 km/h (1 Bft) S-SO 163 0 min 0,000 mm 1,0 UV-I 114 W/m 10,7 C 3,2 km/h (1 Bft)
05.08.2016 15:47 11,6 C 11,6 C 94 % 1019,8 hPa 0,0 mm 1,9 km/h (1 Bft) W 259 0 min 0,000 mm 1,0 UV-I 120 W/m 10,7 C 4,8 km/h (1 Bft)
05.08.2016 15:48 11,5 C 11,6 C 94 % 1019,7 hPa 0,0 mm 3,5 km/h (1 Bft) W-SW 248 0 min 0,000 mm 1,0 UV-I 121 W/m 10,6 C 4,8 km/h (1 Bft)
05.08.2016 15:49 11,6 C 11,6 C 93 % 1019,8 hPa 0,0 mm 0,9 km/h (0 Bft) W-SW 244 0 min 0,000 mm 1,0 UV-I 123 W/m 10,5 C 3,2 km/h (1 Bft)
05.08.2016 15:50 11,6 C 11,6 C 94 % 1019,8 hPa 0,0 mm 1,7 km/h (1 Bft) W-NW 286 0 min 0,000 mm 1,0 UV-I 123 W/m 10,7 C 4,8 km/h (1 Bft)
05.08.2016 15:51 11,6 C 11,6 C 94 % 1019,7 hPa 0,0 mm 0,8 km/h (0 Bft) W-NW 286 0 min 0,000 mm 1,0 UV-I 123 W/m 10,7 C 1,6 km/h (1 Bft)
05.08.2016 15:52 11,6 C 11,6 C 94 % 1019,7 hPa 0,2 mm 1,1 km/h (1 Bft) W-NW 285 0 min 0,000 mm 1,0 UV-I 118 W/m 10,7 C 1,6 km/h (1 Bft)
05.08.2016 15:53 11,5 C 11,6 C 93 % 1019,8 hPa 0,0 mm 2,1 km/h (1 Bft) W 279 0 min 0,000 mm 1,0 UV-I 116 W/m 10,4 C 3,2 km/h (1 Bft)
05.08.2016 15:54 11,5 C 11,5 C 93 % 1019,9 hPa 0,0 mm 0,9 km/h (0 Bft) N-NO 23 0 min 0,000 mm 0,9 UV-I 113 W/m 10,4 C 3,2 km/h (1 Bft)
05.08.2016 15:55 11,5 C 11,5 C 93 % 1019,8 hPa 0,0 mm 1,4 km/h (1 Bft) N-NW 341 0 min 0,000 mm 0,9 UV-I 109 W/m 10,4 C 3,2 km/h (1 Bft)
05.08.2016 15:56 11,6 C 11,6 C 94 % 1019,8 hPa 0,0 mm 2,2 km/h (1 Bft) W-SW 246 0 min 0,000 mm 0,9 UV-I 107 W/m 10,7 C 4,8 km/h (1 Bft)
05.08.2016 15:57 11,6 C 11,6 C 94 % 1019,8 hPa 0,0 mm 3,2 km/h (1 Bft) W-SW 254 0 min 0,000 mm 0,9 UV-I 107 W/m 10,7 C 4,8 km/h (1 Bft)
05.08.2016 15:58 11,6 C 11,6 C 93 % 1019,8 hPa 0,0 mm 2,1 km/h (1 Bft) S-SW 209 0 min 0,000 mm 0,9 UV-I 105 W/m 10,5 C 4,8 km/h (1 Bft)
05.08.2016 15:59 11,5 C 11,6 C 93 % 1019,8 hPa 0,0 mm 1,8 km/h (1 Bft) SW 224 0 min 0,000 mm 0,9 UV-I 105 W/m 10,4 C 3,2 km/h (1 Bft)
05.08.2016 16:00 11,5 C 11,5 C 93 % 1019,8 hPa 0,0 mm 3,3 km/h (1 Bft) SW 219 0 min 0,000 mm 0,9 UV-I 105 W/m 10,4 C 4,8 km/h (1 Bft)
05.08.2016 16:01 11,5 C 11,6 C 94 % 1019,8 hPa 0,0 mm 2,4 km/h (1 Bft) SW 221 0 min 0,051 mm 0,9 UV-I 107 W/m 10,6 C 4,8 km/h (1 Bft)
05.08.2016 16:02 11,5 C 11,5 C 94 % 1019,8 hPa 0,0 mm 1,5 km/h (1 Bft) SW 227 0 min 0,000 mm 0,9 UV-I 111 W/m 10,6 C 3,2 km/h (1 Bft)
05.08.2016 16:03 11,5 C 11,5 C 94 % 1019,8 hPa 0,0 mm 4,3 km/h (1 Bft) W-SW 246 0 min 0,000 mm 0,9 UV-I 111 W/m 10,6 C 8,0 km/h (2 Bft)
05.08.2016 16:04 11,4 C 11,5 C 93 % 1019,8 hPa 0,0 mm 2,2 km/h (1 Bft) S-SW 200 0 min 0,000 mm 0,9 UV-I 111 W/m 10,3 C 3,2 km/h (1 Bft)
05.08.2016 16:05 11,4 C 11,4 C 93 % 1019,8 hPa 0,0 mm 0,7 km/h (0 Bft) S-SW 200 0 min 0,000 mm 0,9 UV-I 109 W/m 10,3 C 1,6 km/h (1 Bft)
05.08.2016 16:06 11,4 C 11,4 C 93 % 1019,8 hPa 0,0 mm 0,1 km/h (0 Bft) S-SW 200 0 min 0,000 mm 0,9 UV-I 107 W/m 10,3 C 1,6 km/h (1 Bft)
05.08.2016 16:07 11,4 C 11,4 C 93 % 1019,8 hPa 0,2 mm 1,0 km/h (0 Bft) S-SW 212 0 min 0,000 mm 0,9 UV-I 105 W/m 10,3 C 3,2 km/h (1 Bft)
05.08.2016 16:08 11,4 C 11,4 C 93 % 1020,0 hPa 0,0 mm 0,8 km/h (0 Bft) S-SW 212 0 min 0,000 mm 0,9 UV-I 104 W/m 10,3 C 3,2 km/h (1 Bft)
05.08.2016 16:09 11,4 C 11,4 C 94 % 1020,0 hPa 0,0 mm 0,9 km/h (0 Bft) S-SW 213 0 min 0,000 mm 0,8 UV-I 102 W/m 10,5 C 3,2 km/h (1 Bft)
05.08.2016 16:10 11,4 C 11,4 C 94 % 1019,9 hPa 0,0 mm 1,7 km/h (1 Bft) S 190 0 min 0,000 mm 0,8 UV-I 100 W/m 10,5 C 3,2 km/h (1 Bft)
05.08.2016 16:11 11,4 C 11,4 C 94 % 1020,0 hPa 0,0 mm 0,4 km/h (0 Bft) S 190 0 min 0,000 mm 0,8 UV-I 97 W/m 10,5 C 1,6 km/h (1 Bft)
05.08.2016 16:12 11,4 C 11,4 C 94 % 1020,0 hPa 0,0 mm 0,1 km/h (0 Bft) S 190 0 min 0,000 mm 0,8 UV-I 93 W/m 10,5 C 1,6 km/h (1 Bft)
05.08.2016 16:13 11,3 C 11,4 C 94 % 1020,0 hPa 0,0 mm 0,0 km/h (0 Bft) S 190 0 min 0,000 mm 0,7 UV-I 91 W/m 10,4 C 0,0 km/h (0 Bft)
05.08.2016 16:14 11,3 C 11,4 C 94 % 1020,0 hPa 0,0 mm 0,1 km/h (0 Bft) S 190 0 min 0,000 mm 0,7 UV-I 90 W/m 10,4 C 1,6 km/h (1 Bft)
05.08.2016 16:15 11,3 C 11,3 C 94 % 1020,0 hPa 0,0 mm 0,3 km/h (0 Bft) S 190 0 min 0,000 mm 0,7 UV-I 88 W/m 10,4 C 1,6 km/h (1 Bft)
05.08.2016 16:16 11,3 C 11,3 C 94 % 1020,0 hPa 0,0 mm 0,1 km/h (0 Bft) S 190 0 min 0,000 mm 0,7 UV-I 91 W/m 10,4 C 1,6 km/h (1 Bft)
05.08.2016 16:17 11,3 C 11,3 C 94 % 1020,0 hPa 0,0 mm 0,5 km/h (0 Bft) S 190 0 min 0,000 mm 0,8 UV-I 98 W/m 10,4 C 1,6 km/h (1 Bft)
05.08.2016 16:18 11,3 C 11,3 C 94 % 1019,9 hPa 0,0 mm 0,4 km/h (0 Bft) S 190 0 min 0,000 mm 0,9 UV-I 105 W/m 10,4 C 1,6 km/h (1 Bft)
05.08.2016 16:19 11,2 C 11,3 C 93 % 1019,8 hPa 0,0 mm 0,3 km/h (0 Bft) S 190 0 min 0,000 mm 0,9 UV-I 116 W/m 10,1 C 1,6 km/h (1 Bft)
05.08.2016 16:20 11,2 C 11,2 C 94 % 1019,8 hPa 0,2 mm 0,7 km/h (0 Bft) S 189 0 min 0,000 mm 1,0 UV-I 125 W/m 10,3 C 1,6 km/h (1 Bft)
05.08.2016 16:21 11,2 C 11,2 C 94 % 1019,8 hPa 0,0 mm 0,8 km/h (0 Bft) W-SW 246 0 min 0,000 mm 1,1 UV-I 134 W/m 10,3 C 3,2 km/h (1 Bft)
05.08.2016 16:22 11,2 C 11,2 C 94 % 1019,7 hPa 0,0 mm 0,6 km/h (0 Bft) W-SW 246 0 min 0,000 mm 1,1 UV-I 144 W/m 10,3 C 3,2 km/h (1 Bft)
05.08.2016 16:23 11,2 C 11,2 C 94 % 1019,8 hPa 0,0 mm 1,4 km/h (1 Bft) W-SW 246 0 min 0,000 mm 1,1 UV-I 146 W/m 10,3 C 3,2 km/h (1 Bft)
05.08.2016 16:24 11,2 C 11,2 C 94 % 1019,8 hPa 0,0 mm 1,1 km/h (1 Bft) W-NW 293 0 min 0,000 mm 1,1 UV-I 146 W/m 10,3 C 3,2 km/h (1 Bft)
05.08.2016 16:25 11,3 C 11,3 C 94 % 1019,9 hPa 0,0 mm 3,0 km/h (1 Bft) W-NW 302 0 min 0,000 mm 1,1 UV-I 146 W/m 10,4 C 6,4 km/h (2 Bft)
05.08.2016 16:26 11,4 C 11,4 C 94 % 1019,8 hPa 0,0 mm 1,2 km/h (1 Bft) NW 313 0 min 0,000 mm 1,1 UV-I 146 W/m 10,5 C 3,2 km/h (1 Bft)
05.08.2016 16:27 11,5 C 11,5 C 94 % 1019,8 hPa 0,0 mm 2,8 km/h (1 Bft) W-NW 302 0 min 0,000 mm 1,1 UV-I 144 W/m 10,6 C 4,8 km/h (1 Bft)
05.08.2016 16:28 11,6 C 11,6 C 94 % 1019,9 hPa 0,0 mm 2,6 km/h (1 Bft) W-SW 242 0 min 0,000 mm 1,1 UV-I 142 W/m 10,7 C 4,8 km/h (1 Bft)
05.08.2016 16:29 11,6 C 11,6 C 93 % 1019,9 hPa 0,0 mm 2,7 km/h (1 Bft) S-SW 197 0 min 0,000 mm 1,1 UV-I 142 W/m 10,5 C 4,8 km/h (1 Bft)
05.08.2016 16:30 11,6 C 11,6 C 93 % 1019,8 hPa 0,0 mm 3,0 km/h (1 Bft) W 267 0 min 0,000 mm 1,1 UV-I 142 W/m 10,5 C 4,8 km/h (1 Bft)
05.08.2016 16:31 11,6 C 11,6 C 94 % 1019,9 hPa 0,0 mm 0,8 km/h (0 Bft) W 267 0 min 0,000 mm 1,1 UV-I 142 W/m 10,7 C 3,2 km/h (1 Bft)
05.08.2016 16:32 11,6 C 11,6 C 94 % 1019,8 hPa 0,0 mm 0,7 km/h (0 Bft) W 267 0 min 0,000 mm 1,1 UV-I 142 W/m 10,7 C 3,2 km/h (1 Bft)
05.08.2016 16:33 11,7 C 11,7 C 94 % 1019,8 hPa 0,0 mm 2,3 km/h (1 Bft) W 269 0 min 0,000 mm 1,1 UV-I 139 W/m 10,8 C 3,2 km/h (1 Bft)
05.08.2016 16:34 11,7 C 11,7 C 94 % 1019,8 hPa 0,0 mm 1,2 km/h (1 Bft) W 269 0 min 0,000 mm 1,1 UV-I 141 W/m 10,8 C 3,2 km/h (1 Bft)
05.08.2016 16:35 11,7 C 11,7 C 94 % 1019,8 hPa 0,0 mm 0,3 km/h (0 Bft) W 278 0 min 0,000 mm 1,1 UV-I 146 W/m 10,8 C 1,6 km/h (1 Bft)
05.08.2016 16:36 11,8 C 11,8 C 94 % 1019,7 hPa 0,0 mm 0,6 km/h (0 Bft) W-NW 284 0 min 0,000 mm 1,1 UV-I 151 W/m 10,9 C 1,6 km/h (1 Bft)
05.08.2016 16:37 11,8 C 11,8 C 94 % 1019,7 hPa 0,0 mm 1,8 km/h (1 Bft) O 100 0 min 0,000 mm 1,2 UV-I 155 W/m 10,9 C 3,2 km/h (1 Bft)
05.08.2016 16:38 11,8 C 11,8 C 94 % 1019,7 hPa 0,0 mm 0,9 km/h (0 Bft) O 100 0 min 0,000 mm 1,2 UV-I 160 W/m 10,9 C 1,6 km/h (1 Bft)
05.08.2016 16:39 11,7 C 11,8 C 93 % 1019,6 hPa 0,0 mm 0,4 km/h (0 Bft) O 100 0 min 0,000 mm 1,2 UV-I 160 W/m 10,6 C 1,6 km/h (1 Bft)
05.08.2016 16:40 11,7 C 11,7 C 93 % 1019,6 hPa 0,0 mm 1,5 km/h (1 Bft) N-NW 333 0 min 0,000 mm 1,2 UV-I 155 W/m 10,6 C 3,2 km/h (1 Bft)
05.08.2016 16:41 11,7 C 11,7 C 94 % 1019,6 hPa 0,0 mm 4,6 km/h (1 Bft) SW 233 0 min 0,000 mm 1,1 UV-I 148 W/m 10,8 C 6,4 km/h (2 Bft)
05.08.2016 16:42 11,7 C 11,7 C 93 % 1019,6 hPa 0,0 mm 3,7 km/h (1 Bft) W-NW 284 0 min 0,000 mm 1,1 UV-I 141 W/m 10,6 C 4,8 km/h (1 Bft)
05.08.2016 16:43 11,7 C 11,7 C 93 % 1019,7 hPa 0,0 mm 3,1 km/h (1 Bft) SO 145 0 min 0,000 mm 1,0 UV-I 134 W/m 10,6 C 4,8 km/h (1 Bft)
05.08.2016 16:44 11,7 C 11,7 C 94 % 1019,7 hPa 0,0 mm 1,2 km/h (1 Bft) SW 232 0 min 0,000 mm 1,0 UV-I 128 W/m 10,8 C 3,2 km/h (1 Bft)
05.08.2016 16:45 11,6 C 11,7 C 93 % 1019,7 hPa 0,0 mm 1,0 km/h (0 Bft) SW 216 0 min 0,000 mm 0,9 UV-I 125 W/m 10,5 C 3,2 km/h (1 Bft)
05.08.2016 16:46 11,6 C 11,6 C 93 % 1019,7 hPa 0,0 mm 2,0 km/h (1 Bft) N 355 0 min 0,000 mm 0,9 UV-I 123 W/m 10,5 C 4,8 km/h (1 Bft)
05.08.2016 16:47 11,6 C 11,6 C 92 % 1019,7 hPa 0,0 mm 1,7 km/h (1 Bft) N 355 0 min 0,000 mm 0,9 UV-I 127 W/m 10,3 C 3,2 km/h (1 Bft)
05.08.2016 16:48 11,6 C 11,6 C 92 % 1019,8 hPa 0,0 mm 1,7 km/h (1 Bft) N 360 0 min 0,000 mm 0,9 UV-I 130 W/m 10,3 C 3,2 km/h (1 Bft)
05.08.2016 16:49 11,6 C 11,6 C 93 % 1019,7 hPa 0,0 mm 0,6 km/h (0 Bft) N 360 0 min 0,000 mm 1,0 UV-I 137 W/m 10,5 C 1,6 km/h (1 Bft)
05.08.2016 16:50 11,5 C 11,6 C 94 % 1019,7 hPa 0,0 mm 0,2 km/h (0 Bft) N 360 0 min 0,000 mm 1,0 UV-I 148 W/m 10,6 C 1,6 km/h (1 Bft)
05.08.2016 16:51 11,6 C 11,6 C 94 % 1019,7 hPa 0,0 mm 0,3 km/h (0 Bft) N 360 0 min 0,000 mm 1,1 UV-I 162 W/m 10,7 C 1,6 km/h (1 Bft)
05.08.2016 16:52 11,6 C 11,6 C 94 % 1019,7 hPa 0,0 mm 2,0 km/h (1 Bft) N 10 0 min 0,000 mm 1,2 UV-I 167 W/m 10,7 C 4,8 km/h (1 Bft)
05.08.2016 16:53 11,6 C 11,6 C 94 % 1019,7 hPa 0,0 mm 3,6 km/h (1 Bft) S 171 0 min 0,000 mm 1,2 UV-I 169 W/m 10,7 C 8,0 km/h (2 Bft)
05.08.2016 16:54 11,7 C 11,7 C 93 % 1019,6 hPa 0,0 mm 1,9 km/h (1 Bft) W 277 0 min 0,000 mm 1,2 UV-I 171 W/m 10,6 C 3,2 km/h (1 Bft)
05.08.2016 16:55 11,8 C 11,8 C 94 % 1019,7 hPa 0,0 mm 1,3 km/h (1 Bft) W 276 0 min 0,000 mm 1,2 UV-I 172 W/m 10,9 C 3,2 km/h (1 Bft)
05.08.2016 16:56 11,8 C 11,8 C 94 % 1019,7 hPa 0,0 mm 1,6 km/h (1 Bft) NW 317 0 min 0,000 mm 1,2 UV-I 174 W/m 10,9 C 3,2 km/h (1 Bft)
05.08.2016 16:57 11,8 C 11,8 C 94 % 1019,7 hPa 0,0 mm 1,8 km/h (1 Bft) NW 317 0 min 0,000 mm 1,2 UV-I 183 W/m 10,9 C 3,2 km/h (1 Bft)
05.08.2016 16:58 11,8 C 11,9 C 94 % 1019,7 hPa 0,0 mm 0,9 km/h (0 Bft) NW 317 0 min 0,000 mm 1,3 UV-I 185 W/m 10,9 C 3,2 km/h (1 Bft)
05.08.2016 16:59 11,8 C 11,8 C 93 % 1019,7 hPa 0,0 mm 1,6 km/h (1 Bft) W 263 0 min 0,000 mm 1,3 UV-I 185 W/m 10,7 C 3,2 km/h (1 Bft)
05.08.2016 17:00 11,8 C 11,8 C 93 % 1019,7 hPa 0,0 mm 1,7 km/h (1 Bft) W 274 0 min 0,076 mm 1,3 UV-I 183 W/m 10,7 C 3,2 km/h (1 Bft)
05.08.2016 17:01 11,8 C 11,8 C 94 % 1019,7 hPa 0,0 mm 1,3 km/h (1 Bft) W-NW 285 0 min 0,000 mm 1,3 UV-I 181 W/m 10,9 C 3,2 km/h (1 Bft)
05.08.2016 17:02 11,8 C 11,8 C 94 % 1019,7 hPa 0,0 mm 1,3 km/h (1 Bft) W-NW 293 0 min 0,000 mm 1,3 UV-I 179 W/m 10,9 C 1,6 km/h (1 Bft)
05.08.2016 17:03 11,9 C 11,9 C 95 % 1019,7 hPa 0,0 mm 3,8 km/h (1 Bft) N-NO 33 0 min 0,000 mm 1,2 UV-I 174 W/m 11,1 C 6,4 km/h (2 Bft)
05.08.2016 17:04 11,9 C 11,9 C 94 % 1019,7 hPa 0,0 mm 2,4 km/h (1 Bft) N-NO 24 0 min 0,000 mm 1,2 UV-I 171 W/m 11,0 C 4,8 km/h (1 Bft)
05.08.2016 17:05 11,9 C 11,9 C 94 % 1019,7 hPa 0,0 mm 2,3 km/h (1 Bft) N-NO 18 0 min 0,000 mm 1,2 UV-I 167 W/m 11,0 C 4,8 km/h (1 Bft)
05.08.2016 17:06 11,9 C 11,9 C 94 % 1019,7 hPa 0,0 mm 1,3 km/h (1 Bft) O-NO 67 0 min 0,000 mm 1,2 UV-I 162 W/m 11,0 C 3,2 km/h (1 Bft)
05.08.2016 17:07 11,9 C 11,9 C 94 % 1019,7 hPa 0,0 mm 1,2 km/h (1 Bft) O-NO 63 0 min 0,000 mm 1,1 UV-I 156 W/m 11,0 C 3,2 km/h (1 Bft)
05.08.2016 17:08 11,8 C 11,9 C 92 % 1019,7 hPa 0,0 mm 2,0 km/h (1 Bft) NW 314 0 min 0,000 mm 1,1 UV-I 144 W/m 10,5 C 4,8 km/h (1 Bft)
05.08.2016 17:09 11,8 C 11,8 C 92 % 1019,7 hPa 0,0 mm 1,6 km/h (1 Bft) W 275 0 min 0,000 mm 1,0 UV-I 137 W/m 10,5 C 3,2 km/h (1 Bft)
05.08.2016 17:10 11,7 C 11,8 C 93 % 1019,7 hPa 0,0 mm 0,8 km/h (0 Bft) NW 314 0 min 0,000 mm 1,0 UV-I 132 W/m 10,6 C 3,2 km/h (1 Bft)
05.08.2016 17:11 11,7 C 11,7 C 93 % 1019,7 hPa 0,0 mm 1,7 km/h (1 Bft) N-NO 17 0 min 0,000 mm 0,9 UV-I 128 W/m 10,6 C 3,2 km/h (1 Bft)
05.08.2016 17:12 11,7 C 11,7 C 94 % 1019,8 hPa 0,0 mm 0,9 km/h (0 Bft) N-NO 17 0 min 0,000 mm 0,9 UV-I 128 W/m 10,8 C 1,6 km/h (1 Bft)
05.08.2016 17:13 11,7 C 11,7 C 93 % 1019,8 hPa 0,0 mm 1,9 km/h (1 Bft) W-NW 296 0 min 0,000 mm 0,9 UV-I 128 W/m 10,6 C 4,8 km/h (1 Bft)
05.08.2016 17:14 11,7 C 11,7 C 93 % 1019,8 hPa 0,0 mm 1,3 km/h (1 Bft) NW 317 0 min 0,000 mm 0,9 UV-I 132 W/m 10,6 C 3,2 km/h (1 Bft)
05.08.2016 17:15 11,7 C 11,7 C 93 % 1019,9 hPa 0,0 mm 2,3 km/h (1 Bft) W-SW 248 0 min 0,000 mm 0,9 UV-I 134 W/m 10,6 C 4,8 km/h (1 Bft)
05.08.2016 17:16 11,7 C 11,7 C 93 % 1019,9 hPa 0,0 mm 1,1 km/h (1 Bft) NW 313 0 min 0,000 mm 1,0 UV-I 139 W/m 10,6 C 1,6 km/h (1 Bft)
05.08.2016 17:17 11,7 C 11,7 C 93 % 1019,9 hPa 0,0 mm 1,6 km/h (1 Bft) NW 313 0 min 0,000 mm 1,0 UV-I 144 W/m 10,6 C 3,2 km/h (1 Bft)
05.08.2016 17:18 11,7 C 11,7 C 93 % 1019,9 hPa 0,0 mm 3,0 km/h (1 Bft) N-NO 22 0 min 0,000 mm 1,1 UV-I 149 W/m 10,6 C 4,8 km/h (1 Bft)
05.08.2016 17:19 11,7 C 11,7 C 91 % 1019,8 hPa 0,0 mm 3,2 km/h (1 Bft) S-SO 168 0 min 0,000 mm 1,1 UV-I 155 W/m 10,3 C 4,8 km/h (1 Bft)
05.08.2016 17:20 11,6 C 11,7 C 91 % 1019,8 hPa 0,0 mm 2,3 km/h (1 Bft) W-NW 294 0 min 0,000 mm 1,1 UV-I 163 W/m 10,2 C 4,8 km/h (1 Bft)
05.08.2016 17:21 11,6 C 11,6 C 91 % 1019,8 hPa 0,0 mm 1,3 km/h (1 Bft) W 275 0 min 0,000 mm 1,1 UV-I 167 W/m 10,2 C 3,2 km/h (1 Bft)
05.08.2016 17:22 11,6 C 11,6 C 91 % 1019,7 hPa 0,0 mm 2,0 km/h (1 Bft) W-NW 300 0 min 0,000 mm 1,2 UV-I 169 W/m 10,2 C 3,2 km/h (1 Bft)
05.08.2016 17:23 11,6 C 11,6 C 92 % 1019,8 hPa 0,0 mm 2,6 km/h (1 Bft) N-NW 341 0 min 0,000 mm 1,2 UV-I 169 W/m 10,3 C 3,2 km/h (1 Bft)
05.08.2016 17:24 11,7 C 11,7 C 92 % 1019,8 hPa 0,0 mm 2,6 km/h (1 Bft) O 88 0 min 0,000 mm 1,2 UV-I 171 W/m 10,4 C 4,8 km/h (1 Bft)
05.08.2016 17:25 11,7 C 11,7 C 93 % 1019,8 hPa 0,0 mm 1,8 km/h (1 Bft) NW 306 0 min 0,000 mm 1,1 UV-I 169 W/m 10,6 C 3,2 km/h (1 Bft)
05.08.2016 17:26 11,7 C 11,7 C 93 % 1019,8 hPa 0,0 mm 1,6 km/h (1 Bft) N 5 0 min 0,000 mm 1,1 UV-I 167 W/m 10,6 C 3,2 km/h (1 Bft)
05.08.2016 17:27 11,7 C 11,7 C 92 % 1019,8 hPa 0,0 mm 1,1 km/h (1 Bft) N 5 0 min 0,000 mm 1,1 UV-I 165 W/m 10,4 C 3,2 km/h (1 Bft)
05.08.2016 17:28 11,7 C 11,7 C 93 % 1019,8 hPa 0,0 mm 0,5 km/h (0 Bft) N 5 0 min 0,000 mm 1,1 UV-I 165 W/m 10,6 C 1,6 km/h (1 Bft)
05.08.2016 17:29 11,7 C 11,7 C 92 % 1019,8 hPa 0,0 mm 0,7 km/h (0 Bft) N 5 0 min 0,000 mm 1,1 UV-I 165 W/m 10,4 C 1,6 km/h (1 Bft)
05.08.2016 17:30 11,7 C 11,7 C 92 % 1019,8 hPa 0,0 mm 1,5 km/h (1 Bft) O-SO 111 0 min 0,000 mm 1,1 UV-I 165 W/m 10,4 C 4,8 km/h (1 Bft)
05.08.2016 17:31 11,7 C 11,7 C 93 % 1019,7 hPa 0,0 mm 1,5 km/h (1 Bft) SO 130 0 min 0,000 mm 1,1 UV-I 167 W/m 10,6 C 3,2 km/h (1 Bft)
05.08.2016 17:32 11,7 C 11,7 C 93 % 1019,8 hPa 0,0 mm 0,4 km/h (0 Bft) NO 40 0 min 0,000 mm 1,1 UV-I 167 W/m 10,6 C 3,2 km/h (1 Bft)
05.08.2016 17:33 11,7 C 11,7 C 93 % 1019,7 hPa 0,0 mm 3,4 km/h (1 Bft) NW 322 0 min 0,000 mm 1,1 UV-I 167 W/m 10,6 C 4,8 km/h (1 Bft)
05.08.2016 17:34 11,7 C 11,7 C 92 % 1019,7 hPa 0,0 mm 3,0 km/h (1 Bft) N-NW 342 0 min 0,000 mm 1,1 UV-I 163 W/m 10,4 C 3,2 km/h (1 Bft)
05.08.2016 17:35 11,7 C 11,7 C 92 % 1019,7 hPa 0,0 mm 2,2 km/h (1 Bft) N 355 0 min 0,000 mm 1,1 UV-I 160 W/m 10,4 C 4,8 km/h (1 Bft)
05.08.2016 17:36 11,8 C 11,8 C 93 % 1019,7 hPa 0,0 mm 2,3 km/h (1 Bft) NW 310 0 min 0,000 mm 1,0 UV-I 156 W/m 10,7 C 3,2 km/h (1 Bft)
05.08.2016 17:37 11,8 C 11,8 C 93 % 1019,8 hPa 0,0 mm 1,9 km/h (1 Bft) NW 310 0 min 0,000 mm 1,0 UV-I 153 W/m 10,7 C 3,2 km/h (1 Bft)
05.08.2016 17:38 11,8 C 11,8 C 92 % 1019,7 hPa 0,0 mm 2,1 km/h (1 Bft) W-SW 254 0 min 0,000 mm 1,0 UV-I 144 W/m 10,5 C 4,8 km/h (1 Bft)
05.08.2016 17:39 11,7 C 11,8 C 91 % 1019,7 hPa 0,0 mm 1,9 km/h (1 Bft) S 190 0 min 0,000 mm 0,9 UV-I 137 W/m 10,3 C 3,2 km/h (1 Bft)
05.08.2016 17:40 11,6 C 11,7 C 92 % 1019,7 hPa 0,0 mm 2,1 km/h (1 Bft) S 173 0 min 0,000 mm 0,8 UV-I 127 W/m 10,3 C 3,2 km/h (1 Bft)
05.08.2016 17:41 11,6 C 11,6 C 92 % 1019,8 hPa 0,0 mm 0,6 km/h (0 Bft) S 173 0 min 0,000 mm 0,8 UV-I 116 W/m 10,3 C 1,6 km/h (1 Bft)
05.08.2016 17:42 11,6 C 11,6 C 93 % 1019,8 hPa 0,0 mm 0,6 km/h (0 Bft) S 173 0 min 0,000 mm 0,7 UV-I 105 W/m 10,5 C 1,6 km/h (1 Bft)
05.08.2016 17:43 11,7 C 11,7 C 93 % 1019,8 hPa 0,0 mm 2,0 km/h (1 Bft) W-NW 286 0 min 0,000 mm 0,6 UV-I 95 W/m 10,6 C 4,8 km/h (1 Bft)
05.08.2016 17:44 11,7 C 11,7 C 92 % 1019,9 hPa 0,0 mm 2,7 km/h (1 Bft) W 269 0 min 0,000 mm 0,6 UV-I 83 W/m 10,4 C 4,8 km/h (1 Bft)
05.08.2016 17:45 11,6 C 11,7 C 92 % 1019,9 hPa 0,0 mm 4,0 km/h (1 Bft) W-SW 248 0 min 0,000 mm 0,5 UV-I 81 W/m 10,3 C 6,4 km/h (2 Bft)
05.08.2016 17:46 11,6 C 11,7 C 91 % 1019,9 hPa 0,0 mm 3,0 km/h (1 Bft) W-SW 248 0 min 0,000 mm 0,5 UV-I 81 W/m 10,2 C 6,4 km/h (2 Bft)
05.08.2016 17:47 11,6 C 11,6 C 92 % 1019,8 hPa 0,0 mm 0,3 km/h (0 Bft) W-SW 248 0 min 0,000 mm 0,5 UV-I 81 W/m 10,3 C 1,6 km/h (1 Bft)
05.08.2016 17:48 11,5 C 11,6 C 92 % 1019,9 hPa 0,0 mm 1,5 km/h (1 Bft) W-SW 248 0 min 0,000 mm 0,5 UV-I 81 W/m 10,2 C 3,2 km/h (1 Bft)
05.08.2016 17:49 11,4 C 11,5 C 93 % 1019,9 hPa 0,0 mm 0,6 km/h (0 Bft) W-SW 254 0 min 0,000 mm 0,5 UV-I 81 W/m 10,3 C 1,6 km/h (1 Bft)
05.08.2016 17:50 11,4 C 11,4 C 92 % 1019,8 hPa 0,0 mm 1,0 km/h (0 Bft) W-NW 296 0 min 0,000 mm 0,5 UV-I 76 W/m 10,1 C 3,2 km/h (1 Bft)
05.08.2016 17:51 11,3 C 11,4 C 93 % 1019,8 hPa 0,0 mm 0,9 km/h (0 Bft) W-NW 296 0 min 0,000 mm 0,5 UV-I 76 W/m 10,2 C 1,6 km/h (1 Bft)
05.08.2016 17:52 11,3 C 11,3 C 93 % 1019,9 hPa 0,0 mm 1,3 km/h (1 Bft) N-NW 343 0 min 0,000 mm 0,5 UV-I 72 W/m 10,2 C 3,2 km/h (1 Bft)
05.08.2016 17:53 11,3 C 11,3 C 93 % 1019,9 hPa 0,0 mm 1,4 km/h (1 Bft) N-NW 343 0 min 0,000 mm 0,0 UV-I 67 W/m 10,2 C 3,2 km/h (1 Bft)
05.08.2016 17:54 11,3 C 11,3 C 93 % 1020,0 hPa 0,0 mm 1,9 km/h (1 Bft) N 355 0 min 0,000 mm 0,0 UV-I 63 W/m 10,2 C 3,2 km/h (1 Bft)
05.08.2016 17:55 11,3 C 11,3 C 93 % 1020,0 hPa 0,0 mm 1,7 km/h (1 Bft) N 355 0 min 0,000 mm 0,0 UV-I 62 W/m 10,2 C 3,2 km/h (1 Bft)
05.08.2016 17:56 11,2 C 11,3 C 93 % 1020,0 hPa 0,0 mm 1,2 km/h (1 Bft) N 355 0 min 0,000 mm 0,0 UV-I 62 W/m 10,1 C 3,2 km/h (1 Bft)
05.08.2016 17:57 11,3 C 11,3 C 92 % 1020,0 hPa 0,0 mm 1,7 km/h (1 Bft) NO 53 0 min 0,000 mm 0,0 UV-I 62 W/m 10,0 C 3,2 km/h (1 Bft)
05.08.2016 17:58 11,3 C 11,3 C 93 % 1020,0 hPa 0,0 mm 2,0 km/h (1 Bft) O-NO 71 0 min 0,000 mm 0,0 UV-I 60 W/m 10,2 C 4,8 km/h (1 Bft)
05.08.2016 17:59 11,3 C 11,3 C 93 % 1019,9 hPa 0,0 mm 0,6 km/h (0 Bft) O-NO 62 0 min 0,000 mm 0,0 UV-I 58 W/m 10,2 C 1,6 km/h (1 Bft)
05.08.2016 18:00 11,2 C 11,3 C 93 % 1020,0 hPa 0,0 mm 2,5 km/h (1 Bft) N-NW 344 0 min 0,000 mm 0,0 UV-I 54 W/m 10,1 C 4,8 km/h (1 Bft)
05.08.2016 18:01 11,2 C 11,2 C 93 % 1020,0 hPa 0,0 mm 2,2 km/h (1 Bft) N-NW 335 0 min 0,076 mm 0,0 UV-I 51 W/m 10,1 C 3,2 km/h (1 Bft)
05.08.2016 18:02 11,3 C 11,3 C 93 % 1019,9 hPa 0,0 mm 2,1 km/h (1 Bft) S 185 0 min 0,000 mm 0,0 UV-I 51 W/m 10,2 C 4,8 km/h (1 Bft)
05.08.2016 18:03 11,3 C 11,3 C 93 % 1020,0 hPa 0,0 mm 0,1 km/h (0 Bft) S 185 0 min 0,000 mm 0,0 UV-I 51 W/m 10,2 C 1,6 km/h (1 Bft)
05.08.2016 18:04 11,3 C 11,3 C 93 % 1020,0 hPa 0,2 mm 1,5 km/h (1 Bft) NW 319 0 min 0,000 mm 0,0 UV-I 51 W/m 10,2 C 3,2 km/h (1 Bft)
05.08.2016 18:05 11,2 C 11,3 C 93 % 1020,0 hPa 0,0 mm 2,6 km/h (1 Bft) N-NW 336 0 min 0,000 mm 0,0 UV-I 49 W/m 10,1 C 3,2 km/h (1 Bft)
05.08.2016 18:06 11,3 C 11,3 C 93 % 1020,0 hPa 0,0 mm 1,9 km/h (1 Bft) N 360 0 min 0,000 mm 0,0 UV-I 47 W/m 10,2 C 3,2 km/h (1 Bft)
05.08.2016 18:07 11,2 C 11,3 C 93 % 1020,0 hPa 0,0 mm 1,6 km/h (1 Bft) N 360 0 min 0,000 mm 0,0 UV-I 44 W/m 10,1 C 3,2 km/h (1 Bft)
05.08.2016 18:08 11,2 C 11,2 C 92 % 1020,2 hPa 0,0 mm 0,6 km/h (0 Bft) N 360 0 min 0,000 mm 0,0 UV-I 44 W/m 9,9 C 3,2 km/h (1 Bft)
05.08.2016 18:09 11,2 C 11,2 C 93 % 1020,2 hPa 0,0 mm 1,3 km/h (1 Bft) N 5 0 min 0,000 mm 0,0 UV-I 42 W/m 10,1 C 3,2 km/h (1 Bft)
05.08.2016 18:10 11,2 C 11,2 C 94 % 1020,2 hPa 0,0 mm 0,5 km/h (0 Bft) N 5 0 min 0,000 mm 0,0 UV-I 42 W/m 10,3 C 1,6 km/h (1 Bft)
05.08.2016 18:11 11,1 C 11,2 C 93 % 1020,2 hPa 0,0 mm 1,9 km/h (1 Bft) N 360 0 min 0,000 mm 0,0 UV-I 44 W/m 10,0 C 3,2 km/h (1 Bft)
05.08.2016 18:12 11,1 C 11,1 C 93 % 1020,2 hPa 0,0 mm 0,5 km/h (0 Bft) N 360 0 min 0,000 mm 0,0 UV-I 47 W/m 10,0 C 1,6 km/h (1 Bft)
05.08.2016 18:13 11,0 C 11,1 C 93 % 1020,2 hPa 0,0 mm 0,7 km/h (0 Bft) N 360 0 min 0,000 mm 0,0 UV-I 62 W/m 9,9 C 1,6 km/h (1 Bft)
05.08.2016 18:14 11,0 C 11,1 C 93 % 1020,2 hPa 0,0 mm 0,5 km/h (0 Bft) O 88 0 min 0,000 mm 0,0 UV-I 65 W/m 9,9 C 3,2 km/h (1 Bft)
05.08.2016 18:15 11,0 C 11,0 C 93 % 1020,1 hPa 0,0 mm 1,3 km/h (1 Bft) SO 125 0 min 0,000 mm 0,0 UV-I 69 W/m 9,9 C 3,2 km/h (1 Bft)
05.08.2016 18:16 11,1 C 11,1 C 93 % 1020,1 hPa 0,0 mm 0,0 km/h (0 Bft) SO 125 0 min 0,000 mm 0,0 UV-I 72 W/m 10,0 C 0,0 km/h (0 Bft)
05.08.2016 18:17 11,0 C 11,1 C 93 % 1020,1 hPa 0,2 mm 0,0 km/h (0 Bft) SO 126 0 min 0,000 mm 0,0 UV-I 72 W/m 9,9 C 0,0 km/h (0 Bft)
05.08.2016 18:18 11,0 C 11,1 C 93 % 1020,1 hPa 0,0 mm 0,0 km/h (0 Bft) O 84 0 min 0,000 mm 0,0 UV-I 69 W/m 9,9 C 0,0 km/h (0 Bft)
05.08.2016 18:19 11,0 C 11,1 C 93 % 1020,2 hPa 0,0 mm 0,0 km/h (0 Bft) O 84 0 min 0,000 mm 0,0 UV-I 65 W/m 9,9 C 0,0 km/h (0 Bft)
05.08.2016 18:20 10,9 C 11,0 C 93 % 1020,1 hPa 0,0 mm 0,0 km/h (0 Bft) O 84 0 min 0,000 mm 0,0 UV-I 65 W/m 9,8 C 0,0 km/h (0 Bft)
05.08.2016 18:21 10,9 C 10,9 C 93 % 1020,2 hPa 0,0 mm 2,1 km/h (1 Bft) NO 37 0 min 0,000 mm 0,0 UV-I 67 W/m 9,8 C 4,8 km/h (1 Bft)
05.08.2016 18:22 10,8 C 10,9 C 93 % 1020,2 hPa 0,0 mm 1,1 km/h (1 Bft) NO 38 0 min 0,000 mm 0,0 UV-I 70 W/m 9,7 C 3,2 km/h (1 Bft)
05.08.2016 18:23 10,8 C 10,8 C 93 % 1020,2 hPa 0,0 mm 1,2 km/h (1 Bft) NO 44 0 min 0,000 mm 0,5 UV-I 74 W/m 9,7 C 1,6 km/h (1 Bft)
05.08.2016 18:24 10,8 C 10,8 C 93 % 1020,1 hPa 0,2 mm 1,7 km/h (1 Bft) NO 44 0 min 0,000 mm 0,5 UV-I 76 W/m 9,7 C 3,2 km/h (1 Bft)
05.08.2016 18:25 10,7 C 10,8 C 93 % 1020,2 hPa 0,0 mm 2,0 km/h (1 Bft) NO 44 0 min 0,000 mm 0,5 UV-I 77 W/m 9,6 C 3,2 km/h (1 Bft)
05.08.2016 18:26 10,7 C 10,8 C 93 % 1020,1 hPa 0,0 mm 2,5 km/h (1 Bft) O-SO 123 0 min 0,000 mm 0,5 UV-I 79 W/m 9,6 C 4,8 km/h (1 Bft)
05.08.2016 18:27 10,7 C 10,7 C 94 % 1020,1 hPa 0,0 mm 3,2 km/h (1 Bft) N-NO 22 0 min 0,000 mm 0,5 UV-I 79 W/m 9,8 C 4,8 km/h (1 Bft)
05.08.2016 18:28 10,8 C 10,8 C 94 % 1020,1 hPa 0,0 mm 2,7 km/h (1 Bft) O-NO 63 0 min 0,000 mm 0,5 UV-I 81 W/m 9,9 C 4,8 km/h (1 Bft)
05.08.2016 18:29 10,8 C 10,8 C 94 % 1020,1 hPa 0,0 mm 2,0 km/h (1 Bft) NO 40 0 min 0,000 mm 0,5 UV-I 81 W/m 9,9 C 4,8 km/h (1 Bft)
05.08.2016 18:30 10,9 C 10,9 C 94 % 1020,1 hPa 0,0 mm 2,9 km/h (1 Bft) N-NO 17 0 min 0,000 mm 0,5 UV-I 81 W/m 10,0 C 6,4 km/h (2 Bft)
05.08.2016 18:31 10,9 C 10,9 C 94 % 1020,0 hPa 0,0 mm 2,5 km/h (1 Bft) NO 40 0 min 0,000 mm 0,5 UV-I 76 W/m 10,0 C 4,8 km/h (1 Bft)
05.08.2016 18:32 10,9 C 10,9 C 93 % 1020,1 hPa 0,0 mm 1,6 km/h (1 Bft) NO 40 0 min 0,000 mm 0,0 UV-I 70 W/m 9,8 C 3,2 km/h (1 Bft)
05.08.2016 18:33 10,9 C 10,9 C 93 % 1020,1 hPa 0,0 mm 1,8 km/h (1 Bft) N-NO 22 0 min 0,000 mm 0,0 UV-I 63 W/m 9,8 C 4,8 km/h (1 Bft)
05.08.2016 18:34 10,9 C 10,9 C 93 % 1020,1 hPa 0,0 mm 0,8 km/h (0 Bft) N-NO 22 0 min 0,000 mm 0,0 UV-I 58 W/m 9,8 C 1,6 km/h (1 Bft)
05.08.2016 18:35 11,0 C 11,0 C 93 % 1020,2 hPa 0,0 mm 1,5 km/h (1 Bft) N-NO 21 0 min 0,000 mm 0,0 UV-I 56 W/m 9,9 C 3,2 km/h (1 Bft)
05.08.2016 18:36 10,9 C 11,0 C 92 % 1020,2 hPa 0,0 mm 3,2 km/h (1 Bft) W-NW 294 0 min 0,000 mm 0,0 UV-I 60 W/m 9,7 C 6,4 km/h (2 Bft)
05.08.2016 18:37 11,0 C 11,0 C 93 % 1020,1 hPa 0,0 mm 2,4 km/h (1 Bft) NO 36 0 min 0,000 mm 0,0 UV-I 62 W/m 9,9 C 6,4 km/h (2 Bft)
05.08.2016 18:38 11,0 C 11,0 C 93 % 1020,1 hPa 0,0 mm 1,3 km/h (1 Bft) NO 36 0 min 0,000 mm 0,0 UV-I 62 W/m 9,9 C 3,2 km/h (1 Bft)
05.08.2016 18:39 11,0 C 11,0 C 93 % 1020,2 hPa 0,0 mm 1,5 km/h (1 Bft) W-SW 252 0 min 0,000 mm 0,0 UV-I 62 W/m 9,9 C 3,2 km/h (1 Bft)
05.08.2016 18:40 11,0 C 11,0 C 93 % 1020,2 hPa 0,0 mm 1,9 km/h (1 Bft) N 355 0 min 0,000 mm 0,0 UV-I 60 W/m 9,9 C 4,8 km/h (1 Bft)
05.08.2016 18:41 11,1 C 11,1 C 93 % 1020,2 hPa 0,0 mm 0,7 km/h (0 Bft) N 355 0 min 0,000 mm 0,0 UV-I 56 W/m 10,0 C 3,2 km/h (1 Bft)
05.08.2016 18:42 11,0 C 11,1 C 93 % 1020,2 hPa 0,0 mm 1,8 km/h (1 Bft) N 355 0 min 0,000 mm 0,0 UV-I 53 W/m 9,9 C 4,8 km/h (1 Bft)
05.08.2016 18:43 10,9 C 11,0 C 93 % 1020,1 hPa 0,0 mm 3,1 km/h (1 Bft) NO 39 0 min 0,000 mm 0,0 UV-I 46 W/m 9,8 C 4,8 km/h (1 Bft)
05.08.2016 18:44 10,9 C 10,9 C 94 % 1020,2 hPa 0,0 mm 3,3 km/h (1 Bft) S-SO 154 0 min 0,000 mm 0,0 UV-I 44 W/m 10,0 C 4,8 km/h (1 Bft)
05.08.2016 18:45 10,9 C 10,9 C 93 % 1020,3 hPa 0,0 mm 2,0 km/h (1 Bft) O-SO 109 0 min 0,000 mm 0,0 UV-I 42 W/m 9,8 C 3,2 km/h (1 Bft)
05.08.2016 18:46 10,9 C 10,9 C 93 % 1020,3 hPa 0,0 mm 2,1 km/h (1 Bft) N-NO 26 0 min 0,000 mm 0,0 UV-I 40 W/m 9,8 C 3,2 km/h (1 Bft)
05.08.2016 18:47 10,9 C 10,9 C 91 % 1020,3 hPa 0,0 mm 3,0 km/h (1 Bft) W-SW 248 0 min 0,000 mm 0,0 UV-I 39 W/m 9,5 C 6,4 km/h (2 Bft)
05.08.2016 18:48 10,8 C 10,9 C 92 % 1020,3 hPa 0,0 mm 3,3 km/h (1 Bft) S-SO 156 0 min 0,000 mm 0,0 UV-I 33 W/m 9,6 C 6,4 km/h (2 Bft)
05.08.2016 18:49 10,8 C 10,8 C 92 % 1020,3 hPa 0,0 mm 1,1 km/h (1 Bft) S-SO 156 0 min 0,000 mm 0,0 UV-I 30 W/m 9,6 C 3,2 km/h (1 Bft)
05.08.2016 18:50 10,7 C 10,8 C 92 % 1020,3 hPa 0,0 mm 0,8 km/h (0 Bft) S-SO 156 0 min 0,000 mm 0,0 UV-I 28 W/m 9,5 C 1,6 km/h (1 Bft)
05.08.2016 18:51 10,7 C 10,7 C 93 % 1020,3 hPa 0,0 mm 0,6 km/h (0 Bft) S-SO 156 0 min 0,000 mm 0,0 UV-I 28 W/m 9,6 C 1,6 km/h (1 Bft)
05.08.2016 18:52 10,7 C 10,7 C 93 % 1020,4 hPa 0,0 mm 0,7 km/h (0 Bft) N-NW 344 0 min 0,000 mm 0,0 UV-I 28 W/m 9,6 C 1,6 km/h (1 Bft)
05.08.2016 18:53 10,7 C 10,7 C 92 % 1020,3 hPa 0,0 mm 3,8 km/h (1 Bft) N-NO 24 0 min 0,000 mm 0,0 UV-I 26 W/m 9,5 C 4,8 km/h (1 Bft)
05.08.2016 18:54 10,7 C 10,7 C 92 % 1020,4 hPa 0,0 mm 4,2 km/h (1 Bft) O-NO 62 0 min 0,000 mm 0,0 UV-I 26 W/m 9,5 C 6,4 km/h (2 Bft)
05.08.2016 18:55 10,7 C 10,7 C 93 % 1020,4 hPa 0,0 mm 4,0 km/h (1 Bft) O 98 0 min 0,000 mm 0,0 UV-I 26 W/m 9,6 C 4,8 km/h (1 Bft)
05.08.2016 18:56 10,7 C 10,7 C 93 % 1020,5 hPa 0,0 mm 3,2 km/h (1 Bft) O 90 0 min 0,000 mm 0,0 UV-I 30 W/m 9,6 C 6,4 km/h (2 Bft)
05.08.2016 18:57 10,6 C 10,7 C 93 % 1020,4 hPa 0,0 mm 3,2 km/h (1 Bft) NO 45 0 min 0,000 mm 0,0 UV-I 32 W/m 9,5 C 4,8 km/h (1 Bft)
05.08.2016 18:58 10,6 C 10,6 C 93 % 1020,4 hPa 0,0 mm 3,2 km/h (1 Bft) O-NO 67 0 min 0,000 mm 0,0 UV-I 33 W/m 9,5 C 4,8 km/h (1 Bft)
05.08.2016 18:59 10,6 C 10,6 C 94 % 1020,5 hPa 0,0 mm 3,2 km/h (1 Bft) O-NO 67 0 min 0,000 mm 0,0 UV-I 33 W/m 9,7 C 4,8 km/h (1 Bft)
05.08.2016 19:00 10,5 C 10,6 C 94 % 1020,5 hPa 0,0 mm 4,8 km/h (1 Bft) O-NO 67 0 min 0,025 mm 0,0 UV-I 35 W/m 9,6 C 8,0 km/h (2 Bft)
05.08.2016 19:01 10,5 C 10,5 C 94 % 1020,5 hPa 0,0 mm 4,8 km/h (1 Bft) NO 45 0 min 0,000 mm 0,0 UV-I 35 W/m 9,6 C 6,4 km/h (2 Bft)
05.08.2016 19:02 10,5 C 10,5 C 93 % 1020,4 hPa 0,0 mm 4,8 km/h (1 Bft) O-NO 67 0 min 0,000 mm 0,0 UV-I 35 W/m 9,4 C 6,4 km/h (2 Bft)
05.08.2016 19:03 10,5 C 10,6 C 93 % 1020,5 hPa 0,0 mm 6,4 km/h (2 Bft) O-NO 67 0 min 0,000 mm 0,0 UV-I 35 W/m 9,4 C 6,4 km/h (2 Bft)
05.08.2016 19:04 10,5 C 10,6 C 93 % 1020,5 hPa 0,0 mm 3,2 km/h (1 Bft) N-NO 22 0 min 0,000 mm 0,0 UV-I 37 W/m 9,4 C 4,8 km/h (1 Bft)
05.08.2016 19:05 10,4 C 10,5 C 93 % 1020,5 hPa 0,0 mm 3,2 km/h (1 Bft) NO 45 0 min 0,000 mm 0,0 UV-I 37 W/m 9,3 C 6,4 km/h (2 Bft)
05.08.2016 19:06 10,4 C 10,4 C 93 % 1020,4 hPa 0,0 mm 1,6 km/h (1 Bft) NO 45 0 min 0,000 mm 0,0 UV-I 39 W/m 9,3 C 3,2 km/h (1 Bft)
05.08.2016 19:07 10,4 C 10,4 C 93 % 1020,4 hPa 0,0 mm 1,6 km/h (1 Bft) NO 45 0 min 0,000 mm 0,0 UV-I 37 W/m 9,3 C 3,2 km/h (1 Bft)
05.08.2016 19:08 10,4 C 10,4 C 93 % 1020,4 hPa 0,0 mm 1,6 km/h (1 Bft) N-NW 337 0 min 0,000 mm 0,0 UV-I 37 W/m 9,3 C 3,2 km/h (1 Bft)
05.08.2016 19:09 10,4 C 10,4 C 92 % 1020,5 hPa 0,0 mm 1,6 km/h (1 Bft) W-NW 292 0 min 0,000 mm 0,0 UV-I 35 W/m 9,2 C 3,2 km/h (1 Bft)
05.08.2016 19:10 10,5 C 10,5 C 93 % 1020,4 hPa 0,0 mm 1,6 km/h (1 Bft) W-NW 292 0 min 0,000 mm 0,0 UV-I 33 W/m 9,4 C 3,2 km/h (1 Bft)
05.08.2016 19:11 10,6 C 10,6 C 93 % 1020,4 hPa 0,0 mm 0,0 km/h (0 Bft) W-NW 292 0 min 0,000 mm 0,0 UV-I 32 W/m 9,5 C 1,6 km/h (1 Bft)
05.08.2016 19:12 10,6 C 10,6 C 93 % 1020,4 hPa 0,0 mm 0,0 km/h (0 Bft) W-NW 292 0 min 0,000 mm 0,0 UV-I 30 W/m 9,5 C 1,6 km/h (1 Bft)
05.08.2016 19:13 10,5 C 10,6 C 93 % 1020,4 hPa 0,0 mm 1,6 km/h (1 Bft) N-NW 337 0 min 0,000 mm 0,0 UV-I 28 W/m 9,4 C 3,2 km/h (1 Bft)
05.08.2016 19:14 10,4 C 10,5 C 93 % 1020,5 hPa 0,0 mm 1,6 km/h (1 Bft) N 360 0 min 0,000 mm 0,0 UV-I 28 W/m 9,3 C 3,2 km/h (1 Bft)
05.08.2016 19:15 10,4 C 10,4 C 94 % 1020,5 hPa 0,0 mm 3,2 km/h (1 Bft) N-NO 22 0 min 0,000 mm 0,0 UV-I 28 W/m 9,5 C 4,8 km/h (1 Bft)
05.08.2016 19:16 10,3 C 10,4 C 93 % 1020,5 hPa 0,0 mm 1,6 km/h (1 Bft) O 90 0 min 0,000 mm 0,0 UV-I 28 W/m 9,2 C 3,2 km/h (1 Bft)
05.08.2016 19:17 10,3 C 10,3 C 93 % 1020,5 hPa 0,0 mm 0,0 km/h (0 Bft) O 90 0 min 0,000 mm 0,0 UV-I 28 W/m 9,2 C 1,6 km/h (1 Bft)
05.08.2016 19:18 10,3 C 10,3 C 94 % 1020,5 hPa 0,0 mm 0,0 km/h (0 Bft) O 90 0 min 0,000 mm 0,0 UV-I 28 W/m 9,4 C 1,6 km/h (1 Bft)
05.08.2016 19:19 10,2 C 10,3 C 94 % 1020,6 hPa 0,0 mm 0,0 km/h (0 Bft) O 90 0 min 0,000 mm 0,0 UV-I 26 W/m 9,3 C 1,6 km/h (1 Bft)
05.08.2016 19:20 10,2 C 10,2 C 94 % 1020,6 hPa 0,0 mm 0,0 km/h (0 Bft) O 90 0 min 0,000 mm 0,0 UV-I 26 W/m 9,3 C 1,6 km/h (1 Bft)
05.08.2016 19:21 10,2 C 10,2 C 94 % 1020,6 hPa 0,0 mm 0,0 km/h (0 Bft) O 90 0 min 0,000 mm 0,0 UV-I 28 W/m 9,3 C 1,6 km/h (1 Bft)
05.08.2016 19:22 10,2 C 10,2 C 94 % 1020,5 hPa 0,0 mm 0,0 km/h (0 Bft) O 90 0 min 0,000 mm 0,0 UV-I 28 W/m 9,3 C 1,6 km/h (1 Bft)
05.08.2016 19:23 10,2 C 10,2 C 94 % 1020,6 hPa 0,0 mm 1,6 km/h (1 Bft) N-NO 22 0 min 0,000 mm 0,0 UV-I 28 W/m 9,3 C 3,2 km/h (1 Bft)
05.08.2016 19:24 10,2 C 10,3 C 95 % 1020,6 hPa 0,0 mm 1,6 km/h (1 Bft) N-NO 22 0 min 0,000 mm 0,0 UV-I 26 W/m 9,4 C 3,2 km/h (1 Bft)
05.08.2016 19:25 10,3 C 10,3 C 94 % 1020,6 hPa 0,0 mm 1,6 km/h (1 Bft) N-NO 22 0 min 0,000 mm 0,0 UV-I 26 W/m 9,4 C 3,2 km/h (1 Bft)
05.08.2016 19:26 10,3 C 10,3 C 94 % 1020,6 hPa 0,0 mm 1,6 km/h (1 Bft) N 360 0 min 0,000 mm 0,0 UV-I 25 W/m 9,4 C 3,2 km/h (1 Bft)
05.08.2016 19:27 10,3 C 10,3 C 94 % 1020,6 hPa 0,0 mm 1,6 km/h (1 Bft) N 360 0 min 0,000 mm 0,0 UV-I 25 W/m 9,4 C 3,2 km/h (1 Bft)
05.08.2016 19:28 10,3 C 10,3 C 94 % 1020,6 hPa 0,0 mm 1,6 km/h (1 Bft) N 360 0 min 0,000 mm 0,0 UV-I 25 W/m 9,4 C 1,6 km/h (1 Bft)
05.08.2016 19:29 10,3 C 10,3 C 94 % 1020,6 hPa 0,0 mm 1,6 km/h (1 Bft) N 360 0 min 0,000 mm 0,0 UV-I 23 W/m 9,4 C 3,2 km/h (1 Bft)
05.08.2016 19:30 10,3 C 10,3 C 94 % 1020,6 hPa 0,0 mm 0,0 km/h (0 Bft) NW 315 0 min 0,000 mm 0,0 UV-I 23 W/m 9,4 C 3,2 km/h (1 Bft)
05.08.2016 19:31 10,3 C 10,3 C 95 % 1020,7 hPa 0,0 mm 3,2 km/h (1 Bft) NW 315 0 min 0,000 mm 0,0 UV-I 23 W/m 9,5 C 6,4 km/h (2 Bft)
05.08.2016 19:32 10,3 C 10,3 C 95 % 1020,8 hPa 0,0 mm 1,6 km/h (1 Bft) N 360 0 min 0,000 mm 0,0 UV-I 23 W/m 9,5 C 3,2 km/h (1 Bft)
05.08.2016 19:33 10,3 C 10,3 C 95 % 1020,7 hPa 0,0 mm 1,6 km/h (1 Bft) N 360 0 min 0,000 mm 0,0 UV-I 23 W/m 9,5 C 3,2 km/h (1 Bft)
05.08.2016 19:34 10,2 C 10,3 C 95 % 1020,7 hPa 0,0 mm 3,2 km/h (1 Bft) N-NW 337 0 min 0,000 mm 0,0 UV-I 23 W/m 9,4 C 4,8 km/h (1 Bft)
05.08.2016 19:35 10,2 C 10,2 C 95 % 1020,7 hPa 0,0 mm 1,6 km/h (1 Bft) NO 45 0 min 0,000 mm 0,0 UV-I 23 W/m 9,4 C 3,2 km/h (1 Bft)
05.08.2016 19:36 10,2 C 10,2 C 95 % 1020,7 hPa 0,0 mm 1,6 km/h (1 Bft) NO 45 0 min 0,000 mm 0,0 UV-I 21 W/m 9,4 C 3,2 km/h (1 Bft)
05.08.2016 19:37 10,2 C 10,2 C 95 % 1020,7 hPa 0,0 mm 1,6 km/h (1 Bft) N 360 0 min 0,000 mm 0,0 UV-I 21 W/m 9,4 C 3,2 km/h (1 Bft)
05.08.2016 19:38 10,2 C 10,2 C 95 % 1020,7 hPa 0,0 mm 3,2 km/h (1 Bft) N 360 0 min 0,000 mm 0,0 UV-I 19 W/m 9,4 C 4,8 km/h (1 Bft)
05.08.2016 19:39 10,2 C 10,2 C 95 % 1020,8 hPa 0,0 mm 3,2 km/h (1 Bft) N 360 0 min 0,000 mm 0,0 UV-I 19 W/m 9,4 C 4,8 km/h (1 Bft)
05.08.2016 19:40 10,2 C 10,2 C 95 % 1020,8 hPa 0,0 mm 1,6 km/h (1 Bft) NW 315 0 min 0,000 mm 0,0 UV-I 18 W/m 9,4 C 3,2 km/h (1 Bft)
05.08.2016 19:41 10,2 C 10,2 C 95 % 1020,8 hPa 0,0 mm 3,2 km/h (1 Bft) W-NW 292 0 min 0,000 mm 0,0 UV-I 18 W/m 9,4 C 4,8 km/h (1 Bft)
05.08.2016 19:42 10,2 C 10,3 C 95 % 1020,8 hPa 0,0 mm 1,6 km/h (1 Bft) W-NW 292 0 min 0,000 mm 0,0 UV-I 16 W/m 9,4 C 3,2 km/h (1 Bft)
05.08.2016 19:43 10,3 C 10,3 C 95 % 1020,8 hPa 0,0 mm 1,6 km/h (1 Bft) W-SW 247 0 min 0,000 mm 0,0 UV-I 16 W/m 9,5 C 3,2 km/h (1 Bft)
05.08.2016 19:44 10,3 C 10,3 C 94 % 1020,8 hPa 0,0 mm 1,6 km/h (1 Bft) N-NW 337 0 min 0,000 mm 0,0 UV-I 16 W/m 9,4 C 3,2 km/h (1 Bft)
05.08.2016 19:45 10,3 C 10,3 C 94 % 1020,8 hPa 0,0 mm 1,6 km/h (1 Bft) N-NW 337 0 min 0,000 mm 0,0 UV-I 16 W/m 9,4 C 3,2 km/h (1 Bft)
05.08.2016 19:46 10,2 C 10,2 C 94 % 1020,8 hPa 0,0 mm 1,6 km/h (1 Bft) N-NW 337 0 min 0,000 mm 0,0 UV-I 14 W/m 9,3 C 3,2 km/h (1 Bft)
05.08.2016 19:47 10,2 C 10,2 C 94 % 1020,8 hPa 0,0 mm 1,6 km/h (1 Bft) N 360 0 min 0,000 mm 0,0 UV-I 14 W/m 9,3 C 3,2 km/h (1 Bft)
05.08.2016 19:48 10,2 C 10,2 C 94 % 1020,9 hPa 0,0 mm 1,6 km/h (1 Bft) N 360 0 min 0,000 mm 0,0 UV-I 12 W/m 9,3 C 4,8 km/h (1 Bft)
05.08.2016 19:49 10,2 C 10,2 C 94 % 1020,9 hPa 0,0 mm 1,6 km/h (1 Bft) N 360 0 min 0,000 mm 0,0 UV-I 12 W/m 9,3 C 3,2 km/h (1 Bft)
05.08.2016 19:50 10,1 C 10,2 C 94 % 1020,9 hPa 0,0 mm 1,6 km/h (1 Bft) N 360 0 min 0,000 mm 0,0 UV-I 11 W/m 9,2 C 3,2 km/h (1 Bft)
05.08.2016 19:51 10,1 C 10,1 C 95 % 1020,9 hPa 0,0 mm 1,6 km/h (1 Bft) N 360 0 min 0,000 mm 0,0 UV-I 11 W/m 9,3 C 3,2 km/h (1 Bft)
05.08.2016 19:52 10,1 C 10,1 C 95 % 1020,9 hPa 0,0 mm 3,2 km/h (1 Bft) N 360 0 min 0,000 mm 0,0 UV-I 9 W/m 9,3 C 6,4 km/h (2 Bft)
05.08.2016 19:53 10,2 C 10,2 C 95 % 1020,9 hPa 0,0 mm 1,6 km/h (1 Bft) NW 315 0 min 0,000 mm 0,0 UV-I 9 W/m 9,4 C 3,2 km/h (1 Bft)
05.08.2016 19:54 10,1 C 10,1 C 95 % 1021,0 hPa 0,0 mm 3,2 km/h (1 Bft) N-NO 22 0 min 0,000 mm 0,0 UV-I 7 W/m 9,3 C 4,8 km/h (1 Bft)
05.08.2016 19:55 10,1 C 10,1 C 95 % 1021,0 hPa 0,0 mm 1,6 km/h (1 Bft) N-NO 22 0 min 0,000 mm 0,0 UV-I 7 W/m 9,3 C 4,8 km/h (1 Bft)
05.08.2016 19:56 10,1 C 10,1 C 94 % 1021,0 hPa 0,0 mm 1,6 km/h (1 Bft) N 360 0 min 0,000 mm 0,0 UV-I 7 W/m 9,2 C 3,2 km/h (1 Bft)
05.08.2016 19:57 10,1 C 10,1 C 94 % 1021,0 hPa 0,0 mm 1,6 km/h (1 Bft) N 360 0 min 0,000 mm 0,0 UV-I 7 W/m 9,2 C 6,4 km/h (2 Bft)
05.08.2016 19:58 10,1 C 10,1 C 94 % 1021,0 hPa 0,0 mm 1,6 km/h (1 Bft) O-NO 67 0 min 0,000 mm 0,0 UV-I 7 W/m 9,2 C 4,8 km/h (1 Bft)
05.08.2016 19:59 10,1 C 10,1 C 94 % 1021,0 hPa 0,0 mm 0,0 km/h (0 Bft) O-SO 112 0 min 0,000 mm 0,0 UV-I 7 W/m 9,2 C 1,6 km/h (1 Bft)
05.08.2016 20:00 10,1 C 10,1 C 94 % 1021,0 hPa 0,0 mm 0,0 km/h (0 Bft) NO 45 0 min 0,000 mm 0,0 UV-I 7 W/m 9,2 C 3,2 km/h (1 Bft)
05.08.2016 20:01 10,1 C 10,1 C 94 % 1021,0 hPa 0,0 mm 0,0 km/h (0 Bft) NO 45 0 min 0,000 mm 0,0 UV-I 5 W/m 9,2 C 1,6 km/h (1 Bft)
05.08.2016 20:02 10,1 C 10,1 C 94 % 1021,1 hPa 0,0 mm 0,0 km/h (0 Bft) O 90 0 min 0,000 mm 0,0 UV-I 5 W/m 9,2 C 3,2 km/h (1 Bft)
05.08.2016 20:03 10,1 C 10,1 C 94 % 1021,1 hPa 0,0 mm 1,6 km/h (1 Bft) O 90 0 min 0,000 mm 0,0 UV-I 5 W/m 9,2 C 3,2 km/h (1 Bft)
05.08.2016 20:04 10,1 C 10,1 C 94 % 1021,1 hPa 0,0 mm 1,6 km/h (1 Bft) N-NW 337 0 min 0,000 mm 0,0 UV-I 5 W/m 9,2 C 3,2 km/h (1 Bft)
05.08.2016 20:05 10,1 C 10,1 C 95 % 1021,1 hPa 0,0 mm 1,6 km/h (1 Bft) N-NW 337 0 min 0,000 mm 0,0 UV-I 5 W/m 9,3 C 3,2 km/h (1 Bft)
05.08.2016 20:06 10,0 C 10,1 C 95 % 1021,1 hPa 0,0 mm 1,6 km/h (1 Bft) N-NW 337 0 min 0,000 mm 0,0 UV-I 5 W/m 9,2 C 3,2 km/h (1 Bft)
05.08.2016 20:07 10,0 C 10,1 C 95 % 1021,1 hPa 0,0 mm 0,0 km/h (0 Bft) N-NW 337 0 min 0,000 mm 0,0 UV-I 5 W/m 9,2 C 1,6 km/h (1 Bft)
05.08.2016 20:08 10,1 C 10,1 C 95 % 1021,2 hPa 0,0 mm 1,6 km/h (1 Bft) N-NW 337 0 min 0,000 mm 0,0 UV-I 5 W/m 9,3 C 1,6 km/h (1 Bft)
05.08.2016 20:09 10,0 C 10,1 C 95 % 1021,1 hPa 0,0 mm 0,0 km/h (0 Bft) N-NW 337 0 min 0,000 mm 0,0 UV-I 5 W/m 9,2 C 1,6 km/h (1 Bft)
05.08.2016 20:10 10,0 C 10,1 C 95 % 1021,2 hPa 0,0 mm 1,6 km/h (1 Bft) N 360 0 min 0,000 mm 0,0 UV-I 5 W/m 9,2 C 3,2 km/h (1 Bft)
05.08.2016 20:11 10,0 C 10,0 C 95 % 1021,2 hPa 0,0 mm 1,6 km/h (1 Bft) N 360 0 min 0,000 mm 0,0 UV-I 5 W/m 9,2 C 3,2 km/h (1 Bft)
05.08.2016 20:12 10,0 C 10,0 C 95 % 1021,2 hPa 0,0 mm 0,0 km/h (0 Bft) N 360 0 min 0,000 mm 0,0 UV-I 0 W/m 9,2 C 1,6 km/h (1 Bft)
05.08.2016 20:13 10,0 C 10,0 C 95 % 1021,3 hPa 0,0 mm 0,0 km/h (0 Bft) N 360 0 min 0,000 mm 0,0 UV-I 0 W/m 9,2 C 3,2 km/h (1 Bft)
05.08.2016 20:14 9,9 C 10,0 C 95 % 1021,2 hPa 0,0 mm 1,6 km/h (1 Bft) N 360 0 min 0,000 mm 0,0 UV-I 0 W/m 9,1 C 3,2 km/h (1 Bft)
05.08.2016 20:15 9,9 C 10,0 C 94 % 1021,3 hPa 0,0 mm 0,0 km/h (0 Bft) N 360 0 min 0,000 mm 0,0 UV-I 0 W/m 9,0 C 3,2 km/h (1 Bft)
05.08.2016 20:16 10,0 C 10,0 C 95 % 1021,4 hPa 0,0 mm 1,6 km/h (1 Bft) N 360 0 min 0,000 mm 0,0 UV-I 0 W/m 9,2 C 3,2 km/h (1 Bft)
05.08.2016 20:17 10,0 C 10,0 C 95 % 1021,3 hPa 0,0 mm 1,6 km/h (1 Bft) NO 45 0 min 0,000 mm 0,0 UV-I 0 W/m 9,2 C 3,2 km/h (1 Bft)
05.08.2016 20:18 10,0 C 10,0 C 94 % 1021,4 hPa 0,0 mm 0,0 km/h (0 Bft) NO 45 0 min 0,000 mm 0,0 UV-I 0 W/m 9,1 C 1,6 km/h (1 Bft)
05.08.2016 20:19 10,0 C 10,1 C 94 % 1021,4 hPa 0,0 mm 0,0 km/h (0 Bft) NO 45 0 min 0,000 mm 0,0 UV-I 0 W/m 9,1 C 1,6 km/h (1 Bft)
05.08.2016 20:20 10,0 C 10,1 C 94 % 1021,5 hPa 0,0 mm 0,0 km/h (0 Bft) NO 45 0 min 0,000 mm 0,0 UV-I 0 W/m 9,1 C 1,6 km/h (1 Bft)
05.08.2016 20:21 10,1 C 10,1 C 94 % 1021,5 hPa 0,0 mm 0,0 km/h (0 Bft) NO 45 0 min 0,000 mm 0,0 UV-I 0 W/m 9,2 C 1,6 km/h (1 Bft)
05.08.2016 20:22 10,0 C 10,1 C 94 % 1021,5 hPa 0,0 mm 0,0 km/h (0 Bft) NO 45 0 min 0,000 mm 0,0 UV-I 0 W/m 9,1 C 1,6 km/h (1 Bft)
05.08.2016 20:23 10,0 C 10,1 C 94 % 1021,5 hPa 0,0 mm 0,0 km/h (0 Bft) NO 45 0 min 0,000 mm 0,0 UV-I 0 W/m 9,1 C 1,6 km/h (1 Bft)
05.08.2016 20:24 10,0 C 10,0 C 94 % 1021,5 hPa 0,0 mm 0,0 km/h (0 Bft) NO 45 0 min 0,000 mm 0,0 UV-I 0 W/m 9,1 C 1,6 km/h (1 Bft)
05.08.2016 20:25 10,1 C 10,1 C 95 % 1021,5 hPa 0,0 mm 3,2 km/h (1 Bft) W 270 0 min 0,000 mm 0,0 UV-I 0 W/m 9,3 C 4,8 km/h (1 Bft)
05.08.2016 20:26 10,1 C 10,1 C 94 % 1021,6 hPa 0,0 mm 4,8 km/h (1 Bft) W-SW 247 0 min 0,000 mm 0,0 UV-I 0 W/m 9,2 C 8,0 km/h (2 Bft)
05.08.2016 20:27 10,1 C 10,2 C 94 % 1021,5 hPa 0,0 mm 1,6 km/h (1 Bft) W-SW 247 0 min 0,000 mm 0,0 UV-I 0 W/m 9,2 C 3,2 km/h (1 Bft)
05.08.2016 20:28 10,1 C 10,1 C 94 % 1021,6 hPa 0,0 mm 1,6 km/h (1 Bft) W-SW 247 0 min 0,000 mm 0,0 UV-I 0 W/m 9,2 C 3,2 km/h (1 Bft)
05.08.2016 20:29 10,1 C 10,1 C 94 % 1021,6 hPa 0,0 mm 1,6 km/h (1 Bft) W-SW 247 0 min 0,000 mm 0,0 UV-I 0 W/m 9,2 C 3,2 km/h (1 Bft)
05.08.2016 20:30 10,1 C 10,1 C 94 % 1021,6 hPa 0,0 mm 0,0 km/h (0 Bft) W-SW 247 0 min 0,000 mm 0,0 UV-I 0 W/m 9,2 C 1,6 km/h (1 Bft)
05.08.2016 20:31 10,1 C 10,1 C 94 % 1021,6 hPa 0,0 mm 0,0 km/h (0 Bft) W-SW 247 0 min 0,000 mm 0,0 UV-I 0 W/m 9,2 C 1,6 km/h (1 Bft)
05.08.2016 20:32 10,1 C 10,1 C 94 % 1021,6 hPa 0,0 mm 0,0 km/h (0 Bft) W-SW 247 0 min 0,000 mm 0,0 UV-I 0 W/m 9,2 C 1,6 km/h (1 Bft)
05.08.2016 20:33 10,1 C 10,1 C 94 % 1021,6 hPa 0,0 mm 0,0 km/h (0 Bft) W-SW 247 0 min 0,000 mm 0,0 UV-I 0 W/m 9,2 C 3,2 km/h (1 Bft)
05.08.2016 20:34 10,1 C 10,1 C 94 % 1021,7 hPa 0,0 mm 0,0 km/h (0 Bft) W-SW 247 0 min 0,000 mm 0,0 UV-I 0 W/m 9,2 C 1,6 km/h (1 Bft)
05.08.2016 20:35 10,1 C 10,1 C 94 % 1021,7 hPa 0,0 mm 0,0 km/h (0 Bft) W-SW 247 0 min 0,000 mm 0,0 UV-I 0 W/m 9,2 C 1,6 km/h (1 Bft)
05.08.2016 20:36 10,0 C 10,1 C 94 % 1021,7 hPa 0,0 mm 0,0 km/h (0 Bft) W-SW 247 0 min 0,000 mm 0,0 UV-I 0 W/m 9,1 C 1,6 km/h (1 Bft)
05.08.2016 20:37 10,1 C 10,1 C 94 % 1021,7 hPa 0,0 mm 0,0 km/h (0 Bft) W-SW 247 0 min 0,000 mm 0,0 UV-I 0 W/m 9,2 C 1,6 km/h (1 Bft)
05.08.2016 20:38 10,0 C 10,1 C 94 % 1021,8 hPa 0,0 mm 0,0 km/h (0 Bft) N 0 0 min 0,000 mm 0,0 UV-I 0 W/m 9,1 C 0,0 km/h (0 Bft)
05.08.2016 20:39 10,1 C 10,1 C 94 % 1021,8 hPa 0,0 mm 0,0 km/h (0 Bft) N 0 0 min 0,000 mm 0,0 UV-I 0 W/m 9,2 C 0,0 km/h (0 Bft)
05.08.2016 20:40 10,1 C 10,1 C 94 % 1021,8 hPa 0,0 mm 1,6 km/h (1 Bft) W-SW 247 0 min 0,000 mm 0,0 UV-I 0 W/m 9,2 C 1,6 km/h (1 Bft)
05.08.2016 20:41 10,1 C 10,1 C 94 % 1021,9 hPa 0,0 mm 0,0 km/h (0 Bft) N 0 0 min 0,000 mm 0,0 UV-I 0 W/m 9,2 C 0,0 km/h (0 Bft)
05.08.2016 20:42 10,1 C 10,1 C 94 % 1021,9 hPa 0,0 mm 0,0 km/h (0 Bft) W-SW 247 0 min 0,000 mm 0,0 UV-I 0 W/m 9,2 C 1,6 km/h (1 Bft)
05.08.2016 20:43 10,1 C 10,1 C 95 % 1021,9 hPa 0,0 mm 0,0 km/h (0 Bft) SW 225 0 min 0,000 mm 0,0 UV-I 0 W/m 9,3 C 1,6 km/h (1 Bft)
05.08.2016 20:44 10,1 C 10,1 C 94 % 1021,9 hPa 0,0 mm 0,0 km/h (0 Bft) W-SW 247 0 min 0,000 mm 0,0 UV-I 0 W/m 9,2 C 1,6 km/h (1 Bft)
05.08.2016 20:45 10,1 C 10,1 C 94 % 1021,9 hPa 0,0 mm 1,6 km/h (1 Bft) S 180 0 min 0,000 mm 0,0 UV-I 0 W/m 9,2 C 4,8 km/h (1 Bft)
05.08.2016 20:46 10,1 C 10,1 C 94 % 1022,0 hPa 0,0 mm 1,6 km/h (1 Bft) S 180 0 min 0,000 mm 0,0 UV-I 0 W/m 9,2 C 1,6 km/h (1 Bft)
05.08.2016 20:47 10,1 C 10,1 C 94 % 1022,0 hPa 0,0 mm 1,6 km/h (1 Bft) W-SW 247 0 min 0,000 mm 0,0 UV-I 0 W/m 9,2 C 6,4 km/h (2 Bft)
05.08.2016 20:48 10,2 C 10,2 C 94 % 1022,0 hPa 0,0 mm 3,2 km/h (1 Bft) W-SW 247 0 min 0,000 mm 0,0 UV-I 0 W/m 9,3 C 4,8 km/h (1 Bft)
05.08.2016 20:49 10,2 C 10,2 C 93 % 1022,1 hPa 0,0 mm 1,6 km/h (1 Bft) S 180 0 min 0,000 mm 0,0 UV-I 0 W/m 9,1 C 3,2 km/h (1 Bft)
05.08.2016 20:50 10,2 C 10,2 C 93 % 1022,1 hPa 0,0 mm 1,6 km/h (1 Bft) S 180 0 min 0,000 mm 0,0 UV-I 0 W/m 9,1 C 3,2 km/h (1 Bft)
05.08.2016 20:51 10,2 C 10,3 C 93 % 1022,1 hPa 0,0 mm 0,0 km/h (0 Bft) S 180 0 min 0,000 mm 0,0 UV-I 0 W/m 9,1 C 1,6 km/h (1 Bft)
05.08.2016 20:52 10,2 C 10,2 C 94 % 1022,0 hPa 0,0 mm 0,0 km/h (0 Bft) S 180 0 min 0,000 mm 0,0 UV-I 0 W/m 9,3 C 1,6 km/h (1 Bft)
05.08.2016 20:53 10,2 C 10,2 C 94 % 1022,0 hPa 0,0 mm 0,0 km/h (0 Bft) S 180 0 min 0,000 mm 0,0 UV-I 0 W/m 9,3 C 1,6 km/h (1 Bft)
05.08.2016 20:54 10,1 C 10,2 C 94 % 1022,1 hPa 0,0 mm 0,0 km/h (0 Bft) S 180 0 min 0,000 mm 0,0 UV-I 0 W/m 9,2 C 1,6 km/h (1 Bft)
05.08.2016 20:55 10,2 C 10,2 C 94 % 1022,1 hPa 0,0 mm 3,2 km/h (1 Bft) W 270 0 min 0,000 mm 0,0 UV-I 0 W/m 9,3 C 4,8 km/h (1 Bft)
05.08.2016 20:56 10,1 C 10,1 C 94 % 1022,1 hPa 0,0 mm 1,6 km/h (1 Bft) W 270 0 min 0,000 mm 0,0 UV-I 0 W/m 9,2 C 3,2 km/h (1 Bft)
05.08.2016 20:57 10,1 C 10,1 C 94 % 1022,1 hPa 0,0 mm 0,0 km/h (0 Bft) W 270 0 min 0,000 mm 0,0 UV-I 0 W/m 9,2 C 1,6 km/h (1 Bft)
05.08.2016 20:58 10,1 C 10,1 C 94 % 1022,1 hPa 0,0 mm 1,6 km/h (1 Bft) S-SW 202 0 min 0,000 mm 0,0 UV-I 0 W/m 9,2 C 6,4 km/h (2 Bft)
05.08.2016 20:59 10,1 C 10,1 C 95 % 1022,0 hPa 0,0 mm 0,0 km/h (0 Bft) S-SW 202 0 min 0,000 mm 0,0 UV-I 0 W/m 9,3 C 1,6 km/h (1 Bft)
05.08.2016 21:00 10,1 C 10,1 C 95 % 1022,0 hPa 0,0 mm 0,0 km/h (0 Bft) W-SW 247 0 min 0,000 mm 0,0 UV-I 0 W/m 9,3 C 3,2 km/h (1 Bft)
05.08.2016 21:01 10,1 C 10,1 C 95 % 1022,1 hPa 0,0 mm 4,8 km/h (1 Bft) W-SW 247 0 min 0,000 mm 0,0 UV-I 0 W/m 9,3 C 6,4 km/h (2 Bft)
05.08.2016 21:02 10,2 C 10,2 C 94 % 1022,1 hPa 0,0 mm 6,4 km/h (2 Bft) W-NW 292 0 min 0,000 mm 0,0 UV-I 0 W/m 9,3 C 9,7 km/h (2 Bft)
05.08.2016 21:03 10,2 C 10,2 C 94 % 1022,2 hPa 0,0 mm 4,8 km/h (1 Bft) W 270 0 min 0,000 mm 0,0 UV-I 0 W/m 9,3 C 9,7 km/h (2 Bft)
05.08.2016 21:04 10,3 C 10,3 C 94 % 1022,2 hPa 0,0 mm 4,8 km/h (1 Bft) W 270 0 min 0,000 mm 0,0 UV-I 0 W/m 9,4 C 6,4 km/h (2 Bft)
05.08.2016 21:05 10,3 C 10,3 C 93 % 1022,3 hPa 0,0 mm 4,8 km/h (1 Bft) W-SW 247 0 min 0,000 mm 0,0 UV-I 0 W/m 9,2 C 8,0 km/h (2 Bft)
05.08.2016 21:06 10,4 C 10,4 C 93 % 1022,2 hPa 0,0 mm 1,6 km/h (1 Bft) W 270 0 min 0,000 mm 0,0 UV-I 0 W/m 9,3 C 3,2 km/h (1 Bft)
05.08.2016 21:07 10,4 C 10,4 C 92 % 1022,2 hPa 0,0 mm 1,6 km/h (1 Bft) S 180 0 min 0,000 mm 0,0 UV-I 0 W/m 9,2 C 3,2 km/h (1 Bft)
05.08.2016 21:08 10,4 C 10,4 C 93 % 1022,3 hPa 0,0 mm 1,6 km/h (1 Bft) SW 225 0 min 0,000 mm 0,0 UV-I 0 W/m 9,3 C 4,8 km/h (1 Bft)
05.08.2016 21:09 10,4 C 10,4 C 93 % 1022,3 hPa 0,0 mm 0,0 km/h (0 Bft) SW 225 0 min 0,000 mm 0,0 UV-I 0 W/m 9,3 C 3,2 km/h (1 Bft)
05.08.2016 21:10 10,4 C 10,4 C 93 % 1022,4 hPa 0,0 mm 1,6 km/h (1 Bft) W-SW 247 0 min 0,000 mm 0,0 UV-I 0 W/m 9,3 C 3,2 km/h (1 Bft)
05.08.2016 21:11 10,3 C 10,4 C 93 % 1022,4 hPa 0,0 mm 0,0 km/h (0 Bft) W-SW 247 0 min 0,000 mm 0,0 UV-I 0 W/m 9,2 C 1,6 km/h (1 Bft)
05.08.2016 21:12 10,3 C 10,3 C 93 % 1022,4 hPa 0,0 mm 0,0 km/h (0 Bft) W-SW 247 0 min 0,000 mm 0,0 UV-I 0 W/m 9,2 C 1,6 km/h (1 Bft)
05.08.2016 21:13 10,3 C 10,3 C 93 % 1022,4 hPa 0,0 mm 0,0 km/h (0 Bft) N 0 0 min 0,000 mm 0,0 UV-I 0 W/m 9,2 C 0,0 km/h (0 Bft)
05.08.2016 21:14 10,2 C 10,3 C 94 % 1022,4 hPa 0,0 mm 0,0 km/h (0 Bft) N 0 0 min 0,000 mm 0,0 UV-I 0 W/m 9,3 C 0,0 km/h (0 Bft)
05.08.2016 21:15 10,2 C 10,3 C 94 % 1022,4 hPa 0,0 mm 0,0 km/h (0 Bft) W-SW 247 0 min 0,000 mm 0,0 UV-I 0 W/m 9,3 C 1,6 km/h (1 Bft)
05.08.2016 21:16 10,2 C 10,2 C 94 % 1022,4 hPa 0,0 mm 0,0 km/h (0 Bft) N 0 0 min 0,000 mm 0,0 UV-I 0 W/m 9,3 C 0,0 km/h (0 Bft)
05.08.2016 21:17 10,2 C 10,2 C 94 % 1022,5 hPa 0,0 mm 0,0 km/h (0 Bft) W-SW 247 0 min 0,000 mm 0,0 UV-I 0 W/m 9,3 C 1,6 km/h (1 Bft)
05.08.2016 21:18 10,2 C 10,2 C 94 % 1022,5 hPa 0,0 mm 0,0 km/h (0 Bft) N 0 0 min 0,000 mm 0,0 UV-I 0 W/m 9,3 C 0,0 km/h (0 Bft)
05.08.2016 21:19 10,2 C 10,2 C 94 % 1022,5 hPa 0,0 mm 0,0 km/h (0 Bft) W-SW 247 0 min 0,000 mm 0,0 UV-I 0 W/m 9,3 C 3,2 km/h (1 Bft)
05.08.2016 21:20 10,2 C 10,2 C 94 % 1022,6 hPa 0,0 mm 1,6 km/h (1 Bft) W-SW 247 0 min 0,000 mm 0,0 UV-I 0 W/m 9,3 C 3,2 km/h (1 Bft)
05.08.2016 21:21 10,2 C 10,2 C 94 % 1022,6 hPa 0,0 mm 0,0 km/h (0 Bft) W-SW 247 0 min 0,000 mm 0,0 UV-I 0 W/m 9,3 C 1,6 km/h (1 Bft)
05.08.2016 21:22 10,2 C 10,2 C 94 % 1022,6 hPa 0,0 mm 0,0 km/h (0 Bft) W-SW 247 0 min 0,000 mm 0,0 UV-I 0 W/m 9,3 C 1,6 km/h (1 Bft)
05.08.2016 21:23 10,2 C 10,2 C 94 % 1022,6 hPa 0,0 mm 0,0 km/h (0 Bft) W-SW 247 0 min 0,000 mm 0,0 UV-I 0 W/m 9,3 C 1,6 km/h (1 Bft)
05.08.2016 21:24 10,2 C 10,2 C 94 % 1022,6 hPa 0,0 mm 0,0 km/h (0 Bft) W-SW 247 0 min 0,000 mm 0,0 UV-I 0 W/m 9,3 C 1,6 km/h (1 Bft)
05.08.2016 21:25 10,2 C 10,2 C 94 % 1022,7 hPa 0,0 mm 0,0 km/h (0 Bft) W-SW 247 0 min 0,000 mm 0,0 UV-I 0 W/m 9,3 C 1,6 km/h (1 Bft)
05.08.2016 21:26 10,1 C 10,2 C 94 % 1022,6 hPa 0,0 mm 0,0 km/h (0 Bft) W-SW 247 0 min 0,000 mm 0,0 UV-I 0 W/m 9,2 C 1,6 km/h (1 Bft)
05.08.2016 21:27 10,2 C 10,2 C 95 % 1022,7 hPa 0,0 mm 0,0 km/h (0 Bft) N 0 0 min 0,000 mm 0,0 UV-I 0 W/m 9,4 C 0,0 km/h (0 Bft)
05.08.2016 21:28 10,2 C 10,2 C 95 % 1022,7 hPa 0,2 mm 0,0 km/h (0 Bft) N 0 0 min 0,000 mm 0,0 UV-I 0 W/m 9,4 C 0,0 km/h (0 Bft)
05.08.2016 21:29 10,2 C 10,2 C 95 % 1022,7 hPa 0,0 mm 0,0 km/h (0 Bft) N 0 0 min 0,000 mm 0,0 UV-I 0 W/m 9,4 C 0,0 km/h (0 Bft)
05.08.2016 21:30 10,1 C 10,2 C 95 % 1022,7 hPa 0,0 mm 1,6 km/h (1 Bft) SW 225 0 min 0,000 mm 0,0 UV-I 0 W/m 9,3 C 1,6 km/h (1 Bft)
05.08.2016 21:31 10,1 C 10,1 C 95 % 1022,6 hPa 0,0 mm 1,6 km/h (1 Bft) S-SO 157 0 min 0,000 mm 0,0 UV-I 0 W/m 9,3 C 4,8 km/h (1 Bft)
05.08.2016 21:32 10,1 C 10,2 C 95 % 1022,7 hPa 0,0 mm 1,6 km/h (1 Bft) S-SO 157 0 min 0,000 mm 0,0 UV-I 0 W/m 9,3 C 3,2 km/h (1 Bft)
05.08.2016 21:33 10,1 C 10,1 C 95 % 1022,7 hPa 0,0 mm 1,6 km/h (1 Bft) SW 225 0 min 0,000 mm 0,0 UV-I 0 W/m 9,3 C 4,8 km/h (1 Bft)
05.08.2016 21:34 10,2 C 10,2 C 95 % 1022,7 hPa 0,0 mm 4,8 km/h (1 Bft) W-SW 247 0 min 0,000 mm 0,0 UV-I 0 W/m 9,4 C 6,4 km/h (2 Bft)
05.08.2016 21:35 10,2 C 10,2 C 95 % 1022,7 hPa 0,0 mm 3,2 km/h (1 Bft) W-SW 247 0 min 0,000 mm 0,0 UV-I 0 W/m 9,4 C 4,8 km/h (1 Bft)
05.08.2016 21:36 10,2 C 10,3 C 95 % 1022,8 hPa 0,2 mm 4,8 km/h (1 Bft) SW 225 0 min 0,000 mm 0,0 UV-I 0 W/m 9,4 C 8,0 km/h (2 Bft)
05.08.2016 21:37 10,3 C 10,3 C 95 % 1022,7 hPa 0,0 mm 3,2 km/h (1 Bft) SW 225 0 min 0,000 mm 0,0 UV-I 0 W/m 9,5 C 4,8 km/h (1 Bft)
05.08.2016 21:38 10,4 C 10,4 C 95 % 1022,8 hPa 0,0 mm 6,4 km/h (2 Bft) S-SW 202 0 min 0,000 mm 0,0 UV-I 0 W/m 9,6 C 9,7 km/h (2 Bft)
05.08.2016 21:39 10,6 C 10,6 C 95 % 1022,7 hPa 0,0 mm 6,4 km/h (2 Bft) W-SW 247 0 min 0,000 mm 0,0 UV-I 0 W/m 9,8 C 9,7 km/h (2 Bft)
05.08.2016 21:40 10,6 C 10,6 C 95 % 1022,8 hPa 0,2 mm 4,8 km/h (1 Bft) S-SW 202 0 min 0,000 mm 0,0 UV-I 0 W/m 9,8 C 6,4 km/h (2 Bft)
05.08.2016 21:41 10,7 C 10,7 C 94 % 1022,7 hPa 0,0 mm 4,8 km/h (1 Bft) S-SW 202 0 min 0,000 mm 0,0 UV-I 0 W/m 9,8 C 8,0 km/h (2 Bft)
05.08.2016 21:42 10,7 C 10,7 C 94 % 1022,8 hPa 0,0 mm 1,6 km/h (1 Bft) S-SW 202 0 min 0,000 mm 0,0 UV-I 0 W/m 9,8 C 3,2 km/h (1 Bft)
05.08.2016 21:43 10,8 C 10,8 C 94 % 1022,8 hPa 0,0 mm 1,6 km/h (1 Bft) S-SW 202 0 min 0,000 mm 0,0 UV-I 0 W/m 9,9 C 3,2 km/h (1 Bft)
05.08.2016 21:44 10,8 C 10,8 C 94 % 1022,8 hPa 0,0 mm 3,2 km/h (1 Bft) W-SW 247 0 min 0,000 mm 0,0 UV-I 0 W/m 9,9 C 4,8 km/h (1 Bft)
05.08.2016 21:45 10,8 C 10,8 C 94 % 1022,8 hPa 0,0 mm 3,2 km/h (1 Bft) W-SW 247 0 min 0,000 mm 0,0 UV-I 0 W/m 9,9 C 4,8 km/h (1 Bft)
05.08.2016 21:46 10,8 C 10,8 C 94 % 1022,9 hPa 0,0 mm 1,6 km/h (1 Bft) W-SW 247 0 min 0,000 mm 0,0 UV-I 0 W/m 9,9 C 1,6 km/h (1 Bft)
05.08.2016 21:47 10,8 C 10,8 C 94 % 1022,9 hPa 0,2 mm 1,6 km/h (1 Bft) W-SW 247 0 min 0,000 mm 0,0 UV-I 0 W/m 9,9 C 3,2 km/h (1 Bft)
05.08.2016 21:48 10,8 C 10,8 C 94 % 1022,9 hPa 0,0 mm 3,2 km/h (1 Bft) W-SW 247 0 min 0,000 mm 0,0 UV-I 0 W/m 9,9 C 4,8 km/h (1 Bft)
05.08.2016 21:49 10,9 C 10,9 C 94 % 1022,9 hPa 0,2 mm 4,8 km/h (1 Bft) W-SW 247 0 min 0,000 mm 0,0 UV-I 0 W/m 10,0 C 6,4 km/h (2 Bft)
05.08.2016 21:50 10,8 C 10,9 C 94 % 1023,0 hPa 0,0 mm 4,8 km/h (1 Bft) W-SW 247 0 min 0,000 mm 0,0 UV-I 0 W/m 9,9 C 6,4 km/h (2 Bft)
05.08.2016 21:51 10,8 C 10,8 C 94 % 1023,0 hPa 0,2 mm 1,6 km/h (1 Bft) W-SW 247 0 min 0,000 mm 0,0 UV-I 0 W/m 9,9 C 3,2 km/h (1 Bft)
05.08.2016 21:52 10,8 C 10,8 C 94 % 1023,0 hPa 0,2 mm 3,2 km/h (1 Bft) S 180 0 min 0,000 mm 0,0 UV-I 0 W/m 9,9 C 4,8 km/h (1 Bft)
05.08.2016 21:53 10,8 C 10,8 C 94 % 1023,0 hPa 0,2 mm 6,4 km/h (2 Bft) S 180 0 min 0,000 mm 0,0 UV-I 0 W/m 9,9 C 8,0 km/h (2 Bft)
05.08.2016 21:54 10,8 C 10,8 C 94 % 1022,9 hPa 0,0 mm 8,0 km/h (2 Bft) S 180 0 min 0,000 mm 0,0 UV-I 0 W/m 9,9 C 11,3 km/h (2 Bft)
05.08.2016 21:55 10,8 C 10,8 C 94 % 1022,9 hPa 0,0 mm 8,0 km/h (2 Bft) S 180 0 min 0,000 mm 0,0 UV-I 0 W/m 9,9 C 12,9 km/h (3 Bft)
05.08.2016 21:56 10,8 C 10,8 C 94 % 1022,9 hPa 0,2 mm 4,8 km/h (1 Bft) S 180 0 min 0,000 mm 0,0 UV-I 0 W/m 9,9 C 8,0 km/h (2 Bft)
05.08.2016 21:57 10,8 C 10,8 C 94 % 1022,8 hPa 0,0 mm 3,2 km/h (1 Bft) S-SW 202 0 min 0,000 mm 0,0 UV-I 0 W/m 9,9 C 4,8 km/h (1 Bft)
05.08.2016 21:58 10,8 C 10,8 C 94 % 1022,9 hPa 0,0 mm 1,6 km/h (1 Bft) W-SW 247 0 min 0,000 mm 0,0 UV-I 0 W/m 9,9 C 4,8 km/h (1 Bft)
05.08.2016 21:59 10,8 C 10,8 C 94 % 1022,9 hPa 0,0 mm 3,2 km/h (1 Bft) SW 225 0 min 0,000 mm 0,0 UV-I 0 W/m 9,9 C 4,8 km/h (1 Bft)
05.08.2016 22:00 10,8 C 10,8 C 94 % 1023,0 hPa 0,2 mm 1,6 km/h (1 Bft) W-SW 247 0 min 0,000 mm 0,0 UV-I 0 W/m 9,9 C 3,2 km/h (1 Bft)
05.08.2016 22:01 10,8 C 10,8 C 94 % 1023,1 hPa 0,0 mm 3,2 km/h (1 Bft) W-SW 247 0 min 0,000 mm 0,0 UV-I 0 W/m 9,9 C 3,2 km/h (1 Bft)
05.08.2016 22:02 10,7 C 10,8 C 95 % 1023,1 hPa 0,0 mm 1,6 km/h (1 Bft) W-SW 247 0 min 0,000 mm 0,0 UV-I 0 W/m 9,9 C 3,2 km/h (1 Bft)
05.08.2016 22:03 10,7 C 10,7 C 95 % 1023,2 hPa 0,0 mm 0,0 km/h (0 Bft) W-SW 247 0 min 0,000 mm 0,0 UV-I 0 W/m 9,9 C 1,6 km/h (1 Bft)
05.08.2016 22:04 10,7 C 10,7 C 95 % 1023,1 hPa 0,2 mm 1,6 km/h (1 Bft) W-SW 247 0 min 0,000 mm 0,0 UV-I 0 W/m 9,9 C 1,6 km/h (1 Bft)
05.08.2016 22:05 10,7 C 10,7 C 95 % 1023,1 hPa 0,0 mm 1,6 km/h (1 Bft) W-SW 247 0 min 0,000 mm 0,0 UV-I 0 W/m 9,9 C 3,2 km/h (1 Bft)
05.08.2016 22:06 10,7 C 10,7 C 95 % 1023,2 hPa 0,0 mm 1,6 km/h (1 Bft) S-SW 202 0 min 0,000 mm 0,0 UV-I 0 W/m 9,9 C 3,2 km/h (1 Bft)
05.08.2016 22:07 10,7 C 10,7 C 95 % 1023,1 hPa 0,0 mm 0,0 km/h (0 Bft) S-SW 202 0 min 0,000 mm 0,0 UV-I 0 W/m 9,9 C 1,6 km/h (1 Bft)
05.08.2016 22:08 10,7 C 10,7 C 95 % 1023,1 hPa 0,0 mm 0,0 km/h (0 Bft) S-SW 202 0 min 0,000 mm 0,0 UV-I 0 W/m 9,9 C 1,6 km/h (1 Bft)
05.08.2016 22:09 10,7 C 10,7 C 95 % 1023,1 hPa 0,0 mm 0,0 km/h (0 Bft) S-SW 202 0 min 0,000 mm 0,0 UV-I 0 W/m 9,9 C 1,6 km/h (1 Bft)
05.08.2016 22:10 10,7 C 10,7 C 95 % 1023,1 hPa 0,0 mm 0,0 km/h (0 Bft) S-SW 202 0 min 0,000 mm 0,0 UV-I 0 W/m 9,9 C 1,6 km/h (1 Bft)
05.08.2016 22:11 10,7 C 10,7 C 95 % 1023,1 hPa 0,0 mm 0,0 km/h (0 Bft) S-SW 202 0 min 0,000 mm 0,0 UV-I 0 W/m 9,9 C 1,6 km/h (1 Bft)
05.08.2016 22:12 10,7 C 10,7 C 95 % 1023,1 hPa 0,0 mm 0,0 km/h (0 Bft) N 0 0 min 0,000 mm 0,0 UV-I 0 W/m 9,9 C 0,0 km/h (0 Bft)
05.08.2016 22:13 10,6 C 10,6 C 95 % 1023,1 hPa 0,0 mm 0,0 km/h (0 Bft) N 0 0 min 0,000 mm 0,0 UV-I 0 W/m 9,8 C 0,0 km/h (0 Bft)
05.08.2016 22:14 10,6 C 10,6 C 95 % 1023,1 hPa 0,0 mm 0,0 km/h (0 Bft) N 0 0 min 0,000 mm 0,0 UV-I 0 W/m 9,8 C 0,0 km/h (0 Bft)
05.08.2016 22:15 10,6 C 10,6 C 95 % 1023,1 hPa 0,0 mm 0,0 km/h (0 Bft) N 0 0 min 0,000 mm 0,0 UV-I 0 W/m 9,8 C 0,0 km/h (0 Bft)
05.08.2016 22:16 10,6 C 10,6 C 95 % 1023,1 hPa 0,0 mm 0,0 km/h (0 Bft) N 0 0 min 0,000 mm 0,0 UV-I 0 W/m 9,8 C 0,0 km/h (0 Bft)
05.08.2016 22:17 10,6 C 10,6 C 95 % 1023,0 hPa 0,0 mm 0,0 km/h (0 Bft) N 0 0 min 0,000 mm 0,0 UV-I 0 W/m 9,8 C 0,0 km/h (0 Bft)
05.08.2016 22:18 10,6 C 10,6 C 95 % 1023,0 hPa 0,0 mm 0,0 km/h (0 Bft) N 0 0 min 0,000 mm 0,0 UV-I 0 W/m 9,8 C 0,0 km/h (0 Bft)
05.08.2016 22:19 10,6 C 10,6 C 95 % 1022,9 hPa 0,0 mm 0,0 km/h (0 Bft) N 0 0 min 0,000 mm 0,0 UV-I 0 W/m 9,8 C 0,0 km/h (0 Bft)
05.08.2016 22:20 10,6 C 10,6 C 96 % 1022,9 hPa 0,0 mm 0,0 km/h (0 Bft) S-SW 202 0 min 0,000 mm 0,0 UV-I 0 W/m 10,0 C 1,6 km/h (1 Bft)
05.08.2016 22:21 10,5 C 10,6 C 96 % 1022,9 hPa 0,0 mm 0,0 km/h (0 Bft) S-SW 202 0 min 0,000 mm 0,0 UV-I 0 W/m 9,9 C 1,6 km/h (1 Bft)
05.08.2016 22:22 10,5 C 10,6 C 95 % 1022,9 hPa 0,0 mm 3,2 km/h (1 Bft) W 270 0 min 0,000 mm 0,0 UV-I 0 W/m 9,7 C 3,2 km/h (1 Bft)
05.08.2016 22:23 10,5 C 10,5 C 95 % 1022,9 hPa 0,0 mm 3,2 km/h (1 Bft) W 270 0 min 0,000 mm 0,0 UV-I 0 W/m 9,7 C 3,2 km/h (1 Bft)
05.08.2016 22:24 10,4 C 10,4 C 95 % 1022,9 hPa 0,0 mm 3,2 km/h (1 Bft) SW 225 0 min 0,000 mm 0,0 UV-I 0 W/m 9,6 C 6,4 km/h (2 Bft)
05.08.2016 22:25 10,4 C 10,4 C 95 % 1022,9 hPa 0,0 mm 1,6 km/h (1 Bft) SW 225 0 min 0,000 mm 0,0 UV-I 0 W/m 9,6 C 3,2 km/h (1 Bft)
05.08.2016 22:26 10,4 C 10,4 C 95 % 1022,9 hPa 0,0 mm 1,6 km/h (1 Bft) SW 225 0 min 0,000 mm 0,0 UV-I 0 W/m 9,6 C 3,2 km/h (1 Bft)
05.08.2016 22:27 10,3 C 10,4 C 95 % 1022,9 hPa 0,0 mm 1,6 km/h (1 Bft) SW 225 0 min 0,000 mm 0,0 UV-I 0 W/m 9,5 C 3,2 km/h (1 Bft)
05.08.2016 22:28 10,3 C 10,4 C 95 % 1022,9 hPa 0,0 mm 0,0 km/h (0 Bft) SW 225 0 min 0,000 mm 0,0 UV-I 0 W/m 9,5 C 1,6 km/h (1 Bft)
05.08.2016 22:29 10,3 C 10,3 C 95 % 1022,9 hPa 0,0 mm 3,2 km/h (1 Bft) W-SW 247 0 min 0,000 mm 0,0 UV-I 0 W/m 9,5 C 4,8 km/h (1 Bft)
05.08.2016 22:30 10,3 C 10,3 C 95 % 1023,0 hPa 0,0 mm 4,8 km/h (1 Bft) W-SW 247 0 min 0,000 mm 0,0 UV-I 0 W/m 9,5 C 6,4 km/h (2 Bft)
05.08.2016 22:31 10,3 C 10,3 C 95 % 1023,0 hPa 0,0 mm 1,6 km/h (1 Bft) SW 225 0 min 0,000 mm 0,0 UV-I 0 W/m 9,5 C 9,7 km/h (2 Bft)
05.08.2016 22:32 10,3 C 10,3 C 95 % 1023,0 hPa 0,0 mm 0,0 km/h (0 Bft) SW 225 0 min 0,000 mm 0,0 UV-I 0 W/m 9,5 C 1,6 km/h (1 Bft)
05.08.2016 22:33 10,3 C 10,3 C 95 % 1022,9 hPa 0,0 mm 0,0 km/h (0 Bft) SW 225 0 min 0,000 mm 0,0 UV-I 0 W/m 9,5 C 1,6 km/h (1 Bft)
05.08.2016 22:34 10,3 C 10,3 C 95 % 1023,0 hPa 0,0 mm 0,0 km/h (0 Bft) S 180 0 min 0,000 mm 0,0 UV-I 0 W/m 9,5 C 3,2 km/h (1 Bft)
05.08.2016 22:35 10,3 C 10,3 C 95 % 1023,0 hPa 0,0 mm 1,6 km/h (1 Bft) W-SW 247 0 min 0,000 mm 0,0 UV-I 0 W/m 9,5 C 3,2 km/h (1 Bft)
05.08.2016 22:36 10,2 C 10,3 C 95 % 1023,0 hPa 0,0 mm 3,2 km/h (1 Bft) W-SW 247 0 min 0,000 mm 0,0 UV-I 0 W/m 9,4 C 3,2 km/h (1 Bft)
05.08.2016 22:37 10,2 C 10,2 C 95 % 1023,0 hPa 0,0 mm 1,6 km/h (1 Bft) W-SW 247 0 min 0,000 mm 0,0 UV-I 0 W/m 9,4 C 3,2 km/h (1 Bft)
05.08.2016 22:38 10,2 C 10,2 C 95 % 1023,0 hPa 0,0 mm 0,0 km/h (0 Bft) W-SW 247 0 min 0,000 mm 0,0 UV-I 0 W/m 9,4 C 1,6 km/h (1 Bft)
05.08.2016 22:39 10,2 C 10,2 C 95 % 1023,0 hPa 0,0 mm 0,0 km/h (0 Bft) W-SW 247 0 min 0,000 mm 0,0 UV-I 0 W/m 9,4 C 1,6 km/h (1 Bft)
05.08.2016 22:40 10,2 C 10,2 C 95 % 1023,0 hPa 0,0 mm 1,6 km/h (1 Bft) W-SW 247 0 min 0,000 mm 0,0 UV-I 0 W/m 9,4 C 3,2 km/h (1 Bft)
05.08.2016 22:41 10,2 C 10,2 C 95 % 1023,0 hPa 0,0 mm 1,6 km/h (1 Bft) W-SW 247 0 min 0,000 mm 0,0 UV-I 0 W/m 9,4 C 1,6 km/h (1 Bft)
05.08.2016 22:42 10,2 C 10,2 C 95 % 1023,0 hPa 0,0 mm 1,6 km/h (1 Bft) W-SW 247 0 min 0,000 mm 0,0 UV-I 0 W/m 9,4 C 3,2 km/h (1 Bft)
05.08.2016 22:43 10,2 C 10,2 C 95 % 1023,1 hPa 0,0 mm 0,0 km/h (0 Bft) W-SW 247 0 min 0,000 mm 0,0 UV-I 0 W/m 9,4 C 1,6 km/h (1 Bft)
05.08.2016 22:44 10,2 C 10,2 C 95 % 1023,1 hPa 0,0 mm 1,6 km/h (1 Bft) W-SW 247 0 min 0,000 mm 0,0 UV-I 0 W/m 9,4 C 3,2 km/h (1 Bft)
05.08.2016 22:45 10,2 C 10,2 C 95 % 1023,1 hPa 0,0 mm 1,6 km/h (1 Bft) NW 315 0 min 0,000 mm 0,0 UV-I 0 W/m 9,4 C 3,2 km/h (1 Bft)
05.08.2016 22:46 10,2 C 10,2 C 95 % 1023,1 hPa 0,0 mm 3,2 km/h (1 Bft) N-NW 337 0 min 0,000 mm 0,0 UV-I 0 W/m 9,4 C 4,8 km/h (1 Bft)
05.08.2016 22:47 10,2 C 10,2 C 95 % 1023,2 hPa 0,0 mm 1,6 km/h (1 Bft) N-NW 337 0 min 0,000 mm 0,0 UV-I 0 W/m 9,4 C 3,2 km/h (1 Bft)
05.08.2016 22:48 10,2 C 10,2 C 95 % 1023,2 hPa 0,0 mm 0,0 km/h (0 Bft) N-NW 337 0 min 0,000 mm 0,0 UV-I 0 W/m 9,4 C 1,6 km/h (1 Bft)
05.08.2016 22:49 10,2 C 10,2 C 96 % 1023,2 hPa 0,0 mm 1,6 km/h (1 Bft) N 360 0 min 0,000 mm 0,0 UV-I 0 W/m 9,6 C 4,8 km/h (1 Bft)
05.08.2016 22:50 10,2 C 10,2 C 96 % 1023,2 hPa 0,0 mm 1,6 km/h (1 Bft) N 360 0 min 0,000 mm 0,0 UV-I 0 W/m 9,6 C 1,6 km/h (1 Bft)
05.08.2016 22:51 10,2 C 10,2 C 96 % 1023,2 hPa 0,0 mm 0,0 km/h (0 Bft) N 360 0 min 0,000 mm 0,0 UV-I 0 W/m 9,6 C 1,6 km/h (1 Bft)
05.08.2016 22:52 10,2 C 10,2 C 96 % 1023,2 hPa 0,0 mm 1,6 km/h (1 Bft) N 360 0 min 0,000 mm 0,0 UV-I 0 W/m 9,6 C 3,2 km/h (1 Bft)
05.08.2016 22:53 10,2 C 10,2 C 96 % 1023,1 hPa 0,0 mm 3,2 km/h (1 Bft) N-NW 337 0 min 0,000 mm 0,0 UV-I 0 W/m 9,6 C 4,8 km/h (1 Bft)
05.08.2016 22:54 10,3 C 10,3 C 96 % 1023,1 hPa 0,0 mm 0,0 km/h (0 Bft) N-NW 337 0 min 0,000 mm 0,0 UV-I 0 W/m 9,7 C 1,6 km/h (1 Bft)
05.08.2016 22:55 10,2 C 10,3 C 96 % 1023,1 hPa 0,0 mm 1,6 km/h (1 Bft) N-NW 337 0 min 0,000 mm 0,0 UV-I 0 W/m 9,6 C 1,6 km/h (1 Bft)
05.08.2016 22:56 10,2 C 10,2 C 95 % 1023,0 hPa 0,0 mm 3,2 km/h (1 Bft) NW 315 0 min 0,000 mm 0,0 UV-I 0 W/m 9,4 C 4,8 km/h (1 Bft)
05.08.2016 22:57 10,2 C 10,3 C 95 % 1023,1 hPa 0,0 mm 3,2 km/h (1 Bft) W-NW 292 0 min 0,000 mm 0,0 UV-I 0 W/m 9,4 C 3,2 km/h (1 Bft)
05.08.2016 22:58 10,2 C 10,2 C 95 % 1023,1 hPa 0,0 mm 3,2 km/h (1 Bft) W-NW 292 0 min 0,000 mm 0,0 UV-I 0 W/m 9,4 C 3,2 km/h (1 Bft)
05.08.2016 22:59 10,2 C 10,2 C 95 % 1023,1 hPa 0,0 mm 3,2 km/h (1 Bft) W-NW 292 0 min 0,000 mm 0,0 UV-I 0 W/m 9,4 C 4,8 km/h (1 Bft)
05.08.2016 23:00 10,3 C 10,3 C 95 % 1023,1 hPa 0,0 mm 3,2 km/h (1 Bft) W-NW 292 0 min 0,000 mm 0,0 UV-I 0 W/m 9,5 C 4,8 km/h (1 Bft)
05.08.2016 23:01 10,3 C 10,3 C 95 % 1023,1 hPa 0,0 mm 1,6 km/h (1 Bft) W-NW 292 0 min 0,000 mm 0,0 UV-I 0 W/m 9,5 C 1,6 km/h (1 Bft)
05.08.2016 23:02 10,3 C 10,3 C 95 % 1023,1 hPa 0,0 mm 1,6 km/h (1 Bft) W-NW 292 0 min 0,000 mm 0,0 UV-I 0 W/m 9,5 C 1,6 km/h (1 Bft)
05.08.2016 23:03 10,3 C 10,3 C 95 % 1023,1 hPa 0,0 mm 1,6 km/h (1 Bft) W-NW 292 0 min 0,000 mm 0,0 UV-I 0 W/m 9,5 C 3,2 km/h (1 Bft)
05.08.2016 23:04 10,3 C 10,3 C 95 % 1023,1 hPa 0,0 mm 0,0 km/h (0 Bft) W-NW 292 0 min 0,000 mm 0,0 UV-I 0 W/m 9,5 C 1,6 km/h (1 Bft)
05.08.2016 23:05 10,2 C 10,3 C 95 % 1023,1 hPa 0,0 mm 0,0 km/h (0 Bft) W-NW 292 0 min 0,000 mm 0,0 UV-I 0 W/m 9,4 C 1,6 km/h (1 Bft)
05.08.2016 23:06 10,2 C 10,3 C 95 % 1023,1 hPa 0,0 mm 0,0 km/h (0 Bft) W-NW 292 0 min 0,000 mm 0,0 UV-I 0 W/m 9,4 C 1,6 km/h (1 Bft)
05.08.2016 23:07 10,2 C 10,2 C 95 % 1023,1 hPa 0,0 mm 0,0 km/h (0 Bft) W-NW 292 0 min 0,000 mm 0,0 UV-I 0 W/m 9,4 C 1,6 km/h (1 Bft)
05.08.2016 23:08 10,1 C 10,2 C 95 % 1023,1 hPa 0,0 mm 1,6 km/h (1 Bft) W-NW 292 0 min 0,000 mm 0,0 UV-I 0 W/m 9,3 C 3,2 km/h (1 Bft)
05.08.2016 23:09 10,1 C 10,2 C 95 % 1023,1 hPa 0,0 mm 1,6 km/h (1 Bft) W-NW 292 0 min 0,000 mm 0,0 UV-I 0 W/m 9,3 C 1,6 km/h (1 Bft)
05.08.2016 23:10 10,1 C 10,1 C 95 % 1023,1 hPa 0,0 mm 1,6 km/h (1 Bft) N-NW 337 0 min 0,000 mm 0,0 UV-I 0 W/m 9,3 C 3,2 km/h (1 Bft)
05.08.2016 23:11 10,1 C 10,1 C 95 % 1023,1 hPa 0,0 mm 0,0 km/h (0 Bft) N-NW 337 0 min 0,000 mm 0,0 UV-I 0 W/m 9,3 C 1,6 km/h (1 Bft)
05.08.2016 23:12 10,1 C 10,1 C 95 % 1023,1 hPa 0,0 mm 0,0 km/h (0 Bft) N-NW 337 0 min 0,000 mm 0,0 UV-I 0 W/m 9,3 C 1,6 km/h (1 Bft)
05.08.2016 23:13 10,1 C 10,1 C 95 % 1023,2 hPa 0,0 mm 0,0 km/h (0 Bft) N-NW 337 0 min 0,000 mm 0,0 UV-I 0 W/m 9,3 C 1,6 km/h (1 Bft)
05.08.2016 23:14 10,1 C 10,1 C 95 % 1023,1 hPa 0,0 mm 0,0 km/h (0 Bft) N-NW 337 0 min 0,000 mm 0,0 UV-I 0 W/m 9,3 C 1,6 km/h (1 Bft)
05.08.2016 23:15 10,1 C 10,1 C 96 % 1023,2 hPa 0,0 mm 1,6 km/h (1 Bft) N-NW 337 0 min 0,000 mm 0,0 UV-I 0 W/m 9,5 C 1,6 km/h (1 Bft)
05.08.2016 23:16 10,1 C 10,1 C 96 % 1023,2 hPa 0,0 mm 0,0 km/h (0 Bft) N-NW 337 0 min 0,000 mm 0,0 UV-I 0 W/m 9,5 C 1,6 km/h (1 Bft)
05.08.2016 23:17 10,0 C 10,1 C 96 % 1023,1 hPa 0,0 mm 0,0 km/h (0 Bft) N 0 0 min 0,000 mm 0,0 UV-I 0 W/m 9,4 C 0,0 km/h (0 Bft)
05.08.2016 23:18 10,0 C 10,0 C 96 % 1023,1 hPa 0,0 mm 0,0 km/h (0 Bft) N 0 0 min 0,000 mm 0,0 UV-I 0 W/m 9,4 C 0,0 km/h (0 Bft)
05.08.2016 23:19 10,0 C 10,1 C 96 % 1023,1 hPa 0,0 mm 1,6 km/h (1 Bft) N-NW 337 0 min 0,000 mm 0,0 UV-I 0 W/m 9,4 C 1,6 km/h (1 Bft)
05.08.2016 23:20 10,0 C 10,1 C 96 % 1023,1 hPa 0,0 mm 1,6 km/h (1 Bft) N-NW 337 0 min 0,000 mm 0,0 UV-I 0 W/m 9,4 C 3,2 km/h (1 Bft)
05.08.2016 23:21 10,0 C 10,0 C 96 % 1023,1 hPa 0,0 mm 1,6 km/h (1 Bft) N 360 0 min 0,000 mm 0,0 UV-I 0 W/m 9,4 C 3,2 km/h (1 Bft)
05.08.2016 23:22 10,1 C 10,1 C 96 % 1023,1 hPa 0,0 mm 0,0 km/h (0 Bft) N 0 0 min 0,000 mm 0,0 UV-I 0 W/m 9,5 C 0,0 km/h (0 Bft)
05.08.2016 23:23 10,0 C 10,1 C 96 % 1023,1 hPa 0,0 mm 0,0 km/h (0 Bft) N 0 0 min 0,000 mm 0,0 UV-I 0 W/m 9,4 C 0,0 km/h (0 Bft)
05.08.2016 23:24 10,1 C 10,1 C 96 % 1023,1 hPa 0,0 mm 0,0 km/h (0 Bft) N 0 0 min 0,000 mm 0,0 UV-I 0 W/m 9,5 C 0,0 km/h (0 Bft)
05.08.2016 23:25 10,0 C 10,1 C 96 % 1023,1 hPa 0,0 mm 0,0 km/h (0 Bft) N 0 0 min 0,000 mm 0,0 UV-I 0 W/m 9,4 C 0,0 km/h (0 Bft)
05.08.2016 23:26 10,0 C 10,1 C 96 % 1023,1 hPa 0,0 mm 0,0 km/h (0 Bft) N 0 0 min 0,000 mm 0,0 UV-I 0 W/m 9,4 C 0,0 km/h (0 Bft)
05.08.2016 23:27 9,9 C 10,0 C 95 % 1023,1 hPa 0,0 mm 0,0 km/h (0 Bft) N 0 0 min 0,000 mm 0,0 UV-I 0 W/m 9,1 C 0,0 km/h (0 Bft)
05.08.2016 23:28 10,0 C 10,0 C 95 % 1023,0 hPa 0,0 mm 0,0 km/h (0 Bft) N 0 0 min 0,000 mm 0,0 UV-I 0 W/m 9,2 C 0,0 km/h (0 Bft)
05.08.2016 23:29 10,0 C 10,0 C 95 % 1023,1 hPa 0,0 mm 0,0 km/h (0 Bft) N 0 0 min 0,000 mm 0,0 UV-I 0 W/m 9,2 C 0,0 km/h (0 Bft)
05.08.2016 23:30 10,0 C 10,0 C 95 % 1023,1 hPa 0,0 mm 0,0 km/h (0 Bft) N 0 0 min 0,000 mm 0,0 UV-I 0 W/m 9,2 C 0,0 km/h (0 Bft)
05.08.2016 23:31 10,0 C 10,0 C 95 % 1023,1 hPa 0,0 mm 0,0 km/h (0 Bft) N 0 0 min 0,000 mm 0,0 UV-I 0 W/m 9,2 C 0,0 km/h (0 Bft)
05.08.2016 23:32 9,9 C 10,0 C 95 % 1023,2 hPa 0,0 mm 0,0 km/h (0 Bft) W-SW 247 0 min 0,000 mm 0,0 UV-I 0 W/m 9,1 C 1,6 km/h (1 Bft)
05.08.2016 23:33 10,0 C 10,0 C 95 % 1023,1 hPa 0,0 mm 3,2 km/h (1 Bft) S-SW 202 0 min 0,000 mm 0,0 UV-I 0 W/m 9,2 C 6,4 km/h (2 Bft)
05.08.2016 23:34 10,0 C 10,0 C 95 % 1023,1 hPa 0,0 mm 0,0 km/h (0 Bft) S-SW 202 0 min 0,000 mm 0,0 UV-I 0 W/m 9,2 C 1,6 km/h (1 Bft)
05.08.2016 23:35 9,9 C 10,0 C 95 % 1023,1 hPa 0,0 mm 1,6 km/h (1 Bft) SW 225 0 min 0,000 mm 0,0 UV-I 0 W/m 9,1 C 4,8 km/h (1 Bft)
05.08.2016 23:36 9,9 C 10,0 C 95 % 1023,2 hPa 0,0 mm 3,2 km/h (1 Bft) W-SW 247 0 min 0,000 mm 0,0 UV-I 0 W/m 9,1 C 4,8 km/h (1 Bft)
05.08.2016 23:37 10,0 C 10,0 C 95 % 1023,2 hPa 0,0 mm 3,2 km/h (1 Bft) W-SW 247 0 min 0,000 mm 0,0 UV-I 0 W/m 9,2 C 4,8 km/h (1 Bft)
05.08.2016 23:38 10,0 C 10,0 C 95 % 1023,1 hPa 0,0 mm 3,2 km/h (1 Bft) W-SW 247 0 min 0,000 mm 0,0 UV-I 0 W/m 9,2 C 4,8 km/h (1 Bft)
05.08.2016 23:39 10,0 C 10,0 C 95 % 1023,3 hPa 0,0 mm 1,6 km/h (1 Bft) W-SW 247 0 min 0,000 mm 0,0 UV-I 0 W/m 9,2 C 4,8 km/h (1 Bft)
05.08.2016 23:40 10,0 C 10,0 C 95 % 1023,2 hPa 0,0 mm 4,8 km/h (1 Bft) W-SW 247 0 min 0,000 mm 0,0 UV-I 0 W/m 9,2 C 4,8 km/h (1 Bft)
05.08.2016 23:41 10,0 C 10,0 C 95 % 1023,3 hPa 0,0 mm 1,6 km/h (1 Bft) SW 225 0 min 0,000 mm 0,0 UV-I 0 W/m 9,2 C 4,8 km/h (1 Bft)
05.08.2016 23:42 10,0 C 10,0 C 95 % 1023,3 hPa 0,0 mm 0,0 km/h (0 Bft) SW 225 0 min 0,000 mm 0,0 UV-I 0 W/m 9,2 C 1,6 km/h (1 Bft)
05.08.2016 23:43 10,0 C 10,1 C 95 % 1023,2 hPa 0,0 mm 0,0 km/h (0 Bft) SW 225 0 min 0,000 mm 0,0 UV-I 0 W/m 9,2 C 1,6 km/h (1 Bft)
05.08.2016 23:44 10,0 C 10,0 C 95 % 1023,2 hPa 0,0 mm 1,6 km/h (1 Bft) W-SW 247 0 min 0,000 mm 0,0 UV-I 0 W/m 9,2 C 3,2 km/h (1 Bft)
05.08.2016 23:45 10,0 C 10,1 C 95 % 1023,2 hPa 0,0 mm 3,2 km/h (1 Bft) NW 315 0 min 0,000 mm 0,0 UV-I 0 W/m 9,2 C 4,8 km/h (1 Bft)
05.08.2016 23:46 10,1 C 10,1 C 95 % 1023,2 hPa 0,0 mm 4,8 km/h (1 Bft) W 270 0 min 0,000 mm 0,0 UV-I 0 W/m 9,3 C 6,4 km/h (2 Bft)
05.08.2016 23:47 10,1 C 10,1 C 95 % 1023,2 hPa 0,0 mm 4,8 km/h (1 Bft) W 270 0 min 0,000 mm 0,0 UV-I 0 W/m 9,3 C 6,4 km/h (2 Bft)
05.08.2016 23:48 10,1 C 10,1 C 95 % 1023,2 hPa 0,0 mm 1,6 km/h (1 Bft) SW 225 0 min 0,000 mm 0,0 UV-I 0 W/m 9,3 C 3,2 km/h (1 Bft)
05.08.2016 23:49 10,1 C 10,2 C 94 % 1023,2 hPa 0,0 mm 1,6 km/h (1 Bft) SW 225 0 min 0,000 mm 0,0 UV-I 0 W/m 9,2 C 3,2 km/h (1 Bft)
05.08.2016 23:50 10,2 C 10,2 C 94 % 1023,2 hPa 0,0 mm 4,8 km/h (1 Bft) W 270 0 min 0,000 mm 0,0 UV-I 0 W/m 9,3 C 9,7 km/h (2 Bft)
05.08.2016 23:51 10,2 C 10,2 C 94 % 1023,2 hPa 0,0 mm 6,4 km/h (2 Bft) W 270 0 min 0,000 mm 0,0 UV-I 0 W/m 9,3 C 9,7 km/h (2 Bft)
05.08.2016 23:52 10,1 C 10,2 C 94 % 1023,2 hPa 0,0 mm 1,6 km/h (1 Bft) W 270 0 min 0,000 mm 0,0 UV-I 0 W/m 9,2 C 4,8 km/h (1 Bft)
05.08.2016 23:53 10,1 C 10,2 C 94 % 1023,1 hPa 0,0 mm 1,6 km/h (1 Bft) S-SW 202 0 min 0,000 mm 0,0 UV-I 0 W/m 9,2 C 3,2 km/h (1 Bft)
05.08.2016 23:54 10,1 C 10,2 C 94 % 1023,1 hPa 0,0 mm 0,0 km/h (0 Bft) W-SW 247 0 min 0,000 mm 0,0 UV-I 0 W/m 9,2 C 3,2 km/h (1 Bft)
05.08.2016 23:55 10,1 C 10,2 C 94 % 1023,1 hPa 0,0 mm 3,2 km/h (1 Bft) SW 225 0 min 0,000 mm 0,0 UV-I 0 W/m 9,2 C 4,8 km/h (1 Bft)
05.08.2016 23:56 10,2 C 10,2 C 94 % 1023,1 hPa 0,0 mm 1,6 km/h (1 Bft) SW 225 0 min 0,000 mm 0,0 UV-I 0 W/m 9,3 C 4,8 km/h (1 Bft)
05.08.2016 23:57 10,1 C 10,2 C 94 % 1023,1 hPa 0,0 mm 1,6 km/h (1 Bft) SW 225 0 min 0,000 mm 0,0 UV-I 0 W/m 9,2 C 1,6 km/h (1 Bft)
05.08.2016 23:58 10,1 C 10,2 C 94 % 1023,0 hPa 0,0 mm 1,6 km/h (1 Bft) W 270 0 min 0,000 mm 0,0 UV-I 0 W/m 9,2 C 3,2 km/h (1 Bft)
05.08.2016 23:59 10,1 C 10,1 C 94 % 1023,0 hPa 0,0 mm 0,0 km/h (0 Bft) N 0 0 min 0,000 mm 0,0 UV-I 0 W/m 9,2 C 0,0 km/h (0 Bft)
_ Min-Zeit 23:36 23:44 18:47 05:16 - 23:59 - - - - - - 20:15 23:59
Minimum _ 9,9 C 10,0 C 91 % 1010,5 hPa - 0,0 km/h (0 Bft) - - - - - - 9,0 C 0,0 km/h (0 Bft)
_ Max-Zeit 01:24 01:25 23:26 23:42 09:33 10:56 - - 23:59 18:01 17:02 16:59 01:24 01:37
Maximum _ 14,7 C 14,7 C 96 % 1023,3 hPa 0,4 mm 20,0 km/h
W (4 Bft)
- - 0 min 0,076 mm 1,3 UV-I 185 W/m 13,7 C 30,6 km/h
SW (5 Bft)
Durchschnitt _ 12,0 C 12,0 C 94 % 1016,3 hPa #61,2 mm 2,8 km/h (1 Bft) W-SW - #0 min. #0,482 mm 0,9 UV-I 35 W/m 11,1 C 4,9 km/h (1 Bft)